[[{"header":{"parameterUnit":"m.s-1","parameterCategory":1,"la1":30.6,"la2":29.2853,"lo1":-89.7004,"lo2":-87.6739,"dy":0.0162,"dx":0.0183,"nx":112,"ny":82,"refTime":"2024-04-09T06:00:00:Z","depth":0,"parameterNumber":2,"parameterNumberName":"U-component_of_WINDS"},"data":[0.0,0.0,0.0,0.0,0.0,0.0,0.0,0.0,0.0,0.0,0.0,0.0,0.0,0.0,0.0,0.0,0.0,0.0,0.0,0.0,0.0,0.0,0.0,0.0,0.0,0.0,0.0,0.0,0.0,0.0,0.0,0.0,0.0,0.0,0.0,0.0,0.0,0.0,0.0,0.0,0.0,0.0,0.0,0.0,0.0,0.0,0.0,0.0,0.0,0.0,0.0,0.0,0.0,0.0,0.0,0.0,0.0,0.0,0.0,0.0,0.0,0.0,0.0,0.0,0.0,0.0,0.0,0.0,0.0,0.0,0.0,0.0,0.0,0.0,0.0,0.0,0.0,0.0,0.0,0.0,0.0,0.0,0.0,0.0,0.0,0.0,0.0,0.0,0.0,0.0,-3.5316,-3.5486,-3.55,-3.55,-3.55,-3.55,-3.55,-3.55,0.0,0.0,0.0,0.0,0.0,0.0,0.0,0.0,0.0,0.0,0.0,0.0,0.0,0.0,0.0,0.0,0.0,0.0,0.0,0.0,0.0,0.0,0.0,0.0,0.0,0.0,0.0,0.0,0.0,0.0,0.0,0.0,0.0,0.0,0.0,0.0,0.0,0.0,0.0,0.0,0.0,0.0,0.0,0.0,0.0,0.0,0.0,0.0,0.0,0.0,0.0,0.0,0.0,0.0,0.0,0.0,0.0,0.0,0.0,0.0,0.0,0.0,0.0,0.0,0.0,0.0,0.0,0.0,0.0,0.0,0.0,0.0,0.0,0.0,0.0,0.0,0.0,0.0,0.0,0.0,0.0,0.0,0.0,0.0,0.0,0.0,0.0,0.0,0.0,0.0,0.0,0.0,0.0,0.0,0.0,0.0,0.0,0.0,0.0,0.0,0.0,0.0,0.0,0.0,-3.5472,-3.55,-3.55,-3.55,-3.55,-3.55,-3.55,-3.55,0.0,0.0,0.0,0.0,0.0,0.0,0.0,0.0,0.0,0.0,0.0,0.0,0.0,0.0,0.0,0.0,0.0,0.0,0.0,0.0,0.0,0.0,0.0,0.0,0.0,0.0,0.0,0.0,0.0,0.0,0.0,0.0,0.0,0.0,0.0,0.0,0.0,0.0,0.0,0.0,0.0,0.0,0.0,0.0,0.0,0.0,0.0,0.0,0.0,0.0,0.0,0.0,0.0,0.0,0.0,0.0,0.0,0.0,0.0,0.0,0.0,0.0,0.0,0.0,0.0,0.0,0.0,0.0,0.0,0.0,0.0,0.0,0.0,0.0,0.0,0.0,0.0,0.0,0.0,0.0,0.0,0.0,0.0,0.0,0.0,0.0,0.0,0.0,0.0,0.0,0.0,0.0,0.0,0.0,0.0,0.0,0.0,0.0,0.0,0.0,0.0,0.0,0.0,-3.5346,-3.5369,-3.5493,-3.55,-3.55,-3.55,-3.55,-3.55,-3.55,-3.5467,0.0,0.0,0.0,0.0,0.0,0.0,0.0,0.0,0.0,0.0,0.0,0.0,0.0,0.0,0.0,0.0,0.0,0.0,0.0,0.0,0.0,0.0,0.0,0.0,0.0,0.0,0.0,0.0,0.0,0.0,0.0,0.0,0.0,0.0,0.0,0.0,0.0,0.0,0.0,0.0,0.0,0.0,0.0,0.0,0.0,0.0,0.0,0.0,0.0,0.0,0.0,0.0,0.0,0.0,0.0,0.0,0.0,0.0,0.0,0.0,0.0,0.0,0.0,0.0,0.0,0.0,0.0,0.0,0.0,0.0,0.0,0.0,0.0,0.0,0.0,0.0,0.0,0.0,0.0,0.0,0.0,0.0,0.0,0.0,0.0,0.0,0.0,0.0,0.0,0.0,0.0,0.0,0.0,0.0,0.0,0.0,0.0,0.0,0.0,0.0,0.0,0.0,-3.5361,-3.5331,-3.5486,-3.55,-3.55,-3.55,-3.55,-3.55,-3.55,-3.5493,0.0,0.0,0.0,0.0,0.0,0.0,0.0,0.0,0.0,0.0,0.0,0.0,0.0,0.0,0.0,0.0,0.0,0.0,0.0,0.0,0.0,0.0,0.0,0.0,0.0,0.0,0.0,0.0,0.0,0.0,0.0,0.0,0.0,0.0,0.0,0.0,0.0,0.0,0.0,0.0,0.0,0.0,0.0,0.0,0.0,0.0,0.0,0.0,0.0,0.0,0.0,0.0,0.0,0.0,0.0,0.0,0.0,0.0,0.0,0.0,0.0,0.0,0.0,0.0,0.0,0.0,0.0,0.0,0.0,0.0,0.0,0.0,0.0,0.0,0.0,0.0,0.0,0.0,0.0,0.0,0.0,0.0,0.0,0.0,0.0,0.0,0.0,0.0,0.0,0.0,0.0,0.0,0.0,0.0,0.0,0.0,0.0,0.0,0.0,0.0,0.0,0.0,-3.5493,-3.5486,-3.55,-3.55,-3.55,-3.55,-3.55,-3.55,-3.55,-3.5446,0.0,0.0,0.0,0.0,0.0,0.0,0.0,0.0,0.0,0.0,0.0,0.0,0.0,0.0,0.0,0.0,0.0,0.0,0.0,0.0,0.0,0.0,0.0,0.0,0.0,0.0,0.0,0.0,0.0,0.0,0.0,0.0,0.0,0.0,0.0,0.0,0.0,0.0,0.0,0.0,0.0,0.0,0.0,0.0,0.0,0.0,0.0,0.0,0.0,0.0,0.0,0.0,0.0,0.0,0.0,0.0,0.0,0.0,0.0,0.0,0.0,0.0,0.0,0.0,0.0,0.0,0.0,0.0,0.0,0.0,0.0,0.0,0.0,0.0,0.0,0.0,0.0,0.0,0.0,0.0,0.0,0.0,0.0,0.0,0.0,0.0,0.0,0.0,0.0,0.0,0.0,0.0,0.0,0.0,0.0,0.0,0.0,0.0,0.0,0.0,0.0,0.0,-3.5403,-3.5354,0.0,-3.55,-3.55,-3.55,-3.55,-3.55,-3.55,0.0,0.0,0.0,0.0,0.0,0.0,0.0,0.0,0.0,0.0,0.0,0.0,0.0,0.0,0.0,0.0,0.0,0.0,0.0,0.0,0.0,0.0,0.0,0.0,0.0,0.0,0.0,0.0,0.0,0.0,0.0,0.0,0.0,0.0,0.0,0.0,0.0,0.0,0.0,0.0,0.0,0.0,0.0,0.0,0.0,0.0,0.0,0.0,0.0,0.0,0.0,0.0,0.0,0.0,0.0,0.0,0.0,0.0,0.0,0.0,0.0,0.0,0.0,0.0,0.0,0.0,0.0,0.0,0.0,0.0,0.0,0.0,0.0,0.0,0.0,0.0,0.0,0.0,0.0,0.0,0.0,0.0,0.0,0.0,0.0,0.0,0.0,0.0,0.0,0.0,0.0,0.0,0.0,0.0,0.0,0.0,0.0,0.0,0.0,0.0,0.0,0.0,-3.5486,-3.5369,-3.5346,0.0,-3.55,-3.55,-3.55,-3.55,-3.55,-3.55,0.0,0.0,0.0,0.0,0.0,0.0,0.0,0.0,0.0,0.0,0.0,0.0,0.0,0.0,0.0,0.0,0.0,0.0,0.0,0.0,0.0,0.0,0.0,0.0,0.0,0.0,0.0,0.0,0.0,0.0,0.0,0.0,0.0,0.0,0.0,0.0,0.0,0.0,0.0,0.0,0.0,0.0,0.0,0.0,0.0,0.0,0.0,0.0,0.0,0.0,0.0,0.0,0.0,0.0,0.0,0.0,0.0,0.0,0.0,0.0,0.0,0.0,0.0,0.0,0.0,0.0,0.0,0.0,0.0,0.0,0.0,0.0,0.0,0.0,0.0,0.0,0.0,0.0,0.0,0.0,0.0,0.0,0.0,0.0,0.0,0.0,0.0,0.0,0.0,0.0,0.0,0.0,0.0,0.0,0.0,0.0,0.0,0.0,0.0,0.0,0.0,0.0,-3.55,-3.55,-3.55,-3.55,-3.55,-3.55,-3.55,-3.55,-3.55,0.0,0.0,0.0,0.0,0.0,0.0,0.0,0.0,0.0,0.0,0.0,0.0,0.0,0.0,0.0,0.0,0.0,0.0,0.0,0.0,0.0,0.0,0.0,0.0,0.0,0.0,0.0,0.0,0.0,0.0,0.0,0.0,0.0,0.0,0.0,0.0,0.0,0.0,0.0,0.0,0.0,0.0,0.0,0.0,0.0,0.0,0.0,0.0,0.0,0.0,0.0,0.0,0.0,0.0,0.0,0.0,0.0,0.0,0.0,0.0,0.0,0.0,0.0,0.0,0.0,0.0,0.0,0.0,0.0,0.0,0.0,0.0,0.0,0.0,0.0,0.0,0.0,0.0,0.0,0.0,0.0,0.0,0.0,0.0,0.0,0.0,0.0,0.0,0.0,0.0,0.0,0.0,0.0,0.0,0.0,0.0,0.0,0.0,0.0,0.0,0.0,0.0,0.0,-3.55,-3.55,-3.55,-3.55,-3.55,-3.55,-3.55,-3.55,-3.55,-3.55,0.0,0.0,0.0,0.0,0.0,0.0,0.0,0.0,0.0,0.0,0.0,0.0,0.0,0.0,0.0,0.0,0.0,0.0,0.0,0.0,0.0,0.0,0.0,0.0,0.0,0.0,0.0,0.0,0.0,0.0,0.0,0.0,0.0,0.0,0.0,0.0,0.0,0.0,0.0,0.0,0.0,0.0,0.0,0.0,0.0,0.0,0.0,0.0,0.0,0.0,0.0,0.0,0.0,0.0,0.0,0.0,0.0,0.0,0.0,0.0,0.0,0.0,0.0,0.0,0.0,0.0,0.0,0.0,0.0,0.0,0.0,0.0,0.0,0.0,0.0,0.0,0.0,0.0,0.0,0.0,0.0,0.0,0.0,0.0,0.0,0.0,0.0,0.0,0.0,0.0,0.0,0.0,0.0,0.0,0.0,0.0,0.0,0.0,0.0,0.0,0.0,0.0,-3.55,-3.55,-3.55,-3.55,-3.55,-3.55,-3.55,-3.55,-3.55,-3.55,0.0,0.0,0.0,0.0,0.0,0.0,0.0,0.0,0.0,0.0,0.0,0.0,0.0,0.0,0.0,0.0,0.0,0.0,0.0,0.0,0.0,0.0,0.0,0.0,0.0,0.0,0.0,0.0,0.0,0.0,0.0,0.0,0.0,0.0,0.0,0.0,0.0,0.0,0.0,0.0,0.0,0.0,0.0,0.0,0.0,0.0,0.0,0.0,0.0,0.0,0.0,0.0,0.0,0.0,0.0,0.0,0.0,0.0,0.0,0.0,0.0,0.0,0.0,0.0,0.0,0.0,0.0,0.0,0.0,0.0,0.0,0.0,0.0,0.0,0.0,0.0,0.0,0.0,0.0,0.0,0.0,0.0,0.0,0.0,0.0,0.0,0.0,0.0,0.0,0.0,0.0,0.0,0.0,0.0,0.0,0.0,0.0,0.0,0.0,0.0,0.0,0.0,-3.55,-3.55,-3.55,-3.55,-3.55,-3.55,-3.55,-3.55,-3.55,-3.55,0.0,0.0,0.0,0.0,0.0,0.0,0.0,0.0,0.0,0.0,0.0,0.0,0.0,0.0,0.0,0.0,0.0,0.0,0.0,0.0,0.0,0.0,0.0,0.0,0.0,0.0,0.0,0.0,0.0,0.0,0.0,0.0,0.0,0.0,0.0,0.0,0.0,0.0,0.0,0.0,0.0,0.0,0.0,0.0,0.0,0.0,0.0,0.0,0.0,0.0,0.0,0.0,0.0,0.0,0.0,0.0,0.0,0.0,0.0,0.0,-3.6601,0.0,0.0,0.0,0.0,0.0,0.0,0.0,0.0,0.0,0.0,0.0,0.0,0.0,0.0,0.0,0.0,0.0,0.0,0.0,0.0,0.0,0.0,0.0,0.0,0.0,0.0,0.0,0.0,0.0,0.0,0.0,0.0,0.0,0.0,0.0,0.0,0.0,0.0,0.0,0.0,0.0,-3.55,-3.55,-3.55,-3.55,-3.55,-3.55,-3.55,-3.55,-3.55,-3.55,-3.55,0.0,0.0,0.0,0.0,0.0,0.0,0.0,0.0,0.0,0.0,0.0,0.0,0.0,0.0,0.0,0.0,0.0,0.0,0.0,0.0,0.0,0.0,0.0,0.0,0.0,0.0,0.0,0.0,0.0,0.0,0.0,0.0,0.0,0.0,0.0,0.0,0.0,0.0,0.0,0.0,0.0,0.0,0.0,0.0,0.0,0.0,0.0,0.0,0.0,0.0,0.0,0.0,0.0,0.0,0.0,0.0,0.0,0.0,0.0,0.0,-3.7245,0.0,0.0,0.0,0.0,0.0,0.0,0.0,0.0,0.0,0.0,0.0,0.0,0.0,0.0,0.0,0.0,0.0,0.0,0.0,0.0,0.0,0.0,0.0,0.0,0.0,0.0,0.0,0.0,0.0,0.0,0.0,0.0,0.0,0.0,0.0,0.0,0.0,0.0,0.0,0.0,-3.55,-3.55,-3.55,-3.55,-3.55,-3.55,-3.55,-3.55,-3.55,-3.55,-3.55,0.0,0.0,0.0,0.0,0.0,0.0,0.0,0.0,0.0,0.0,0.0,0.0,0.0,0.0,0.0,0.0,0.0,0.0,0.0,0.0,0.0,0.0,0.0,0.0,0.0,0.0,0.0,0.0,0.0,0.0,0.0,0.0,0.0,0.0,0.0,0.0,0.0,0.0,0.0,0.0,0.0,0.0,0.0,0.0,0.0,0.0,0.0,0.0,0.0,0.0,0.0,0.0,0.0,0.0,-3.9484,-3.9484,-3.9484,-3.9484,-3.9484,-3.9487,-3.9157,-3.8533,0.0,0.0,0.0,0.0,0.0,0.0,0.0,0.0,0.0,0.0,0.0,0.0,0.0,0.0,0.0,0.0,0.0,0.0,0.0,0.0,0.0,0.0,0.0,0.0,0.0,-3.6058,-3.6039,0.0,0.0,0.0,0.0,0.0,0.0,0.0,0.0,0.0,0.0,0.0,0.0,-3.5942,-3.5942,-3.5942,-3.5942,-3.5942,-3.5865,-3.5712,-3.5712,-3.5654,-3.5519,-3.55,-3.55,0.0,0.0,0.0,0.0,0.0,0.0,0.0,0.0,0.0,0.0,0.0,0.0,0.0,0.0,0.0,0.0,0.0,0.0,0.0,0.0,0.0,0.0,0.0,0.0,0.0,0.0,0.0,0.0,0.0,0.0,0.0,0.0,-3.8046,-3.811,0.0,0.0,0.0,0.0,0.0,0.0,0.0,0.0,0.0,0.0,0.0,0.0,0.0,0.0,-4.1813,-4.2618,-4.3024,-4.3024,-4.3024,-4.3024,-4.3024,-4.3024,-4.3024,-4.3025,-4.3031,0.0,-3.8592,-3.8476,0.0,0.0,0.0,0.0,0.0,0.0,0.0,0.0,0.0,0.0,0.0,0.0,0.0,0.0,0.0,0.0,0.0,0.0,0.0,0.0,0.0,0.0,-3.7858,-3.7858,-3.7858,-3.7846,0.0,-3.716,-3.6632,-3.6625,0.0,0.0,0.0,0.0,0.0,0.0,0.0,0.0,-3.7661,-3.7661,-3.7661,-3.7661,-3.7661,-3.7353,-3.6615,-3.6538,-3.6231,-3.5538,-3.55,-3.55,-3.55,-3.5493,0.0,0.0,0.0,0.0,0.0,0.0,0.0,0.0,0.0,0.0,0.0,0.0,0.0,0.0,0.0,0.0,0.0,0.0,0.0,0.0,0.0,0.0,0.0,0.0,0.0,0.0,0.0,0.0,0.0,-3.9419,-3.9422,-3.946,-3.9448,-3.9469,0.0,0.0,0.0,0.0,0.0,0.0,0.0,0.0,0.0,-4.2431,-4.2866,-4.3092,-4.3092,-4.3989,-4.4426,-4.4445,-4.4933,-4.5151,-4.5137,-4.4648,-4.4436,-4.4402,-4.3918,-4.2847,-4.1424,-4.0937,-4.0742,-4.0684,0.0,0.0,0.0,0.0,0.0,-3.9258,-3.8769,0.0,0.0,0.0,0.0,0.0,0.0,0.0,0.0,0.0,0.0,0.0,0.0,0.0,0.0,-3.8193,-3.8193,-3.8187,-3.8163,-3.8209,-3.8112,0.0,-3.7826,-3.807,-3.807,0.0,0.0,0.0,0.0,0.0,-3.8007,-3.8007,-3.8007,-3.8007,-3.8007,-3.7853,-3.7469,-3.6981,-3.6538,-3.6192,-3.575,-3.55,-3.55,-3.546,-3.5369,0.0,0.0,0.0,0.0,0.0,0.0,0.0,0.0,0.0,0.0,0.0,0.0,0.0,0.0,0.0,0.0,0.0,0.0,0.0,0.0,0.0,0.0,0.0,0.0,0.0,0.0,0.0,0.0,-4.0496,-4.0496,-4.0496,-4.0496,-4.0593,0.0,0.0,0.0,0.0,0.0,0.0,-4.249,-4.3272,-4.3763,-4.3902,-4.4345,-4.4612,-4.4647,-4.5533,-4.5968,-4.5987,-4.6632,-4.6947,-4.6915,-4.6291,-4.6002,-4.5969,-4.5309,-4.49,-4.4608,-4.328,-4.2734,-4.2676,-4.207,-4.1836,-4.1758,-4.1113,-4.0879,-4.0781,-4.0137,-3.9902,-3.9902,-3.9902,0.0,-3.9801,-3.9801,0.0,0.0,0.0,0.0,-3.9628,-3.9592,0.0,-3.9555,-3.9552,-3.9531,-3.9522,-3.9536,-3.9972,-3.9992,0.0,-3.8593,-3.874,-3.8753,0.0,0.0,0.0,0.0,-3.8642,-3.8642,-3.8642,-3.8642,-3.8642,-3.8642,-3.8565,-3.8354,-3.7738,-3.718,-3.6731,-3.6135,-3.5712,-3.5519,-3.5453,-3.5383,-3.5273,0.0,0.0,0.0,0.0,0.0,0.0,0.0,0.0,0.0,0.0,0.0,0.0,0.0,0.0,0.0,0.0,0.0,0.0,0.0,0.0,0.0,0.0,0.0,0.0,0.0,0.0,0.0,0.0,0.0,-4.0496,-4.0496,0.0,0.0,0.0,0.0,-4.292,-4.3025,-4.3044,-4.3068,-4.3819,-4.4311,-4.4466,-4.6125,-4.7081,-4.7207,-4.8135,-4.8603,-4.8603,-4.8642,-4.8662,-4.8663,-4.869,-4.8694,-4.8694,-4.8663,-4.8179,-4.7206,-4.4687,-4.3633,-4.3633,-4.3594,-4.3574,-4.3574,-4.3535,-4.3516,-4.3496,-4.3457,-4.3437,-4.3437,-4.3437,-4.3394,-4.3338,-4.3338,-4.3309,0.0,0.0,-4.3283,-4.3253,-4.3301,-4.3278,-4.3234,-4.3234,-4.3171,-4.3136,-4.3135,-4.3072,-4.2291,0.0,-3.9952,-4.0465,-4.048,0.0,-4.0438,-4.0389,-4.0362,-4.0362,-4.0362,-4.0362,-4.0362,-4.0362,-4.0362,-4.0054,-3.9304,-3.9188,-3.845,-3.6788,-3.6654,-3.6308,-3.5538,-3.55,-3.5493,-3.5486,-3.5223,0.0,0.0,0.0,0.0,0.0,0.0,0.0,0.0,0.0,0.0,0.0,0.0,0.0,0.0,0.0,0.0,0.0,0.0,0.0,0.0,0.0,0.0,0.0,0.0,0.0,0.0,0.0,0.0,-4.2104,-4.2162,0.0,-4.2604,-4.3104,-4.3547,-4.3855,-4.4913,-4.556,-4.5607,-4.6407,-4.6946,-4.7074,-4.7772,-4.8191,-4.8241,-4.9164,-4.9636,-4.9636,-5.0204,-5.0461,-5.0448,-4.9923,-4.9695,-4.9702,-4.9137,-4.8729,-4.8359,-4.7422,-4.6387,-4.5371,-4.5371,-4.5371,-4.5312,-4.4746,-4.4531,-4.4453,-4.3887,-4.3691,-4.3691,-4.3691,-4.3671,-4.3669,-4.3669,-4.3646,-4.3619,-4.3612,-4.3581,-4.3567,-4.3534,-4.3515,-4.3497,-4.3497,-4.3477,-4.3456,-4.3467,-4.3389,-4.3053,-4.2142,-4.215,-4.227,-4.2276,-4.2266,-4.2256,-4.2179,-4.2167,-4.197,-4.1412,-4.1335,-4.1123,-4.0554,-4.0496,-4.0381,-4.0092,-3.9611,-3.9034,-3.8411,-3.7315,-3.6577,-3.6269,-3.5788,-3.55,-3.55,-3.5417,-3.5207,0.0,0.0,0.0,0.0,0.0,0.0,0.0,0.0,0.0,0.0,0.0,0.0,0.0,0.0,0.0,0.0,0.0,0.0,0.0,0.0,0.0,0.0,0.0,0.0,0.0,0.0,-4.2522,-4.3393,-4.3508,-4.3739,-4.4316,-4.4855,-4.5297,-4.5566,-4.6644,-4.7323,-4.7364,-4.8202,-4.8736,-4.8865,-4.9246,-4.9479,-4.9543,-5.0157,-5.0499,-5.0553,-5.1121,-5.1398,-5.1385,-5.0803,-5.0554,-5.0561,-4.9997,-4.9589,-4.9336,-4.9336,-4.8476,-4.7148,-4.6855,-4.6562,-4.623,-4.5644,-4.5449,-4.5351,-4.4785,-4.457,-4.457,-4.457,-4.457,-4.457,-4.457,-4.457,-4.457,-4.4525,-4.4502,-4.4499,-4.4458,-4.443,-4.443,-4.443,-4.4438,-4.4404,-4.4404,-4.437,-4.4296,-4.4283,-4.3716,-4.3232,-4.3199,-4.3197,-4.318,-4.31,-4.3107,-4.289,-4.2316,-4.2239,-4.1893,-4.1027,-4.0931,-4.0823,-4.0535,-4.0015,-3.9592,-3.9323,-3.8219,-3.7315,-3.6712,-3.6192,-3.5788,-3.5519,-3.55,-3.5273,-3.4793,0.0,0.0,0.0,0.0,0.0,0.0,0.0,0.0,0.0,0.0,0.0,0.0,0.0,0.0,0.0,0.0,0.0,0.0,0.0,0.0,0.0,0.0,0.0,-4.3038,-4.3066,-4.34,-4.4269,-4.4393,-4.5086,-4.6769,-4.6962,-4.7298,-4.8086,-4.8163,-4.8182,-4.8182,-4.8971,-4.9505,-4.9629,-5.0469,-5.0998,-5.1195,-5.1199,-5.1262,-5.1394,-5.1394,-5.1394,-5.1394,-5.1405,-5.1409,-5.139,-5.1402,-5.0955,-5.0233,-5.0234,-4.9726,-4.8848,-4.7988,-4.7109,-4.6348,-4.6348,-4.6328,-4.6308,-4.6308,-4.6308,-4.6308,-4.6308,-4.6308,-4.6308,-4.6308,-4.6308,-4.6308,-4.6308,-4.6308,-4.6308,-4.6308,-4.6308,-4.6308,-4.6308,-4.6243,-4.6204,-4.6204,-4.615,-4.608,-4.6027,-4.4587,-4.3356,-4.3283,-4.3276,-4.3248,-4.3185,-4.3169,0.0,-4.3132,-4.3143,-4.2797,-4.1923,-4.1846,-4.1489,-4.0612,-4.0535,-4.0208,-3.94,-3.9304,-3.8546,-3.6846,-3.6731,-3.6327,-3.5519,-3.5493,-3.5266,-3.4803,0.0,0.0,0.0,0.0,0.0,0.0,0.0,0.0,0.0,0.0,0.0,0.0,0.0,0.0,0.0,0.0,0.0,0.0,0.0,0.0,0.0,-4.5107,-4.511,-4.402,-4.442,-4.5139,-4.6012,-4.6674,-4.724,-4.7721,-4.8336,-4.8798,-4.9029,-4.9625,-4.999,-4.999,-5.0212,-5.0365,-5.0402,-5.0715,-5.0951,-5.1053,-5.115,-5.1262,-5.1394,-5.1394,-5.1394,-5.1394,-5.1398,-5.1403,-5.1409,-5.1394,-5.1261,-5.1069,-5.1072,-5.0585,-4.9765,-4.8887,-4.8008,-4.7246,-4.7246,-4.6836,-4.6308,-4.6308,-4.6308,-4.6308,-4.6308,-4.6308,-4.6308,-4.6308,-4.6308,-4.6308,-4.6308,-4.6308,-4.6308,-4.6308,-4.6308,-4.6308,-4.6308,-4.6289,-4.6267,-4.6267,-4.6213,-4.615,-4.6084,-4.5624,-4.5225,-4.5117,-4.5095,-4.5085,-4.5063,0.0,0.0,-4.4116,-4.3995,-4.3643,-4.2835,-4.2739,-4.2393,-4.1527,-4.145,-4.1085,-4.0227,-3.9631,-3.9092,-3.8604,-3.7373,-3.6327,-3.5519,-3.5354,-3.5209,0.0,0.0,0.0,0.0,0.0,0.0,0.0,0.0,0.0,0.0,0.0,0.0,0.0,0.0,0.0,0.0,0.0,0.0,0.0,0.0,0.0,0.0,-4.6194,-4.6311,-4.5781,-4.6157,-4.6848,-4.7751,-4.8299,-4.875,-4.9144,-4.9644,-4.9933,-4.9933,-5.0423,-5.0712,-5.0712,-5.0712,-5.0837,-5.1183,-5.1277,-5.1531,-5.1999,-5.2078,-5.2217,-5.2414,-5.2414,-5.2428,-5.2487,-5.2487,-5.2296,0.0,-5.1934,-5.1743,-5.1395,-5.1401,-5.1111,0.0,0.0,0.0,0.0,0.0,-4.7812,-4.7383,-4.7383,-4.7383,-4.7383,-4.7383,-4.7148,-4.6836,-4.6836,-4.6582,-4.6308,-4.6308,-4.6308,-4.6308,-4.6308,-4.6308,-4.6308,-4.6308,-4.6308,-4.6308,-4.6308,-4.6267,-4.6213,-4.6153,0.0,0.0,-4.5904,-4.5847,-4.5803,-4.5807,-4.577,-4.5557,0.0,-4.4914,-4.4562,-4.3734,-4.3621,-4.3258,-4.2431,-4.2,0.0,0.0,0.0,-3.965,-3.9304,-3.7988,0.0,0.0,0.0,-3.5591,0.0,0.0,0.0,0.0,-3.3796,-3.3384,0.0,0.0,0.0,0.0,0.0,0.0,0.0,0.0,0.0,0.0,0.0,0.0,0.0,0.0,0.0,0.0,-4.6672,-4.7054,-4.7826,-4.8081,-4.8443,-4.9199,-4.9373,-4.9768,-5.0615,-5.0702,-5.0712,-5.0712,-5.0789,-5.0846,-5.0846,0.0,0.0,0.0,0.0,-5.2483,-5.3384,-5.3404,-5.3526,-5.3777,-5.3777,-5.3841,-5.3982,-5.3982,-5.3557,-5.2841,-5.2848,-5.2402,-5.1681,-5.1688,-5.1635,-5.1463,-5.0547,-4.9726,-4.9023,-4.8945,-4.8906,0.0,0.0,0.0,0.0,-4.8906,-4.8379,-4.7754,-4.7754,-4.7207,-4.6582,-4.6582,-4.6582,-4.6582,-4.6582,-4.6582,-4.6562,-4.6465,-4.6445,-4.6426,-4.6328,-4.6308,-4.6288,-4.6209,-4.6202,-4.6155,-4.6032,-4.5904,-4.5814,-4.5803,-4.5807,0.0,-4.5715,-4.5695,-4.5393,-4.4641,0.0,0.0,-4.3316,-4.2527,-4.2,-4.1808,-4.0969,-4.015,-3.9342,-3.8565,-3.7738,-3.6865,-3.6846,-3.6415,-3.552,-3.5485,-3.5356,-3.5116,-3.4337,-3.3959,0.0,0.0,0.0,0.0,0.0,0.0,0.0,0.0,0.0,0.0,0.0,0.0,0.0,0.0,0.0,-4.6481,-4.7685,-4.8659,-4.8812,-4.9415,-4.9648,-4.919,-4.985,-5.0411,-5.0594,-5.0663,-5.0712,-5.0712,-5.1298,-5.1673,-5.1673,-5.2337,0.0,-5.2953,-5.2953,-5.309,-5.3404,-5.3404,-5.3487,-5.3635,0.0,0.0,-5.3837,-5.3837,-5.381,-5.3756,-5.3758,-5.3641,-5.3506,-5.3496,-5.3077,-5.2303,-5.0781,-5.0098,-4.9863,-4.916,-4.8906,-4.8906,-4.8906,-4.8906,-4.8906,-4.8906,-4.8789,-4.8652,-4.8652,-4.8535,0.0,-4.8398,-4.8398,-4.8398,-4.8398,-4.8398,-4.8223,-4.7519,-4.7344,-4.7168,-4.6445,-4.6308,-4.6288,-4.6209,-4.6202,-4.6167,-4.6095,-4.6003,-4.591,-4.5814,-4.581,-4.5807,-4.5773,-4.5743,-4.5645,-4.547,-4.5442,-4.5051,-4.4152,-4.3912,-4.3239,-4.1885,-4.0969,-4.015,-3.9342,-3.915,-3.8642,-3.7777,-3.7757,-3.7647,-3.7463,-3.7299,-3.7196,-3.7086,-3.5251,-3.4298,0.0,0.0,0.0,0.0,0.0,0.0,0.0,0.0,0.0,0.0,0.0,-4.5411,-4.5831,0.0,-4.6787,-4.7665,-4.8525,-4.9232,-4.9633,-5.0054,-5.0153,-4.9789,-5.0221,-5.0553,-5.0593,-5.1019,-5.1298,-5.1298,-5.2087,-5.2538,-5.2538,-5.2972,-5.3395,-5.3837,-5.3857,-5.4081,-5.4545,-5.4545,-5.4617,-5.475,-5.475,-5.4815,-5.4946,-5.5019,-5.487,-5.4554,-5.4623,-5.44,-5.399,-5.4002,-5.3736,-5.3273,-5.2439,-5.1562,-5.0742,-5.0312,-5.0156,-5.0156,-5.0156,-5.0156,-5.0156,-5.0156,-4.9883,-4.9551,-4.9551,-4.9258,-4.8906,-4.8906,-4.8906,-4.8906,-4.8906,-4.8906,-4.8789,-4.8359,-4.8242,-4.8125,-4.7695,-4.7266,-4.6933,-4.6908,-4.6555,-4.6235,-4.6158,-4.6125,-4.606,-4.5922,-4.5893,-4.588,-4.5805,-4.5761,-4.575,-4.5746,-4.5726,-4.5519,-4.5032,-4.4564,-4.3585,-4.1904,-4.1393,-4.0777,-3.9938,-3.99,-3.9515,-3.8661,-3.8642,-3.843,-3.8007,-3.7894,-3.7854,-3.7816,-3.6644,-3.5889,0.0,0.0,0.0,0.0,0.0,0.0,0.0,-4.4965,-4.5224,-4.5297,-4.5411,-4.5736,-4.6385,-4.6787,-4.7455,-4.8869,-4.9243,-4.9557,-5.0206,-5.0302,-5.0371,-5.0608,-5.0552,-5.0598,-5.0813,-5.1489,-5.1962,-5.2135,-5.2972,-5.3453,-5.3453,-5.3606,-5.401,-5.4703,-5.4722,-5.503,-5.5684,-5.5703,-5.5758,-5.5854,-5.5854,-5.5938,-5.6057,-5.6169,-5.5901,-5.5338,-5.5491,-5.5142,-5.4517,-5.4507,-5.4413,-5.4241,-5.425,-5.3299,-5.1875,-5.1719,-5.1641,-5.1621,-5.1465,-5.1406,-5.1406,-5.1406,-5.0957,-5.043,-5.043,-4.9941,-4.9394,-4.9394,-4.9394,-4.9394,-4.9394,-4.9394,-4.9355,-4.9199,-4.9141,-4.9101,-4.8945,-4.8359,-4.7851,-4.7851,-4.7148,-4.6542,-4.6471,-4.633,-4.6167,-4.6041,-4.6012,-4.5964,-4.5841,-4.5819,-4.5795,-4.5807,-4.5746,-4.5717,-4.5701,-4.485,-4.372,-4.2374,-4.2143,-4.1662,-4.0785,-4.0746,-4.0381,-3.9554,-3.9534,-3.9188,-3.8488,-3.8488,-3.8488,-3.8488,-3.8274,-3.7717,-4.354,-4.3893,-4.4416,-4.4707,-4.49,-4.5038,0.0,0.0,-4.5297,-4.5297,-4.587,-4.6385,-4.6481,-4.7761,-4.8869,-4.9071,-4.9691,-5.0206,-5.0283,-5.0302,-5.0588,-5.1372,-5.0894,-5.0818,-5.1595,-5.1814,-5.2212,-5.301,-5.3857,-5.4357,-5.4357,-5.503,-5.5472,-5.5549,-5.5568,-5.5607,-5.5703,-5.5703,-5.5724,-5.5726,-5.5726,-5.5798,-5.5921,-5.5938,-5.6032,-5.618,-5.6369,-5.6391,-5.6313,-5.6313,-5.5851,-5.5155,-5.5158,-5.4557,-5.3626,-5.2831,-5.2558,-5.2441,-5.168,-5.1406,-5.1406,-5.1406,-5.1348,-5.1269,-5.1269,-5.1191,-5.1113,-5.1113,-5.1113,-5.1113,-5.1113,-5.1113,-5.0937,-5.0215,-5.0058,-4.9844,-4.9062,-4.8828,-4.875,-4.875,-4.8047,-4.7441,-4.7441,-4.6796,-4.6241,-4.6109,-4.6041,-4.5997,-4.598,-4.5861,-4.5805,-4.5788,-4.58,-4.5762,-4.5709,-4.485,-4.422,-4.4028,-4.3355,-4.2566,-4.17,-4.1662,-4.1258,-4.0381,-4.0362,-4.0323,-4.0227,-4.0227,-4.0227,-4.0219,-4.0008,-3.8937,-4.4076,-4.4252,-4.4552,-4.4912,-4.5068,-4.5114,-4.5148,-4.5203,-4.5398,-4.5878,-4.6271,-4.6806,-4.7837,-4.8602,-4.9263,0.0,-5.0073,-5.0302,-5.0302,-5.0302,-5.0627,-5.1493,-5.1358,-5.1541,-5.2417,-5.3031,-5.3526,-5.3933,-5.4722,-5.5203,-5.5203,-5.5511,-5.5703,-5.5703,-5.5703,-5.5703,-5.5703,-5.5703,-5.5703,-5.5703,-5.5703,-5.5737,-5.5789,-5.5863,-5.6056,-5.6292,-5.6386,-5.6497,-5.6606,-5.6606,-5.6393,-5.6066,-5.6052,-5.5822,-5.5358,-5.3959,-5.3454,-5.3395,-5.3046,-5.2577,-5.2167,-5.2168,-5.1816,-5.1406,-5.1406,-5.1406,-5.1406,-5.1406,-5.1406,-5.1406,-5.1406,-5.1406,-5.1328,-5.0976,-5.0898,-5.0801,-5.043,-4.998,-4.9668,-4.9668,-4.8945,-4.8203,-4.7695,-4.7305,-4.6874,-4.6293,-4.6155,-4.6087,-4.6017,-4.5958,-4.5886,-4.5803,-4.5807,-4.5777,-4.5709,-4.5338,-4.4889,-4.4335,-4.397,-4.3412,-4.2585,-4.2566,-4.2393,-4.2008,-4.2008,-4.1758,-4.1258,-4.1258,-4.0989,-4.0516,-4.0935,-4.0604,-4.4313,-4.4411,-4.4578,-4.496,-4.5091,-4.5125,-4.5181,-4.5213,-4.5483,-4.6317,-4.6691,-4.7322,-4.8812,-4.927,-4.9614,-5.0206,-5.0302,-5.0302,-5.0302,-5.0512,-5.099,-5.183,-5.2191,-5.269,-5.3572,-5.4089,-5.4501,-5.4767,-5.5335,-5.5692,-5.5703,-5.5703,-5.5703,-5.5703,-5.5703,-5.5703,-5.5703,-5.5703,-5.5703,-5.5703,-5.5703,-5.5703,-5.5695,-5.5845,-5.6013,-5.6186,-5.6237,-5.6344,-5.6525,-5.6525,-5.6553,-5.6606,-5.6595,-5.6596,-5.6442,-5.5178,-5.4558,-5.4328,-5.4077,-5.359,-5.3063,-5.3065,-5.246,-5.1758,-5.1758,-5.1582,-5.1406,-5.1406,-5.1406,-5.1406,-5.1406,-5.1406,-5.1406,-5.1406,-5.1406,-5.1406,-5.1406,-5.0937,-5.0527,-5.0527,-4.9844,-4.9062,-4.8437,-4.8125,-4.7656,-4.6797,-4.6616,-4.6468,-4.6103,-4.6041,-4.5977,-4.5867,-4.5826,-4.5776,-4.5706,-4.5673,-4.5379,-4.471,-4.4662,-4.4297,-4.347,-4.3431,-4.3335,-4.3104,-4.3104,-4.2797,-4.2162,-4.2162,-4.1835,-4.1227,-4.1854,-4.2049,-4.3833,-4.4154,-4.4498,-4.49,-4.5038,-4.5125,-4.5181,-4.5254,-4.5526,-4.6328,-4.7158,-4.8028,-4.8938,-4.9729,-5.0264,-5.0302,-5.0302,-5.0302,-5.0302,-5.1028,-5.1868,-5.2671,-5.3511,-5.4358,0.0,-5.4721,-5.4645,-5.55,-5.5577,-5.5629,-5.5703,-5.5703,-5.5703,-5.5703,-5.5703,-5.5703,-5.5703,-5.5703,-5.5703,-5.5703,-5.5703,-5.5703,-5.5695,-5.5845,-5.5896,-5.5913,-5.6044,-5.6175,-5.6316,-5.6316,-5.6416,-5.6606,-5.6606,-5.6606,-5.6586,-5.6547,-5.5993,-5.5147,-5.4287,-5.3975,-5.3955,-5.3955,-5.3373,-5.2654,-5.2654,-5.2069,-5.1406,-5.1406,-5.1406,-5.1406,-5.1406,-5.1406,-5.1406,-5.1406,-5.1406,-5.1406,-5.1406,-5.1387,-5.1367,-5.1367,-5.0703,-5.0156,-5.0137,-4.9414,-4.8555,-4.7695,-4.7558,-4.7224,-4.6302,-4.6137,-4.6064,-4.6007,-4.5883,-4.577,-4.5715,-4.5646,-4.5594,-4.5556,-4.5556,-4.5171,-4.4297,-4.4259,-4.3893,-4.3124,-4.3104,-4.3085,-4.3066,-4.3066,-4.3047,-4.3028,-4.3047,-4.3066,-4.4136,-4.4383,-4.4546,-4.4979,-4.5125,-4.517,-4.5192,-4.5246,-4.5526,-4.6328,-4.7177,-4.8067,-4.8926,-4.9748,-5.0302,-5.0302,-5.0302,-5.0302,-5.0302,-5.1047,-5.1907,-5.269,-5.3569,0.0,0.0,0.0,0.0,-5.5508,-5.5539,-5.5562,-5.5629,-5.5629,-5.5651,-5.5703,-5.5703,-5.5703,-5.5703,-5.5703,-5.5703,-5.5703,-5.5703,-5.5703,-5.5714,-5.5748,-5.5808,-5.5896,-5.5954,-5.6037,-5.6164,-5.6164,-5.6206,-5.6286,-5.6367,-5.6409,-5.6416,-5.6555,-5.6415,-5.6128,-5.5822,-5.5355,-5.4867,-5.4853,-5.4269,-5.3568,-5.3568,-5.2945,-5.2262,-5.2262,-5.1852,-5.1403,-5.1405,-5.1405,-5.1406,-5.1406,-5.1406,-5.1406,-5.1406,-5.1406,-5.1406,-5.1406,-5.1172,-5.082,-5.0293,-4.9961,-4.9277,-4.7812,-4.7066,-4.6567,-4.6243,-4.6142,-4.6091,-4.6064,-4.5988,-4.5908,-4.5841,-4.5742,-4.5671,-4.5676,-4.5631,-4.5479,-4.5171,-4.5171,-4.5037,-4.4767,-4.4767,-4.447,-4.3893,-4.3893,-4.3624,-4.3104,-4.3643,-4.3893,-4.4341,-4.4578,-4.4752,-4.5026,-4.5148,-4.5203,-4.5224,-4.5275,-4.5526,-4.6328,-4.7177,-4.8067,-4.8926,-4.9748,-5.0302,-5.0302,-5.0302,-5.0302,-5.0302,-5.1295,-5.2212,-5.2728,-5.3836,-5.4791,0.0,0.0,0.0,-5.5468,-5.5468,-5.5492,-5.5562,-5.5585,-5.5618,-5.5651,-5.5692,-5.5703,-5.5703,-5.5703,-5.5703,-5.5703,-5.5703,-5.5703,-5.5703,-5.5703,-5.5748,-5.5827,-5.5827,-5.5896,-5.6035,-5.6035,-5.607,-5.6104,-5.6186,-5.6237,-5.6252,-5.6436,-5.65,-5.6503,-5.6589,-5.6225,-5.5757,-5.5764,-5.5161,-5.446,-5.446,-5.3857,-5.3156,-5.3156,-5.2531,-5.1868,-5.1852,-5.1637,-5.1404,-5.1406,-5.1406,-5.1406,-5.1406,-5.1406,-5.1406,-5.1406,-5.1406,-5.123,-5.0723,-5.0391,-4.9824,-4.8691,-4.7496,-4.659,-4.6278,-4.6202,-4.6158,-4.6139,-4.6072,-4.6016,-4.5944,-4.5816,-4.5745,-4.5734,-4.5679,-4.564,-4.564,-4.5603,-4.5594,-4.5594,-4.5594,-4.5325,-4.4759,-4.4759,-4.4489,-4.4008,-4.4509,-4.4759,-4.4486,-4.4776,-4.5079,-4.5137,-4.5205,-4.526,-4.5286,-4.5297,-4.5507,-4.629,-4.7131,-4.8009,0.0,0.0,-5.0245,-5.0283,-5.0302,-5.0302,-5.0302,-5.1735,-5.2805,0.0,0.0,0.0,0.0,0.0,0.0,-5.5395,0.0,-5.5432,-5.5492,-5.5551,-5.5585,-5.5596,-5.5651,-5.5684,-5.5684,-5.5703,-5.5703,-5.5703,-5.5703,-5.5703,-5.5703,-5.5703,-5.5703,-5.5703,-5.5703,-5.5759,-5.5898,-5.5898,-5.5959,-5.6078,-5.6084,-5.6084,-5.6104,-5.6247,-5.6284,-5.6316,-5.6525,-5.6584,-5.6606,-5.6606,-5.6046,-5.537,-5.537,-5.4769,-5.4071,-5.4071,-5.3448,-5.2765,-5.2765,-5.2121,-5.1477,-5.1462,-5.1424,-5.1405,-5.1406,-5.1406,-5.1406,-5.1406,-5.1406,-5.1406,-5.1406,-5.0762,-5.0254,-5.0215,-4.8789,-4.7402,-4.6484,-4.6328,-4.6287,-4.6209,-4.6156,-4.6069,-4.6025,-4.589,-4.5801,-4.5814,-4.5749,-4.569,-4.5701,-4.564,-4.5614,-4.5614,-4.5594,-4.5594,-4.5594,-4.5594,-4.5594,-4.5594,-4.5594,-4.5594,-4.55,-4.5824,-4.5911,-4.5972,-4.6031,-4.5948,-4.5355,-4.5256,-4.5364,-4.5564,-4.6252,-4.7111,-4.7971,0.0,0.0,-5.0206,-5.0302,0.0,-5.0302,-5.1735,0.0,-5.2805,0.0,-5.5403,-5.5403,-5.5403,0.0,0.0,-5.5409,-5.5415,-5.542,-5.5444,-5.548,-5.5527,-5.5585,-5.5618,-5.5618,-5.5682,-5.5703,-5.5703,-5.5703,-5.5703,-5.5703,-5.5703,-5.5703,-5.5703,-5.5703,-5.5716,-5.5748,-5.5748,-5.5759,-5.5808,-5.5913,-5.5962,-5.5959,-5.6097,-5.6146,-5.6164,-5.6312,-5.6475,-5.6606,-5.6606,-5.645,-5.6276,-5.6276,-5.5656,-5.4974,-5.4974,-5.435,-5.3668,-5.3674,-5.3012,-5.2369,-5.2376,-5.1872,-5.1405,-5.1405,-5.1406,-5.1406,-5.1406,-5.1406,-5.1406,-5.1406,-5.123,-5.0898,-5.0293,-4.9824,-4.8984,-4.7461,-4.6699,-4.6289,-4.6287,-4.6216,-4.6175,-4.6145,-4.6033,-4.5935,-4.5875,-4.5803,-4.5754,-4.5692,-4.569,-4.5665,-4.5665,-4.5631,-4.5594,-4.5594,-4.5594,-4.5594,-4.5594,-4.5594,-4.5594,-4.6013,-4.6474,-4.6701,-4.6433,-4.6378,-4.6207,-4.5415,-4.5275,-4.5307,-4.5307,-4.5946,-4.6653,-4.7139,-4.8258,-4.9263,0.0,0.0,0.0,-5.0302,-5.1735,-5.2805,0.0,-5.4333,0.0,-5.5403,-5.5403,-5.5403,0.0,-5.5403,-5.5396,-5.5396,-5.5402,-5.542,-5.5456,-5.5551,-5.5607,-5.564,-5.5673,-5.5703,-5.5703,-5.5703,-5.5703,-5.5703,-5.5703,-5.5703,-5.5703,0.0,-5.5703,-5.5703,-5.5703,-5.5703,-5.5724,-5.5779,-5.5808,-5.5827,-5.5959,-5.602,-5.6022,-5.6164,-5.6281,-5.6395,-5.6553,-5.6606,-5.6606,-5.6606,-5.6255,-5.5864,-5.5864,-5.524,-5.4578,-5.4564,-5.392,-5.3162,-5.2799,-5.2335,-5.1869,-5.148,-5.1404,-5.1405,-5.1405,-5.1405,-5.1406,-5.1406,-5.1406,-5.125,-5.0781,-5.043,-4.9844,-4.8867,-4.7656,-4.6875,-4.6875,-4.6481,-4.6241,-4.6241,-4.6147,-4.6063,-4.5993,-4.5897,-4.5809,-4.5758,-4.5711,-4.5706,-4.5706,-4.5665,-4.564,-4.564,-4.5603,-4.5594,-4.5594,-4.5594,-4.5594,-4.6316,-4.7011,-4.7491,-4.6746,-4.6557,-4.6336,-4.5496,-4.5307,-4.5307,-4.5307,-4.5851,-4.6366,-4.6481,-4.7742,-4.8842,-4.9071,0.0,-5.0187,-5.0283,-5.1735,-5.2805,-5.2805,-5.4333,-5.5403,-5.5403,-5.5403,-5.5403,-5.5403,-5.5403,-5.5403,-5.5403,-5.5396,-5.5395,-5.5408,-5.5516,-5.5607,-5.5692,-5.5692,-5.5703,-5.5703,-5.5703,-5.5703,-5.5703,-5.5703,-5.5703,-5.5703,0.0,0.0,-5.5703,-5.5703,-5.5703,-5.5703,-5.5703,-5.5703,-5.5716,-5.5836,-5.5872,-5.5879,-5.6035,-5.6071,-5.6136,-5.6459,-5.6558,-5.6577,-5.6584,-5.6606,-5.6606,-5.6606,-5.6059,-5.5474,-5.5474,-5.483,-5.3973,-5.3221,-5.2968,-5.264,-5.1767,-5.1475,-5.1398,-5.1398,-5.1402,-5.1404,-5.1404,-5.1404,-5.1405,-5.1406,-5.0801,-5.0351,-5.0351,-4.8848,-4.7734,-4.7617,-4.6914,-4.6426,-4.6308,-4.6242,-4.6171,-4.6105,-4.5993,-4.5885,-4.5803,-4.5739,-4.5715,-4.5715,-4.5695,-4.5709,-4.5709,-4.5648,-4.5603,-4.5603,-4.5594,-4.5594,-4.6999,-4.7826,-4.8301,-4.7591,-4.7398,-4.7014,-4.5619,-4.5307,-4.5307,-4.5307,-4.5411,-4.5698,-4.6385,-4.6748,-4.7417,-4.888,-4.9224,-4.9538,-5.0206,-5.1735,-5.2805,0.0,-5.4333,-5.5403,-5.5403,-5.5403,0.0,0.0,0.0,-5.5403,-5.5403,-5.5396,-5.5403,-5.5395,-5.542,-5.5492,-5.5607,-5.5618,-5.566,-5.5703,-5.5703,-5.5703,-5.5703,-5.5703,-5.5703,-5.5703,0.0,0.0,-5.5703,-5.5703,-5.5703,-5.5703,-5.5703,-5.5703,-5.5695,-5.5726,-5.5728,-5.5758,-5.5898,-5.5938,-5.5975,-5.6252,-5.6352,-5.6383,-5.6553,-5.6606,-5.6606,-5.6606,-5.6489,-5.6372,-5.6372,-5.5728,-5.5047,-5.4871,-5.4293,-5.3536,-5.2659,-5.1903,-5.1398,-5.1398,-5.1399,-5.1399,-5.1399,-5.1399,-5.1401,-5.1405,-5.1288,-5.1191,-5.1191,-4.9726,-4.8398,-4.7676,-4.7461,-4.707,-4.6367,-4.6289,-4.6237,-4.6109,-4.6084,-4.5998,-4.5807,-4.5795,-4.5773,-4.5773,-4.5735,-4.5692,-4.5692,-4.569,-4.5693,-4.5684,-4.5631,-4.5594,-4.7302,-4.8338,-4.9034,-4.7846,-4.7571,-4.7182,-4.5614,-4.5256,-4.5246,-4.5087,-4.5034,-4.5148,-4.5548,-4.5997,-4.6767,-4.8178,-4.8793,-4.9366,-5.0187,-5.1735,-5.2805,-5.2805,-5.4333,-5.5403,0.0,-5.5403,0.0,0.0,0.0,-5.5403,-5.5403,-5.5403,-5.5409,-5.5395,-5.5408,-5.5456,-5.5551,-5.5551,-5.5585,-5.564,-5.564,-5.5682,-5.5703,-5.5703,-5.5703,-5.5703,0.0,0.0,-5.5703,-5.5703,-5.5703,-5.5703,-5.5703,-5.5703,-5.5703,-5.5703,-5.5703,-5.5705,-5.5769,-5.5798,-5.5827,-5.6035,-5.6135,-5.6216,-5.6309,-5.6391,-5.6443,-5.6443,-5.6525,-5.6606,-5.6606,-5.6294,-5.5864,-5.5415,-5.4639,-5.3764,-5.2885,-5.2365,-5.1939,-5.1486,-5.1391,-5.1394,-5.1394,-5.1394,-5.1396,-5.1401,-5.1402,-5.1403,-5.1406,-5.0703,-4.9882,-4.9043,-4.8144,-4.7422,-4.7012,-4.6562,-4.6265,-4.6155,-4.615,-4.6072,-4.5904,-4.5899,-4.5874,-4.5798,-4.5781,-4.5758,-4.5758,-4.5719,-4.5706,-4.5701,-4.5676,-4.5631,-4.7131,-4.823,-4.9015,-4.7599,-4.7269,-4.6949,-4.5502,-4.5181,-4.5117,-4.485,-4.4758,-4.4714,-4.4714,-4.5325,-4.6251,-4.7507,-4.8338,-4.9175,-5.0168,-5.1735,-5.2805,-5.2805,-5.4333,0.0,-5.5403,-5.5403,0.0,0.0,0.0,0.0,-5.5403,-5.5403,-5.5409,-5.5402,-5.5402,-5.5427,-5.548,-5.548,-5.5516,-5.5573,-5.5573,-5.5607,-5.5671,-5.5662,-5.5692,-5.5692,-5.5684,0.0,0.0,-5.5703,-5.5703,-5.5703,-5.5703,-5.5703,-5.5703,-5.5703,-5.5703,-5.5703,-5.5703,-5.5703,-5.5716,-5.5817,-5.5954,-5.6057,-5.6091,-5.6169,-5.6261,-5.6261,-5.6383,-5.6531,-5.6531,-5.6577,-5.643,-5.5747,-5.4908,-5.4088,-5.3407,-5.2963,-5.2497,-5.1806,-5.1538,-5.1407,-5.1407,-5.1407,-5.1409,-5.1396,-5.1396,-5.1398,-5.1403,-5.1404,-5.1151,-5.0527,-4.9082,-4.8086,-4.7891,-4.707,-4.6541,-4.6479,-4.63,-4.6145,-4.6022,-4.6012,-4.5958,-4.5835,-4.5812,-4.5803,-4.5803,-4.5758,-4.5719,-4.5726,-4.5717,-4.5673,-4.6297,-4.6961,-4.7441,-4.6612,-4.6408,-4.6193,-4.5312,-4.4967,-4.4833,-4.4808,-4.4616,-4.4425,-4.4425,-4.4694,-4.5476,-4.7163,-4.7719,-4.8487,-5.0073,-5.1735,-5.2805,-5.2805,0.0,0.0,-5.5403,0.0,0.0,0.0,0.0,0.0,0.0,-5.5403,-5.5403,-5.5403,-5.5403,-5.5403,-5.5408,-5.5408,-5.5444,-5.5516,-5.5516,-5.5516,-5.5516,-5.5585,-5.5607,-5.5607,0.0,0.0,0.0,-5.5703,-5.5703,-5.5703,-5.5703,-5.5703,-5.5703,-5.5703,-5.5703,-5.5703,-5.5703,-5.5703,-5.5695,-5.5716,-5.5798,-5.5946,-5.6057,-5.6104,-5.6116,-5.6116,-5.6227,-5.632,-5.632,-5.6449,-5.6586,-5.6508,-5.5806,-5.5162,-5.5086,-5.3817,-5.2685,-5.2607,-5.1943,-5.1396,-5.1396,-5.1396,-5.14,-5.1409,-5.139,-5.1393,-5.1398,-5.1399,-5.1362,-5.1307,-5.0488,-4.9648,-4.8848,-4.7988,-4.7459,-4.7377,-4.6633,-4.6162,-4.6091,-4.6032,-4.5997,-4.5986,-4.5867,-4.58,-4.58,-4.5783,-4.58,-4.5792,-4.5735,-4.5695,-4.6203,-4.679,-4.722,-4.643,-4.6277,-4.603,-4.4985,-4.4701,-4.4584,-4.426,-4.4114,-4.4069,-4.4132,-4.425,-4.4937,-4.6807,-4.7359,-4.8142,-4.9765,-5.1618,-5.2805,-5.2805,-5.4333,0.0,0.0,0.0,0.0,0.0,0.0,0.0,0.0,-5.5403,-5.5403,-5.5403,-5.5403,-5.5396,-5.5403,-5.5403,-5.5421,-5.5444,-5.5444,-5.5468,-5.5504,-5.5527,-5.5539,-5.5539,0.0,0.0,0.0,-5.5618,-5.5607,-5.5585,-5.5618,-5.5629,-5.564,-5.5692,-5.5703,-5.5703,-5.5703,-5.5703,-5.5703,-5.5703,-5.5747,-5.5789,-5.5835,-5.5913,-5.5975,-5.5975,-5.6071,-5.6175,-5.6175,-5.6294,-5.6416,-5.6416,-5.6252,-5.5942,-5.5415,-5.4754,-5.3953,-5.2899,-5.2411,-5.2019,-5.1492,-5.1394,-5.1396,-5.14,-5.14,-5.1403,-5.1393,-5.1394,-5.1396,-5.1401,-5.0682,-5.0058,-4.9707,-4.8887,-4.8379,-4.8336,-4.7515,-4.7018,-4.694,-4.641,-4.6102,-4.6052,-4.6012,-4.5974,-4.5974,-4.5933,-4.5899,-4.5861,-4.5798,-4.5743,-4.5824,-4.6171,-4.6371,-4.5804,-4.5627,-4.5359,-4.4515,-4.4313,-4.4198,-4.3804,-4.3677,-4.3662,-4.3798,-4.3894,-4.4553,-4.6454,-4.7024,-4.7802,-4.9433,-5.1299,-5.2504,-5.2504,0.0,-5.5071,0.0,0.0,0.0,0.0,0.0,0.0,0.0,-5.5403,-5.5403,-5.5403,-5.5403,-5.5403,-5.5403,-5.5403,-5.5409,-5.539,-5.539,-5.5415,-5.5463,-5.5468,-5.5468,-5.548,0.0,0.0,0.0,-5.5551,-5.5539,-5.5504,-5.5551,-5.5573,-5.5573,-5.566,-5.5662,-5.5662,-5.5684,-5.5703,-5.5703,-5.5703,-5.5703,-5.5703,-5.5703,-5.5778,-5.5845,-5.5845,-5.5946,-5.6044,-5.6084,-5.6164,-5.6247,-5.6247,-5.6375,-5.6325,-5.5682,-5.5413,-5.4925,-5.366,-5.3025,-5.2509,-5.1882,-5.157,-5.1394,-5.1394,-5.1394,-5.1396,-5.1405,-5.1405,-5.1408,-5.1395,-5.0892,-5.0544,-5.0546,-4.9765,-4.9277,-4.9277,-4.8476,-4.7968,-4.7917,-4.7068,-4.6561,-4.6504,-4.6248,-4.6098,-4.6098,-4.6039,-4.6018,-4.5959,-4.5916,-4.5835,-4.4914,-4.4687,-4.4435,-4.4416,-4.4154,-4.3912,-4.3912,-4.374,-4.3595,-4.3595,-4.3391,-4.3251,-4.3376,-4.3614,-4.4374,-4.612,-4.6685,-4.7477,-4.9073,-5.0748,-5.1818,0.0,0.0,-5.4315,0.0,0.0,0.0,0.0,0.0,0.0,0.0,-5.5403,-5.5403,-5.5403,-5.5403,-5.5403,-5.5403,-5.5403,-5.5403,-5.5403,-5.5403,-5.5403,-5.5403,-5.539,-5.5408,0.0,0.0,0.0,0.0,-5.5504,-5.5504,-5.5504,-5.5504,-5.5504,-5.5516,-5.5573,-5.5596,-5.5607,-5.5682,-5.5703,-5.5703,-5.5703,-5.5703,-5.5703,-5.5703,-5.5703,-5.5695,-5.5695,-5.5808,-5.5938,-5.6077,-5.6097,-5.6097,-5.6097,-5.6216,-5.6266,-5.6109,-5.5673,-5.5265,-5.5096,-5.3796,-5.2704,-5.2685,-5.196,-5.1394,-5.1394,-5.1394,-5.1394,-5.1394,-5.1394,-5.1398,-5.1408,-5.139,-5.1395,-5.1385,-5.0643,-5.0194,-5.0195,-4.9375,-4.8887,-4.8887,-4.7977,-4.7492,-4.7492,-4.6566,-4.6098,-4.6098,-4.6098,-4.6098,-4.6098,-4.6098,-4.6024,-4.4289,-4.414,-4.4065,-4.4065,-4.3989,-4.3849,-4.3607,-4.3508,-4.3424,-4.3286,-4.3196,-4.316,-4.3251,-4.3339,-4.3922,-4.5572,-4.6128,-4.6954,0.0,0.0,0.0,-5.1783,-5.3266,0.0,0.0,0.0,0.0,0.0,0.0,0.0,0.0,-5.499,-5.5113,-5.539,-5.5403,-5.5403,-5.5403,-5.5403,-5.5403,-5.5403,-5.5403,-5.5403,-5.5403,-5.5396,0.0,0.0,0.0,0.0,0.0,-5.5439,-5.5427,-5.5428,-5.5439,-5.5432,-5.5444,-5.5504,-5.5527,-5.5539,-5.5551,-5.5562,-5.5562,-5.5562,-5.5562,-5.5573,-5.5618,-5.5651,-5.5703,-5.5703,-5.5737,-5.5769,-5.5817,-5.5887,-5.5959,-5.5959,-5.6077,-5.6146,-5.6104,-5.5969,-5.5697,-5.5208,-5.4691,-5.4177,-5.3672,-5.2878,-5.2292,-5.2292,-5.1785,-5.1394,-5.1394,-5.1394,-5.1396,-5.14,-5.14,-5.1407,-5.14,-5.1167,-5.1012,-5.1015,-5.0253,-4.9785,-4.9785,-4.8925,-4.8454,-4.8454,-4.7571,-4.7137,-4.7118,-4.6472,-4.6145,-4.6098,-4.6098,-4.6084,-4.3927,-4.3802,-4.3705,-4.3705,-4.3623,-4.3474,-4.3248,-4.3213,-4.3178,-4.305,-4.3012,-4.3049,-4.316,-4.316,-4.3688,-4.533,-4.5792,-4.6507,0.0,0.0,0.0,-5.2159,0.0,0.0,0.0,0.0,0.0,0.0,0.0,0.0,0.0,0.0,-5.478,-5.5154,-5.5319,-5.5403,-5.5403,-5.5403,-5.5403,-5.5403,-5.5403,-5.5403,-5.5403,-5.5403,0.0,0.0,0.0,0.0,0.0,-5.5403,-5.5403,-5.5403,-5.5403,-5.5409,-5.5409,-5.5444,-5.5468,-5.5468,-5.5492,-5.5504,-5.5504,-5.5504,-5.5504,-5.5504,-5.5551,-5.5618,-5.5684,-5.5662,-5.5651,-5.5651,-5.5651,-5.5719,-5.5798,-5.5817,-5.593,-5.6013,-5.5959,-5.6042,-5.5968,-5.5493,-5.5203,-5.4884,-5.4414,-5.3627,-5.2955,-5.2668,-5.2123,-5.1648,-5.1364,-5.1288,-5.1262,-5.1325,-5.1327,-5.1342,-5.1409,-5.1394,-5.1398,-5.1402,-5.0934,-5.0642,-5.0643,-4.9843,-4.9394,-4.9394,-4.8535,-4.8086,-4.8086,-4.7163,-4.6544,-4.6167,-4.6147,-4.6137,0.0,-4.359,-4.3371,-4.3371,-4.3123,-4.2901,-4.2901,-4.2901,0.0,-4.2901,-4.2901,-4.2938,-4.3049,-4.3086,-4.3632,-4.531,-4.5584,-4.6131,0.0,-4.9375,0.0,0.0,0.0,0.0,0.0,0.0,0.0,0.0,0.0,0.0,0.0,0.0,-5.4413,-5.4746,-5.5127,-5.5332,-5.5364,-5.5364,-5.5364,-5.5319,-5.5319,-5.5332,-5.5364,-5.5364,0.0,0.0,0.0,0.0,0.0,-5.5403,-5.5403,-5.5403,-5.5403,-5.5403,-5.5403,-5.539,-5.5395,-5.5408,-5.5468,-5.5492,-5.5492,-5.5492,-5.5492,-5.5492,-5.5492,-5.5585,-5.5662,-5.5607,-5.5585,-5.5585,-5.5585,-5.5585,-5.5607,-5.5662,-5.5769,-5.5835,-5.5726,-5.5887,-5.6049,-5.5921,-5.5397,-5.4964,-5.4977,-5.4278,-5.346,-5.2766,-5.2508,-5.213,-5.1373,-5.1171,-5.1125,-5.1183,-5.1191,-5.1245,-5.1362,-5.138,-5.1391,-5.1397,-5.1397,-5.1398,-5.1398,-5.068,-5.0291,-5.0291,-4.9433,-4.8965,-4.8906,-4.8086,-4.7246,-4.6387,-4.6337,-4.6266,-4.3105,0.0,-4.3014,-4.3014,-4.2957,-4.2901,0.0,-4.2901,-4.2901,-4.2901,-4.2901,-4.2919,-4.2938,-4.2938,-4.3483,-4.5116,-4.537,-4.5971,-4.7686,0.0,0.0,-5.2645,0.0,0.0,0.0,0.0,0.0,0.0,0.0,0.0,0.0,0.0,-5.4034,-5.4397,-5.4514,-5.4673,-5.4947,-5.4947,-5.481,-5.4562,-5.4562,-5.4689,-5.4947,-5.4947,0.0,0.0,0.0,0.0,0.0,-5.5403,-5.5403,-5.5403,-5.5403,-5.5403,-5.5403,-5.5396,-5.5409,-5.5409,-5.5422,-5.5422,-5.5422,-5.5422,-5.5421,-5.5432,-5.5432,-5.548,-5.5539,-5.5527,-5.5527,-5.5527,-5.5527,-5.5527,-5.5527,-5.5539,-5.561,-5.5665,-5.5629,-5.5717,-5.5808,-5.5889,-5.5766,-5.5703,-5.5806,-5.5133,-5.4537,-5.4354,-5.3733,-5.2983,-5.2144,-5.201,-5.1752,-5.11,-5.1047,-5.1058,-5.1084,-5.1271,-5.1402,-5.1391,-5.1391,-5.1394,-5.1398,-5.1223,-5.1127,-5.1127,-5.031,-4.9569,-4.8905,-4.8691,-4.8144,-4.7285,-4.7284,-4.6913,-4.2901,-4.2901,-4.2901,-4.2901,-4.2901,-4.2901,-4.2901,-4.2901,-4.2901,-4.2901,-4.2901,-4.2901,-4.2901,-4.319,-4.386,-4.5091,-4.5617,0.0,0.0,0.0,-5.1351,-5.2553,0.0,0.0,0.0,0.0,0.0,0.0,0.0,0.0,0.0,0.0,-5.3623,-5.4016,-5.4034,-5.4192,-5.4576,-5.4576,-5.4479,-5.4315,-5.4315,-5.4416,-5.4576,-5.4576,0.0,0.0,0.0,0.0,-5.5403,-5.5403,-5.5403,-5.5403,-5.5403,-5.5403,-5.5403,-5.5403,-5.5403,-5.5403,-5.5403,-5.5403,-5.5403,-5.5403,-5.5409,-5.5396,-5.5396,-5.5421,-5.5458,-5.5444,-5.5456,-5.5456,-5.5456,-5.5456,-5.5468,-5.5492,-5.5527,-5.5562,-5.5596,-5.5618,-5.5675,-5.5789,-5.5818,-5.5836,-5.5904,-5.5565,-5.5155,-5.4846,-5.4347,-5.3723,-5.2908,-5.2392,-5.1951,-5.1559,-5.1165,-5.0959,-5.1002,-5.1137,-5.1232,-5.1291,-5.1373,-5.1405,-5.1408,-5.1393,-5.1396,-5.1398,-5.0971,-5.0328,-4.9449,-4.9471,-4.9043,-4.8183,-4.7793,-4.7344,-4.2901,-4.2901,-4.2901,-4.2901,-4.2901,-4.2901,-4.2901,-4.2901,-4.2901,-4.2901,-4.2901,-4.2955,-4.3064,-4.3625,-4.4403,0.0,0.0,0.0,-4.9804,-5.0885,-5.175,0.0,0.0,0.0,0.0,0.0,0.0,0.0,0.0,0.0,0.0,0.0,0.0,-5.3623,-5.3623,-5.3795,-5.4142,-5.4176,-5.4176,-5.4142,-5.4142,-5.4159,-5.421,-5.421,0.0,0.0,0.0,0.0,-5.5233,-5.5292,-5.5319,-5.5319,-5.5377,-5.5403,-5.5403,-5.5403,-5.5403,-5.5403,-5.5403,-5.5403,-5.5403,-5.5403,-5.5403,-5.5403,-5.5403,-5.5403,-5.5396,-5.5409,-5.5402,-5.5402,-5.5402,-5.5402,-5.5408,-5.5476,-5.548,-5.5504,-5.5562,-5.5573,-5.5596,-5.5671,-5.5662,-5.5662,-5.5673,-5.5673,-5.5506,-5.4947,-5.4757,-5.4399,-5.3653,-5.282,-5.2242,-5.2097,-5.1465,-5.1026,-5.0953,-5.0966,-5.102,-5.1156,-5.1278,-5.1357,-5.1364,-5.1375,-5.1385,-5.1395,-5.1396,-5.1046,-5.0304,-5.0367,-4.9939,-4.906,-4.8339,-4.7851,-4.2901,-4.2901,-4.2901,-4.2901,-4.2901,-4.2901,-4.2901,-4.2901,-4.2901,-4.2901,-4.2901,-4.3118,-4.3788,-4.4023,-4.4584,0.0,0.0,-4.8912,0.0,0.0,0.0,0.0,0.0,0.0,0.0,0.0,0.0,0.0,0.0,0.0,0.0,0.0,0.0,-5.3272,-5.3272,-5.3314,-5.3357,-5.3642,-5.3642,-5.3357,-5.3357,-5.3522,-5.3795,-5.3795,-5.4016,0.0,0.0,0.0,-5.4498,-5.478,-5.4884,-5.4933,-5.5273,-5.5403,-5.5403,-5.5403,-5.5403,-5.5403,-5.5403,-5.5403,-5.5403,-5.5403,-5.5403,-5.5403,-5.5403,-5.5403,-5.5403,-5.5396,-5.5396,-5.5396,-5.5396,-5.5396,-5.5396,-5.5409,-5.5421,-5.542,-5.5432,-5.548,-5.5516,-5.5527,-5.5527,-5.5551,-5.5607,-5.5607,-5.5602,-5.5553,-5.5532,-5.5233,-5.4417,-5.4204,-5.354,-5.2088,-5.1819,-5.1472,-5.0797,-5.0847,-5.092,-5.0942,-5.1016,-5.1099,-5.1238,-5.1222,-5.1274,-5.1398,-5.1407,-5.1333,-5.1196,-5.1202,-5.0774,-4.9915,-4.9841,-4.9003,-4.2901,-4.2901,-4.2901,-4.2901,-4.2901,-4.2901,-4.2901,-4.2901,-4.2901,-4.2901,-4.2901,-4.3155,-4.3951,0.0,-4.5273,-4.6902,0.0,-4.9673,0.0,0.0,0.0,0.0,0.0,0.0,0.0,0.0,0.0,0.0,0.0,0.0,0.0,0.0,0.0,0.0,-5.306,-5.3082,-5.3082,-5.3238,-5.3297,-5.3185,-5.3185,-5.3293,-5.3422,-5.3422,-5.3641,0.0,0.0,-5.4105,-5.4296,-5.4463,-5.4528,-5.4544,-5.4719,-5.4922,-5.5113,-5.5319,-5.526,-5.5085,-5.5085,-5.5085,-5.5038,-5.4859,-5.509,-5.5364,-5.514,-5.5233,-5.5403,-5.5403,-5.5403,-5.5403,-5.5403,-5.5403,-5.5403,-5.5403,-5.5409,-5.5396,-5.5395,-5.5432,-5.5456,-5.5492,-5.5504,-5.5516,-5.5539,-5.5551,-5.5562,-5.5649,-5.5607,-5.5462,-5.513,-5.4685,-5.3925,-5.2679,-5.2132,-5.1538,-5.076,-5.0758,-5.083,-5.0945,-5.0972,-5.1031,-5.1084,-5.1084,-5.115,-5.1291,-5.128,-5.1338,-5.1402,-5.139,-5.1199,-5.0789,-5.0345,-4.9722,-4.2901,-4.2901,-4.2901,-4.2901,-4.2901,-4.2901,-4.2901,-4.2901,-4.2901,-4.2901,-4.3064,-4.3425,-4.4222,-4.5182,0.0,-4.7518,-4.9039,0.0,0.0,0.0,0.0,0.0,0.0,0.0,0.0,0.0,0.0,0.0,0.0,0.0,0.0,0.0,0.0,0.0,-5.2893,-5.2955,-5.2955,-5.2955,-5.3039,-5.3185,-5.3185,-5.3185,-5.3185,-5.3185,-5.3336,-5.3584,-5.3584,-5.3757,-5.4053,-5.4123,-5.4158,-5.4158,-5.4245,-5.4463,-5.4716,-5.5042,-5.4952,-5.4685,-5.4685,-5.4685,-5.4639,-5.438,-5.4692,-5.5085,-5.478,-5.4947,-5.526,-5.526,-5.5332,-5.5403,-5.5403,-5.5403,-5.5403,-5.5403,-5.5403,-5.5396,-5.5409,-5.5402,-5.5415,-5.5463,-5.5476,-5.5476,-5.548,-5.548,-5.5504,-5.5562,-5.5527,-5.5516,-5.5573,-5.499,-5.4193,-5.3182,-5.2483,-5.1698,-5.0759,-5.0683,-5.0775,-5.0919,-5.0933,-5.0946,-5.0979,-5.0979,-5.102,-5.115,-5.115,-5.1214,-5.1357,-5.1349,-5.1379,-5.1387,-5.073,-5.0303,-4.2901,-4.2901,-4.2901,-4.2901,-4.2901,-4.2901,-4.2901,-4.2901,-4.2901,-4.2901,-4.348,-4.4258,-4.5073,-4.6486,-4.7572,-4.7681,-4.9039,0.0,0.0,0.0,0.0,0.0,0.0,0.0,0.0,0.0,0.0,0.0,0.0,0.0,0.0,0.0,0.0,0.0,0.0,-5.2806,-5.2806,-5.2806,-5.2934,-5.3185,-5.3185,-5.3185,-5.3185,-5.3185,-5.3206,-5.3248,-5.3248,-5.3251,-5.3314,-5.3603,-5.3739,-5.3777,-5.4158,-5.4313,-5.433,-5.4382,-5.4347,-5.4349,-5.4349,-5.4349,-5.433,-5.4315,-5.4349,-5.4364,-5.433,-5.4576,-5.4836,-5.4836,-5.5113,-5.5403,-5.5403,-5.5403,-5.5403,-5.5403,-5.5403,-5.5403,-5.5403,-5.5403,-5.5403,-5.5416,-5.5416,-5.5409,-5.5415,-5.5408,-5.5432,-5.5504,-5.5504,-5.5504,-5.5504,-5.5446,-5.4795,-5.3184,-5.2946,-5.2297,-5.0737,-5.0653,-5.0702,-5.0712,-5.0712,-5.0775,-5.0902,-5.091,-5.0944,-5.1014,-5.102,-5.1074,-5.1211,-5.1211,-5.1288,-5.1396,-5.1348,-5.0863,-4.2901,-4.2901,-4.2901,-4.2901,-4.2901,-4.2901,-4.2901,-4.2901,-4.3046,-4.3534,-4.3878,-4.4494,-4.5816,0.0,-4.7859,-4.8348,0.0,0.0,0.0,0.0,0.0,0.0,0.0,0.0,0.0,0.0,0.0,0.0,0.0,0.0,0.0,0.0,0.0,0.0,0.0,-5.2676,-5.2676,-5.2676,-5.2783,-5.2955,-5.2955,-5.2977,-5.3082,-5.3082,-5.3082,-5.3082,-5.3164,-5.3185,-5.3206,-5.3336,-5.338,-5.3422,-5.3795,-5.3925,-5.3962,-5.421,-5.4141,-5.3925,-5.3925,-5.3925,-5.3888,-5.368,-5.3926,-5.4245,-5.4016,-5.4192,-5.4495,-5.4495,-5.461,-5.4814,-5.5292,-5.5403,-5.5403,-5.5403,-5.5403,-5.5403,-5.5403,-5.5403,-5.5403,-5.5403,-5.5403,-5.5403,-5.539,-5.5403,-5.5396,-5.5432,-5.5446,-5.5434,-5.5432,-5.5446,-5.4802,-5.3115,-5.205,-5.1201,-5.0589,-5.0603,-5.0633,-5.0633,-5.0692,-5.0721,-5.0766,-5.0785,-5.0833,-5.0937,-5.0937,-5.0992,-5.1074,-5.1074,-5.1146,-5.1284,-5.1271,-5.1138,-4.2901,-4.2901,-4.2901,-4.2901,-4.2901,-4.2901,-4.2901,-4.2901,-4.3118,-4.3914,-4.4494,-4.5273,-4.6631,0.0,0.0,0.0,0.0,0.0,0.0,0.0,0.0,0.0,0.0,0.0,0.0,0.0,0.0,0.0,0.0,0.0,0.0,0.0,0.0,0.0,0.0,0.0,-5.2581,-5.2581,-5.2627,-5.2739,-5.2735,-5.2802,-5.2934,-5.2934,-5.2934,-5.2955,-5.3039,-5.3103,-5.3143,-5.3143,-5.3143,-5.3167,-5.3383,-5.3485,-5.3525,-5.3795,-5.3739,-5.3543,-5.3543,-5.3543,-5.3484,-5.323,-5.3482,-5.3833,-5.3506,-5.3701,-5.4051,-5.4051,-5.4176,-5.4416,-5.4922,-5.5132,-5.5246,-5.5377,-5.5403,-5.5403,-5.5403,-5.5403,-5.5403,-5.5403,-5.5403,-5.5403,-5.5403,-5.5403,-5.5396,-5.5409,-5.5409,-5.5301,-5.5026,-5.4989,-5.4345,-5.2674,-5.1277,-5.0468,-5.0468,-5.0521,-5.0572,-5.0572,-5.0613,-5.0643,-5.0663,-5.0663,-5.0712,-5.0808,-5.0808,-5.0859,-5.0966,-5.0966,-5.1033,-5.1137,-5.1137,-5.1191,-4.2901,-4.2901,-4.2901,-4.2901,-4.2901,-4.2901,-4.2901,-4.2919,-4.3155,-4.3951,-4.5399,-4.6757,-4.7554,-4.7717,0.0,0.0,0.0,0.0,0.0,0.0,0.0,0.0,0.0,0.0,0.0,0.0,0.0,0.0,0.0,0.0,0.0,0.0,0.0,0.0,0.0,0.0,-5.2498,-5.2498,-5.2531,-5.259,-5.2531,-5.2595,-5.2806,-5.2806,-5.2806,-5.2806,-5.2806,-5.289,-5.2999,-5.2999,-5.2999,-5.2999,-5.2999,-5.2999,-5.2999,-5.2999,-5.3082,-5.3185,-5.3185,-5.3185,-5.3185,-5.3042,-5.2999,-5.2977,-5.2828,-5.312,-5.3491,-5.3491,-5.3888,-5.4298,-5.4298,-5.4544,-5.4884,-5.5305,-5.539,-5.539,-5.5403,-5.539,-5.539,-5.539,-5.539,-5.539,-5.539,-5.539,-5.5403,-5.5403,-5.5384,-5.5059,-5.4199,-5.4085,-5.3435,-5.178,-5.0883,-5.0401,-5.0401,-5.0468,-5.05,-5.05,-5.05,-5.0521,-5.0593,-5.0603,-5.0603,-5.0603,-5.0603,-5.0692,-5.0894,-5.0894,-5.093,-5.1002,-5.1002,-5.1002,-4.2901,-4.2901,-4.2901,-4.2901,-4.2901,-4.2901,-4.2901,-4.3354,-4.4132,-4.5508,-4.6631,-4.7428,-4.7663,-4.7717,0.0,0.0,0.0,0.0,0.0,0.0,0.0,0.0,0.0,0.0,0.0,0.0,0.0,0.0,0.0,0.0,0.0,0.0,0.0,0.0,0.0,0.0,-5.2498,-5.2498,-5.2503,-5.2531,-5.2503,-5.2572,-5.2654,-5.2654,-5.2654,-5.2676,-5.2761,-5.2828,-5.285,-5.285,-5.285,-5.285,-5.285,-5.285,-5.285,-5.285,-5.2872,-5.2912,-5.2912,-5.2912,-5.2912,-5.2868,-5.285,-5.285,-5.2806,-5.2897,-5.3008,-5.3008,-5.318,-5.3445,-5.3683,-5.3888,-5.4173,-5.4825,-5.4976,-5.5052,-5.5332,-5.5187,-5.4976,-5.4976,-5.4976,-5.4976,-5.4976,-5.4699,-5.4486,-5.4486,-5.3951,-5.3473,-5.3225,-5.269,-5.2155,-5.1646,-5.0849,-5.0325,-5.0325,-5.0401,-5.0435,-5.0435,-5.0478,-5.0511,-5.0521,-5.0521,-5.0521,-5.0521,-5.0521,-5.0584,-5.0683,-5.0683,-5.0763,-5.0923,-5.0923,-5.0959,-4.2901,-4.2901,-4.2901,-4.2901,-4.2901,-4.3082,-4.3697,-4.4222,-4.4928,-4.6232,-4.7156,-4.7717,-4.7717,-4.7717,0.0,0.0,0.0,0.0,0.0,0.0,0.0,0.0,0.0,0.0,0.0,0.0,0.0,0.0,0.0,0.0,0.0,0.0,0.0,0.0,0.0,0.0,-5.2498,-5.2498,-5.2498,-5.2498,-5.2498,-5.2526,-5.2559,-5.2559,-5.2559,-5.2559,-5.2654,-5.2721,-5.2721,-5.2783,-5.2761,-5.2721,-5.2721,-5.2721,-5.2721,-5.2721,-5.2761,-5.2806,-5.2806,-5.2806,-5.2783,-5.2739,-5.2721,-5.2717,-5.269,-5.2694,-5.2721,-5.2721,-5.2828,-5.298,-5.3182,-5.3326,-5.3624,-5.4411,-5.4607,-5.4654,-5.4908,-5.4765,-5.4513,-5.4188,-5.4132,-5.4018,-5.366,-5.3371,-5.3237,-5.3364,-5.2781,-5.2327,-5.2327,-5.1601,-5.1085,-5.1085,-5.0608,-5.0302,-5.0302,-5.0337,-5.0348,-5.0348,-5.0412,-5.0416,-5.0416,-5.0457,-5.0468,-5.0468,-5.0468,-5.0489,-5.0572,-5.0572,-5.0615,-5.0736,-5.0773,-5.0795,-4.2882,-4.2901,-4.2882,-4.2844,-4.2844,-4.326,-4.4928,-4.5291,-4.5544,-4.6432,0.0,-4.7717,-4.7717,-4.7678,0.0,0.0,0.0,0.0,0.0,0.0,0.0,0.0,0.0,0.0,0.0,0.0,0.0,0.0,0.0,0.0,0.0,0.0,0.0,0.0,0.0,0.0,-5.2498,-5.2498,-5.2498,0.0,-5.2498,-5.2498,-5.2498,-5.2498,-5.2498,-5.2498,-5.2559,-5.2586,-5.2608,-5.2717,-5.2694,-5.2586,-5.2586,-5.2586,-5.2586,-5.2586,-5.2654,-5.2761,-5.2761,-5.2761,-5.2739,-5.2631,-5.2586,-5.2586,-5.2526,-5.2554,-5.2586,-5.2586,-5.2676,-5.2783,-5.2783,-5.2835,-5.3086,-5.3868,-5.4137,-5.4245,-5.4204,-5.4168,-5.3889,-5.308,-5.2911,-5.2667,-5.1877,-5.1686,-5.1739,-5.1987,-5.1661,-5.1407,-5.1419,-5.0744,-5.0278,-5.0302,-5.0302,-5.0302,-5.0302,-5.0302,-5.0302,-5.0302,-5.0302,-5.0302,-5.0302,-5.0367,-5.039,-5.039,-5.039,-5.0416,-5.0489,-5.0489,-5.05,-5.05,-5.0553,-5.0593,-4.2806,-4.2901,-4.2806,-4.2438,-4.2358,-4.2869,-4.4849,-4.5291,-4.5707,-4.7156,-4.7591,-4.7717,-4.7717,0.0,0.0,0.0,0.0,0.0,0.0,0.0,0.0,0.0,0.0,0.0,0.0,0.0,0.0,0.0,0.0,0.0,0.0,0.0,0.0,0.0,0.0,-5.2498,-5.2498,-5.2498,-5.2498,0.0,-5.2498,-5.2498,-5.2498,-5.2498,-5.2498,-5.2498,-5.2503,-5.2526,-5.2526,-5.2549,-5.2549,-5.2526,-5.2526,-5.2526,-5.2526,-5.2526,-5.2549,-5.2549,-5.2549,-5.2549,-5.2549,-5.2526,-5.2526,-5.2526,-5.2498,-5.2503,-5.2526,-5.2526,-5.2581,-5.2635,-5.2635,-5.2269,-5.1944,-5.2139,-5.3006,-5.3739,-5.342,-5.3063,-5.2549,-5.1694,-5.1491,-5.1398,-5.1267,-5.0934,-5.0544,-5.0014,-4.986,-4.9882,-5.0155,-5.0011,-5.0012,-5.0278,-5.0302,-5.0302,-5.0302,-5.0302,-5.0302,-5.0302,-5.0302,-5.0302,-5.0302,-5.0314,-5.0314,-5.0314,-5.0314,-5.0348,-5.0424,-5.0424,-5.0457,-5.05,-5.0511,-5.0521,-4.2438,-4.24,-4.216,-4.1931,-4.1867,-4.242,-4.4486,-4.4782,-4.5169,-4.7268,-4.7717,-4.7615,0.0,0.0,0.0,0.0,0.0,0.0,0.0,0.0,0.0,0.0,0.0,0.0,0.0,0.0,0.0,0.0,0.0,0.0,0.0,0.0,0.0,0.0,-5.2498,-5.2498,-5.2498,-5.2498,-5.2498,-5.2498,-5.2498,-5.2498,-5.2498,-5.2498,-5.2498,-5.2498,-5.2498,-5.2498,-5.2498,-5.2498,-5.2498,-5.2498,-5.2498,-5.2498,-5.2498,-5.2498,-5.2498,-5.2498,-5.2498,-5.2498,-5.2498,-5.2498,-5.2226,-5.1919,-5.1919,-5.1647,-5.1339,-5.1339,-5.1366,-5.1415,-5.1415,-5.1195,-5.0969,-5.0969,-5.1543,-5.2055,-5.1843,-5.1635,-5.1179,-5.0352,-5.0165,-5.0035,-4.9689,-4.9546,-4.9381,-4.9057,-4.9145,-4.9317,-4.9527,-4.9527,-4.9646,-5.0025,-5.0038,-5.0095,-5.029,-5.0156,-5.0063,-5.0063,-4.9916,-4.983,-4.983,-4.9968,-5.0132,-5.0302,-5.0302,-5.0314,-5.0348,-5.0348,-5.0359,-5.0412,-5.0446,-5.0457,-4.1952,-4.1739,-4.1393,-4.1481,-4.1437,-4.189,-4.3823,-4.4026,-4.4452,-4.6773,-4.7338,0.0,0.0,0.0,0.0,0.0,0.0,0.0,0.0,0.0,0.0,0.0,0.0,0.0,0.0,0.0,0.0,0.0,0.0,0.0,0.0,0.0,-5.2498,-5.2498,-5.2498,-5.2498,-5.2498,-5.2498,-5.2434,-5.2345,-5.2201,-5.2121,-5.2082,-5.2082,-5.2226,-5.2498,-5.2498,-5.2498,-5.2498,-5.2498,-5.2498,-5.2498,-5.2498,-5.2498,-5.2498,-5.2498,-5.2498,-5.248,-5.2335,-5.2281,-5.2263,-5.2118,-5.1629,-5.1086,-5.1086,-5.0637,-5.0112,-5.0112,-5.0112,-5.0112,-5.0112,-5.0087,-5.0061,-5.0061,-4.998,-4.9974,-5.0162,-5.018,-4.994,-4.9138,-4.8972,-4.8753,-4.8099,-4.8212,-4.8458,-4.855,-4.8816,-4.9015,-4.9142,-4.9113,-4.9224,-4.9613,-4.9599,-4.9716,-5.0082,-4.9863,-4.9702,-4.9716,-4.9453,-4.9299,-4.9299,-4.957,-4.9844,-5.0132,-5.0236,-5.0302,-5.0302,-5.0302,-5.0302,-5.0302,-5.0367,-5.039,-4.1477,-4.1253,-4.0995,-4.1393,-4.1185,-4.1244,-4.2627,-4.3393,-4.4085,0.0,-4.5876,0.0,0.0,0.0,0.0,0.0,0.0,0.0,0.0,0.0,0.0,0.0,0.0,0.0,0.0,0.0,0.0,0.0,0.0,0.0,0.0,-5.2498,-5.2498,-5.2498,-5.2498,-5.2498,-5.2498,-5.2498,-5.2251,-5.1719,-5.1021,-5.0599,-5.042,-5.042,-5.1176,-5.2498,-5.2498,-5.2498,-5.2498,-5.2498,-5.2498,-5.2498,-5.2498,-5.2498,-5.2498,-5.2498,-5.2498,-5.2389,-5.1701,-5.1448,-5.1339,-5.0655,-5.0365,-5.0275,-5.0275,-5.0202,-5.0112,-5.0112,-5.0112,-5.0112,-5.0112,-4.9604,-4.9097,-4.9097,-4.8554,-4.8291,-4.9172,-4.9315,-4.9052,-4.8231,-4.8086,-4.805,-4.7941,-4.799,-4.8073,-4.8093,-4.8132,-4.827,-4.8567,-4.8603,-4.8744,-4.9075,-4.9108,-4.9158,-4.9336,-4.9324,-4.9287,-4.936,-4.9314,-4.9299,-4.9299,-4.9329,-4.9394,-4.9439,-4.9993,-5.0302,-5.0302,-5.0302,-5.0302,-5.0302,-5.0314,-5.0314,-4.0659,-4.0754,-4.0778,-4.0713,-4.0563,-4.0744,-4.2014,-4.2345,-4.2842,-4.4633,0.0,0.0,0.0,0.0,0.0,0.0,0.0,0.0,0.0,0.0,0.0,0.0,0.0,0.0,0.0,0.0,0.0,0.0,0.0,0.0,-5.0718,-5.0985,-5.1008,-5.0718,-5.1008,0.0,-5.0249,-5.0558,-5.042,-4.9865,-4.9485,-4.9291,-4.9198,-4.9198,-4.9918,-5.1158,-5.1158,-5.1158,-5.1158,-5.1158,-5.1158,-5.1194,-5.1647,-5.1828,-5.1828,-5.1828,-5.1828,-5.1701,-5.0904,-5.0637,-5.056,-5.022,-4.98,-4.9438,-4.9438,-4.9112,-4.8768,-4.8768,-4.8768,-4.8768,-4.8768,-4.8496,-4.8221,-4.8221,-4.795,-4.7829,-4.826,-4.833,-4.8197,-4.7853,-4.778,-4.778,-4.778,-4.7804,-4.7866,-4.7927,-4.7927,-4.801,-4.8212,-4.8191,-4.8308,-4.8673,-4.8692,-4.8777,-4.9062,-4.8915,-4.883,-4.8846,-4.8674,-4.8586,-4.8586,-4.8743,-4.8846,-4.8846,-4.9435,-4.983,-5.0025,-5.0025,-5.0025,-5.0025,-5.0025,-4.9778,-4.0096,-4.0353,-4.0531,-4.0196,-4.0096,-4.0332,-4.13,0.0,-4.1724,0.0,0.0,0.0,0.0,0.0,0.0,0.0,0.0,0.0,0.0,0.0,0.0,0.0,0.0,0.0,0.0,0.0,0.0,0.0,0.0,0.0,-4.9041,-4.943,-4.9476,-4.9125,-4.9476,-4.9311,-4.851,-4.8745,-4.8657,-4.8186,-4.8049,-4.7944,-4.7904,-4.7904,-4.8327,-4.9104,-4.9672,-4.9897,-4.9897,-5.0049,-5.0112,-5.0144,-5.0611,-5.08,-5.0777,-5.0644,-5.0667,-5.0674,-4.9879,-4.9675,-4.9745,-4.9546,-4.9075,-4.8583,-4.8583,-4.8167,-4.7717,-4.7717,-4.7717,-4.7717,-4.7717,-4.7717,-4.7717,-4.7717,-4.7717,-4.7717,-4.7717,-4.7717,-4.7717,-4.7717,-4.7717,-4.7717,-4.7717,-4.7717,-4.7738,-4.784,-4.784,-4.7863,-4.7929,-4.7884,-4.7949,-4.8252,-4.8251,-4.8365,-4.8692,-4.8495,-4.8346,-4.8365,-4.8134,-4.7992,-4.7992,-4.8251,-4.8365,-4.8365,-4.8779,-4.919,-4.9646,-4.9674,-4.9674,-4.9674,-4.9461,-4.905,-4.0096,-4.0121,-4.0121,-4.0113,-4.0096,-4.0113,-4.0172,0.0,0.0,0.0,0.0,0.0,0.0,0.0,0.0,0.0,0.0,0.0,0.0,0.0,0.0,0.0,0.0,0.0,0.0,0.0,0.0,0.0,0.0,0.0,-4.8346,-4.8372,-4.8441,-4.8536,-4.8561,-4.8561,-4.8484,-4.7969,-4.7577,-4.737,-4.6855,-4.6456,-4.6221,-4.6221,-4.6263,-4.6407,-4.8467,-4.9341,-4.9365,-4.9897,-5.0112,-5.0049,-4.9577,-4.9395,-4.9347,-4.8834,-4.8983,-4.9287,-4.8472,-4.8538,-4.8837,-4.8079,-4.7808,-4.7751,-4.7751,-4.7735,-4.7717,-4.7717,-4.7717,-4.7717,-4.7717,-4.7717,-4.7717,-4.7717,-4.7717,-4.7717,-4.7717,-4.7717,-4.7717,-4.7717,-4.7717,-4.7717,-4.7717,-4.7717,-4.7717,-4.7717,-4.7717,-4.7699,-4.7717,-4.7699,-4.7717,-4.7741,-4.7741,-4.7801,-4.7945,-4.7943,-4.7966,-4.8032,-4.8012,-4.7992,-4.7992,-4.8032,-4.8032,-4.8032,-4.8053,-4.844,-4.9227,-4.9287,-4.9333,-4.9314,-4.854,-4.8164,-4.0096,-4.0096,-4.0096,-4.0096,-4.0096,-4.0096,-4.0096,-4.0316,-4.0629,0.0,0.0,0.0,0.0,0.0,0.0,0.0,0.0,0.0,0.0,0.0,0.0,0.0,0.0,0.0,0.0,0.0,0.0,0.0,0.0,0.0,-4.6113,-4.6439,-4.6508,-4.621,-4.6611,-4.6714,-4.6456,-4.5949,-4.5655,-4.5554,-4.5371,-4.5234,-4.5133,-4.5133,-4.5133,-4.5194,-4.6282,-4.6923,-4.7261,-4.7453,-4.7542,-4.7554,-4.79,-4.8021,-4.7978,-4.7797,-4.7829,-4.7897,-4.7095,-4.695,-4.7103,-4.7174,-4.7191,-4.7258,-4.7593,-4.7468,-4.7191,-4.7191,-4.6931,-4.6683,-4.6683,-4.6931,-4.728,-4.7615,-4.7717,-4.7717,-4.7717,-4.7717,-4.7717,-4.7717,-4.7717,-4.7717,-4.7717,-4.7717,-4.7717,-4.7717,-4.7717,-4.7717,-4.7717,-4.7717,-4.7717,-4.7717,-4.7717,-4.7717,-4.7759,-4.7759,-4.778,-4.7804,-4.7824,-4.7824,-4.7824,-4.7824,-4.7824,-4.7824,-4.7886,-4.821,-4.8744,-4.876,-4.857,-4.8135,-4.7853,-4.7146,-4.0096,-4.0096,-4.0096,-4.0096,-4.0096,-4.0096,-4.0096,0.0,-4.0248,0.0,0.0,0.0,0.0,0.0,0.0,0.0,0.0,0.0,0.0,0.0,0.0,0.0,0.0,0.0,0.0,0.0,0.0,0.0,0.0,0.0,-4.4558,-4.491,-4.4974,-4.4708,-4.5081,-4.5214,-4.5089,-4.4703,-4.4542,-4.4615,-4.4542,-4.4497,-4.4514,-4.4457,-4.4429,-4.4457,-4.4763,-4.525,-4.5868,-4.6042,-4.6074,-4.6052,-4.6426,-4.6516,-4.6464,-4.63,-4.6352,-4.6421,-4.5873,-4.5817,-4.6024,-4.6382,-4.6519,-4.6548,-4.6908,-4.6799,-4.6548,-4.6548,-4.6334,-4.6074,-4.6049,-4.631,-4.666,-4.7017,-4.7258,-4.7385,-4.7214,-4.7446,-4.7717,-4.7717,-4.7717,-4.7717,-4.7717,-4.7717,-4.7717,-4.7717,-4.7717,-4.7717,-4.7717,-4.7717,-4.7717,-4.7717,-4.7717,-4.7717,-4.7717,-4.7717,-4.7717,-4.7717,-4.7717,-4.7717,-4.7717,-4.7717,-4.7717,-4.7717,-4.7798,-4.7842,-4.7829,-4.7904,-4.7703,-4.7242,-4.6706,-4.5729,0.0,0.0,0.0,-4.0096,-4.0096,-4.0096,-4.0096,0.0,-4.0096,0.0,0.0,0.0,0.0,0.0,0.0,0.0,0.0,0.0,0.0,0.0,0.0,0.0,0.0,0.0,0.0,0.0,0.0,0.0,0.0,-4.3704,-4.3868,-4.3898,-4.4027,-4.4281,-4.4155,-4.4258,-4.457,-4.4395,-4.4395,-4.457,-4.4384,-4.4293,-4.431,-4.4155,-4.4097,-4.4097,-4.4097,-4.4558,-4.5303,-4.5843,-4.595,-4.5817,-4.5276,-4.4974,-4.4801,-4.431,-4.4435,-4.4882,-4.4882,-4.5214,-4.5665,-4.5673,-4.5691,-4.5673,-4.5716,-4.5775,-4.5875,-4.5875,-4.595,-4.6,-4.59,-4.5875,-4.5875,-4.5875,-4.6382,-4.673,-4.6213,-4.6908,-4.7636,-4.7657,-4.7657,-4.7657,-4.7696,-4.7678,-4.7717,-4.7717,-4.7717,-4.7717,-4.7717,-4.7717,-4.7717,-4.7717,-4.7717,-4.7717,-4.7717,-4.7717,-4.7717,-4.7717,-4.7717,-4.7717,-4.7717,-4.7717,-4.7717,-4.7717,-4.7681,-4.7283,-4.6504,-4.6706,-4.6769,-4.6678,-4.5093,-4.3944,-4.0096,0.0,0.0,0.0,0.0,0.0,-4.0096,-4.0096,-4.0096,0.0,0.0,0.0,0.0,0.0,0.0,0.0,0.0,0.0,0.0,0.0,0.0,0.0,0.0,0.0,0.0,0.0,0.0,0.0,-4.3598,-4.3628,-4.3687,-4.3687,-4.3776,-4.3998,-4.3969,-4.4056,-4.4258,-4.4184,-4.4184,-4.4258,-4.4184,-4.4155,-4.4155,-4.4126,-4.4097,-4.4097,-4.4097,-4.4224,-4.4446,-4.4569,-4.4625,-4.4569,-4.4418,-4.435,-4.4293,-4.4155,-4.4196,-4.4321,-4.4321,-4.4435,-4.4614,-4.5018,-4.5135,-4.5197,-4.5588,-4.5459,-4.5188,-4.5188,-4.492,-4.4718,-4.5081,-4.5188,-4.5276,-4.5648,-4.5918,-4.5975,-4.585,-4.6049,-4.631,-4.6501,-4.6776,-4.7017,-4.7107,-4.7428,-4.7717,-4.7717,-4.7717,-4.7717,-4.7717,-4.7717,-4.7717,-4.7717,-4.7717,-4.7717,-4.7717,-4.7717,-4.7717,-4.7717,-4.7717,-4.7717,-4.7717,-4.7717,-4.7717,-4.7717,-4.7138,-4.6721,-4.6504,-4.6565,-4.6027,-4.4979,-4.3942,-4.3341,-4.0096,-4.0096,-4.0096,-4.0096,0.0,0.0,-4.0096,-4.0096,-4.007,0.0,0.0,0.0,0.0,0.0,0.0,0.0,0.0,0.0,0.0,0.0,0.0,0.0,0.0,0.0,0.0,0.0,0.0,0.0,-4.2969,-4.3267,-4.3582,-4.3598,-4.3687,-4.3898,-4.3839,-4.3881,-4.4097,-4.4039,-4.4039,-4.4097,-4.4039,-4.4027,-4.4027,-4.3923,-4.3894,-4.3894,-4.3894,-4.3894,-4.3894,-4.3894,-4.3923,-4.4027,-4.4027,-4.3969,-4.3894,-4.3894,-4.3894,-4.3894,-4.3894,-4.3894,-4.3935,-4.4276,-4.4373,-4.4429,-4.4729,-4.4663,-4.4474,-4.4474,-4.4253,-4.4097,-4.4406,-4.4474,-4.4558,-4.4882,-4.5144,-4.5303,-4.5081,-4.5127,-4.539,-4.585,-4.6123,-4.631,-4.6382,-4.6707,-4.7039,-4.7258,-4.7341,-4.7446,-4.7575,-4.7615,-4.7615,-4.7615,-4.7615,-4.7636,-4.7696,-4.7717,-4.7696,-4.7615,-4.7615,-4.7615,-4.7615,-4.7615,-4.7491,-4.7189,-4.6739,-4.6178,-4.549,-4.549,-4.4877,-4.3703,-4.323,-4.303,-4.0113,-4.0087,-4.0045,-4.0096,-4.007,0.0,-4.0113,-4.007,-4.0037,0.0,0.0,0.0,0.0,0.0,0.0,0.0,0.0,0.0,0.0,0.0,0.0,0.0,0.0,0.0,0.0,0.0,-4.1409,-4.1409,-4.1993,-4.2655,-4.3317,-4.3416,-4.3571,-4.3735,-4.3654,-4.3747,-4.4039,-4.3927,-4.3939,-4.4039,-4.391,-4.3868,-4.3868,-4.3687,-4.3598,-4.3598,-4.3598,-4.3598,-4.3598,-4.3598,-4.3704,-4.3868,-4.3868,-4.3763,-4.3598,-4.3598,-4.3598,-4.3598,-4.3598,-4.3598,-4.3598,-4.3598,-4.3598,-4.3598,-4.3598,-4.3717,-4.3868,-4.3868,-4.3868,-4.3868,-4.3868,-4.3868,-4.3868,-4.3868,-4.4321,-4.4625,-4.4138,-4.4288,-4.4695,-4.5338,-4.552,-4.5571,-4.5614,-4.5749,-4.6024,-4.6519,-4.6683,-4.6908,-4.7258,-4.7302,-4.7323,-4.7385,-4.7341,-4.7363,-4.7554,-4.7511,-4.7446,-4.7302,-4.7302,-4.7302,-4.7302,-4.7363,-4.7068,-4.638,-4.622,-4.5391,-4.3892,-4.3931,-4.3588,-4.2901,-4.2901,-4.2901,0.0,0.0,0.0,0.0,0.0,0.0,-4.0087,-4.0011,-3.9926,0.0,0.0,0.0,0.0,0.0,0.0,0.0,0.0,0.0,0.0,0.0,0.0,0.0,0.0,0.0,0.0,0.0,-4.1409,-4.1409,-4.1541,-4.1662,-4.1811,-4.2373,-4.2734,-4.2763,-4.3313,-4.3628,-4.3717,-4.3658,-4.3658,-4.3717,-4.3658,-4.3658,-4.3658,-4.3628,-4.3598,-4.3598,-4.3598,-4.3598,-4.3598,-4.3598,-4.3628,-4.3658,-4.3658,-4.3628,-4.3598,-4.3598,-4.3598,-4.3598,-4.3598,-4.3598,-4.3598,-4.3598,-4.3598,-4.3598,-4.3598,-4.3628,-4.3658,-4.3658,-4.3658,-4.3658,-4.3658,-4.3658,-4.3658,-4.3658,-4.3759,-4.3802,-4.3717,-4.3759,-4.386,-4.3989,-4.4451,-4.4858,-4.5028,-4.5433,-4.5775,-4.5875,-4.5918,-4.595,-4.6024,-4.6049,-4.6213,-4.666,-4.631,-4.6238,-4.6707,-4.6334,-4.6074,-4.6049,-4.6049,-4.6049,-4.6049,-4.6454,-4.6333,-4.5551,-4.4478,-4.3474,-4.257,-4.2946,-4.3064,-4.2901,-4.2901,-4.2901,0.0,0.0,0.0,-3.9884,0.0,0.0,0.0,-3.9858,-3.9798,0.0,0.0,0.0,0.0,0.0,0.0,0.0,0.0,0.0,0.0,0.0,0.0,0.0,0.0,0.0,0.0,0.0,-4.0498,-4.0862,-4.0895,-4.1044,-4.1364,-4.1728,-4.1943,-4.1943,-4.2655,-4.3035,-4.3035,-4.3416,-4.3598,-4.3598,-4.3598,-4.3598,-4.3598,-4.3598,-4.3598,-4.3598,-4.3598,-4.3598,-4.3598,-4.3598,-4.3598,-4.3598,-4.3598,-4.3598,-4.3598,-4.3598,-4.3598,-4.3598,-4.3598,-4.3598,-4.3598,-4.3598,-4.3598,-4.3598,-4.3598,-4.3598,-4.3598,-4.3598,-4.3598,-4.3598,-4.3598,-4.3598,-4.3598,-4.3598,-4.3598,-4.3598,-4.3598,-4.3598,-4.3598,-4.3598,-4.3873,-4.4128,-4.4231,-4.4569,-4.4865,-4.5127,-4.5233,-4.5381,-4.5571,-4.5614,-4.5699,-4.5975,-4.5749,-4.5742,-4.6074,-4.585,-4.5673,-4.5597,-4.5614,-4.5614,-4.5614,-4.585,-4.5481,-4.4378,-4.2941,-4.2022,-4.1639,-4.1874,-4.2302,-4.2901,-4.288,-4.2862,0.0,0.0,0.0,0.0,0.0,-3.9677,0.0,0.0,0.0,0.0,0.0,0.0,0.0,0.0,0.0,0.0,0.0,0.0,0.0,0.0,0.0,0.0,0.0,0.0,0.0,0.0,-3.9547,-4.0144,-4.0194,-4.0415,-4.0978,-4.1143,-4.1226,-4.1226,-4.1922,-4.2357,-4.2489,-4.3085,-4.3449,-4.3598,-4.3598,-4.3598,-4.3598,-4.3598,-4.3598,-4.3598,-4.3598,-4.3598,-4.3598,-4.3598,-4.3598,-4.3598,-4.3598,-4.3598,-4.3598,-4.3598,-4.3598,-4.3598,-4.3598,-4.3598,-4.3598,-4.3598,-4.3598,-4.3598,-4.3598,-4.3598,-4.3598,-4.3598,-4.3598,-4.3598,-4.3598,-4.3598,-4.3598,-4.3598,-4.3598,-4.3598,-4.3598,-4.3598,-4.3598,-4.3598,-4.3598,-4.3598,-4.3598,-4.3734,-4.3964,-4.4367,-4.4535,-4.4773,-4.5091,-4.5144,-4.5171,-4.5303,-4.5197,-4.5206,-4.5459,-4.5364,-4.5233,-4.5144,-4.5144,-4.5144,-4.5144,-4.5112,-4.4475,-4.3242,-4.1862,-4.1082,-4.0967,-4.0967,-4.1573,-4.2692,-4.2554,-4.2554,0.0,0.0,0.0,0.0,-3.9616,0.0,0.0,0.0,-3.9528,-3.9501,0.0,0.0,0.0,0.0,0.0,0.0,0.0,0.0,0.0,0.0,0.0,0.0,0.0,0.0,0.0,0.0,0.0,-3.9431,-3.9431,-3.9464,-3.9531,-4.016,-4.0525,-4.0525,-4.1177,-4.1827,-4.2489,-4.2572,-4.2936,-4.3598,-4.3598,-4.3598,-4.3598,-4.3598,-4.3598,-4.3598,-4.3598,-4.3598,-4.3598,-4.3598,-4.3598,-4.3598,-4.3598,-4.3598,-4.3598,-4.3598,-4.3598,-4.3598,-4.3598,-4.3598,-4.3598,-4.3598,-4.3598,-4.3598,-4.3598,-4.3598,-4.3598,-4.3598,-4.3598,-4.3598,-4.3598,-4.3598,-4.3598,-4.3598,-4.3598,-4.3598,-4.3598,-4.3598,-4.3598,-4.3598,-4.3598,-4.3598,-4.3598,-4.3628,-4.3658,-4.37,-4.373,-4.3743,-4.3802,-4.3802,-4.4035,-4.4541,-4.4133,-4.4047,-4.4597,-4.4133,-4.3831,-4.3802,-4.3802,-4.3802,-4.3802,-4.3637,-4.325,-4.2611,-4.1742,-4.1024,-4.0497,-4.0497,-4.1024,-4.2008,-4.1508,-4.1547,0.0,0.0,0.0,0.0,0.0,0.0,-3.9458,0.0,-3.9379,0.0,0.0,0.0,0.0,0.0,0.0,0.0,0.0,0.0,0.0,0.0,0.0,0.0,0.0,0.0,0.0,0.0,0.0,0.0,0.0,-3.9299,-3.9299,-3.9597,-3.9763,-3.9763,-4.0431,-4.0961,-4.1276,-4.2104,-4.2655,-4.2969,-4.34,-4.3598,-4.3598,-4.3598,-4.3598,-4.3598,-4.3598,-4.3598,-4.3598,-4.3598,-4.3598,-4.3598,-4.3598,-4.3598,-4.3598,-4.3598,-4.3598,-4.3598,-4.3598,-4.3598,-4.3598,-4.3598,-4.3598,-4.3598,-4.3598,-4.3598,-4.3598,-4.3598,-4.3598,-4.3598,-4.3598,-4.3598,-4.3598,-4.3598,-4.3598,-4.3598,-4.3598,-4.3598,-4.3598,-4.3598,-4.3598,-4.3598,-4.3598,-4.3598,-4.3598,-4.3598,-4.3598,-4.3598,-4.3598,-4.3598,-4.3717,-4.3948,-4.3759,-4.37,-4.3964,-4.3759,-4.3598,-4.3598,-4.3598,-4.3598,-4.3598,-4.3103,-4.2523,-4.1881,-4.1144,-4.0433,-3.9773,-3.9773,-4.012,-4.0797,-4.0943,-4.115,-4.1678,0.0,0.0,0.0,0.0,0.0,0.0,0.0,0.0,0.0,0.0,0.0,0.0,0.0,0.0,0.0,0.0,0.0,0.0,0.0,0.0,0.0,0.0,0.0,0.0,0.0,0.0,0.0,0.0,0.0,-3.9299,-3.9299,-3.9299,-3.9299,-3.9829,-4.021,-4.0409,-4.1409,-4.2137,-4.2489,-4.3035,-4.34,-4.3598,-4.3598,-4.3598,-4.3598,-4.3598,-4.3598,-4.3598,-4.3598,-4.3598,-4.3598,-4.3598,-4.3598,-4.3598,-4.3598,-4.3598,-4.3598,-4.3598,-4.3598,-4.3598,-4.3598,-4.3598,-4.3598,-4.3598,-4.3598,-4.3598,-4.3598,-4.3598,-4.3598,-4.3598,-4.3598,-4.3598,-4.3598,-4.3598,-4.3598,-4.3598,-4.3598,-4.3598,-4.3598,-4.3598,-4.3598,-4.3598,-4.3598,-4.3598,-4.3598,-4.3598,-4.3598,-4.3598,-4.3598,-4.3598,-4.3598,-4.3598,-4.3598,-4.3598,-4.3598,-4.3598,-4.3598,-4.3598,-4.3598,-4.3598,-4.3085,-4.2357,-4.1425,-4.0928,-4.0227,-3.9299,-3.9299,-3.9494,-3.9817,-4.026,-4.059,0.0,0.0,0.0,-4.1205,0.0,0.0,0.0,0.0,-3.9121,0.0,0.0,0.0,0.0,0.0,-3.8307,-3.8239,0.0,0.0,0.0,0.0,0.0,0.0,0.0,0.0,0.0,0.0,0.0,0.0,0.0,0.0,-3.9299,-3.9299,-3.9299,-3.9299,-3.9315,-3.968,-4.0393,-4.0442,-4.1143,-4.2489,-4.2506,-4.2903,-4.3598,-4.3598,-4.3598,-4.3598,-4.3598,-4.3598,-4.3598,-4.3598,-4.3598,-4.3598,-4.3598,-4.3598,-4.3598,-4.3598,-4.3598,-4.3598,-4.3598,-4.3598,-4.3598,-4.3598,-4.3598,-4.3598,-4.3598,-4.3598,-4.3598,-4.3598,-4.3598,-4.3598,-4.3598,-4.3598,-4.3598,-4.3598,-4.3598,-4.3598,-4.3598,-4.3598,-4.3598,-4.3598,-4.3598,-4.3598,-4.3598,-4.3598,-4.3598,-4.3598,-4.3598,-4.3598,-4.3598,-4.3598,-4.3598,-4.3598,-4.3598,-4.3598,-4.3598,-4.3598,-4.3598,-4.3598,-4.3598,-4.3598,-4.3598,-4.3582,-4.287,-4.1413,-4.1364,-4.068,-3.9299,-3.9299,-3.9299,-3.9325,-3.9352,-3.9592,0.0,0.0,-4.1609,-4.0899,0.0,0.0,0.0,0.0,0.0,0.0,0.0,0.0,0.0,0.0,-3.8298,-3.828,-3.8848,-3.9216,0.0,0.0,0.0,0.0,0.0,0.0,0.0,0.0,0.0,0.0,0.0,0.0,0.0,-3.9299,-3.9299,-3.9299,-3.9299,-3.9431,-3.968,-4.016,-4.0862,-4.1761,-4.2258,-4.2886,-4.3598,-4.3598,-4.3598,-4.3598,-4.3598,-4.3598,-4.3598,-4.3598,-4.3342,-4.2943,-4.2943,-4.2943,-4.3005,-4.3432,-4.3598,-4.3598,-4.3598,-4.3598,-4.3598,-4.3598,-4.3598,-4.3598,-4.3598,-4.3598,-4.3492,-4.3066,-4.2943,-4.2851,-4.2349,-4.2585,-4.2943,-4.2943,-4.3204,-4.3372,-4.3005,-4.2834,-4.2772,-4.2912,-4.2943,-4.3066,-4.3522,-4.3598,-4.3598,-4.3598,-4.3598,-4.3598,-4.3598,-4.3598,-4.3598,-4.3598,-4.3598,-4.3598,-4.3598,-4.3598,-4.3598,-4.3598,-4.3598,-4.3598,-4.3598,-4.3598,-4.2903,-4.1413,-4.1409,-4.0713,-3.9299,-3.9299,-3.9299,-3.9299,-3.9299,-3.9388,-4.3066,-4.2554,0.0,-4.1326,-4.0626,0.0,-3.9482,0.0,0.0,0.0,0.0,0.0,0.0,0.0,-3.7706,-3.7937,-3.8339,-3.8606,0.0,-3.8238,0.0,0.0,0.0,0.0,0.0,0.0,0.0,0.0,0.0,0.0,0.0,0.0,-3.9299,-3.9299,-3.9299,-3.9299,-3.9299,-3.9779,-4.0464,-4.1425,-4.1877,-4.2622,-4.3598,-4.3598,-4.3462,-4.3235,-4.3235,-4.3113,-4.2834,-4.2834,-4.2569,-4.2094,-4.2094,-4.2062,-4.2078,-4.2943,-4.3402,-4.3598,-4.3539,-4.3539,-4.3509,-4.3235,-4.3143,-4.3096,-4.2896,-4.2834,-4.2707,-4.1963,-4.1949,-4.1949,-4.1161,-4.1483,-4.1981,-4.1981,-4.2237,-4.2411,-4.2078,-4.1885,-4.1852,-4.2062,-4.2094,-4.2237,-4.2678,-4.2756,-4.2958,-4.3522,-4.3598,-4.3598,-4.3598,-4.3598,-4.3598,-4.3539,-4.3568,-4.3598,-4.3598,-4.3598,-4.3598,-4.3539,-4.3539,-4.3509,-4.3432,-4.3432,-4.2901,-4.1725,-4.1444,-4.079,-3.9696,-3.9377,-3.9175,-3.9175,-3.9175,-3.9175]},{"header":{"parameterUnit":"m.s-1","parameterCategory":1,"la1":30.6,"la2":29.2853,"lo1":-89.7004,"lo2":-87.6739,"dy":0.0162,"dx":0.0183,"nx":112,"ny":82,"refTime":"2024-04-09T06:00:00:Z","depth":0,"parameterNumber":3,"parameterNumberName":"V-component_of_WINDS"},"data":[0.0,0.0,0.0,0.0,0.0,0.0,0.0,0.0,0.0,0.0,0.0,0.0,0.0,0.0,0.0,0.0,0.0,0.0,0.0,0.0,0.0,0.0,0.0,0.0,0.0,0.0,0.0,0.0,0.0,0.0,0.0,0.0,0.0,0.0,0.0,0.0,0.0,0.0,0.0,0.0,0.0,0.0,0.0,0.0,0.0,0.0,0.0,0.0,0.0,0.0,0.0,0.0,0.0,0.0,0.0,0.0,0.0,0.0,0.0,0.0,0.0,0.0,0.0,0.0,0.0,0.0,0.0,0.0,0.0,0.0,0.0,0.0,0.0,0.0,0.0,0.0,0.0,0.0,0.0,0.0,0.0,0.0,0.0,0.0,0.0,0.0,0.0,0.0,0.0,0.0,-0.7065,-0.6377,-0.63,-0.63,-0.63,-0.63,-0.63,-0.63,0.0,0.0,0.0,0.0,0.0,0.0,0.0,0.0,0.0,0.0,0.0,0.0,0.0,0.0,0.0,0.0,0.0,0.0,0.0,0.0,0.0,0.0,0.0,0.0,0.0,0.0,0.0,0.0,0.0,0.0,0.0,0.0,0.0,0.0,0.0,0.0,0.0,0.0,0.0,0.0,0.0,0.0,0.0,0.0,0.0,0.0,0.0,0.0,0.0,0.0,0.0,0.0,0.0,0.0,0.0,0.0,0.0,0.0,0.0,0.0,0.0,0.0,0.0,0.0,0.0,0.0,0.0,0.0,0.0,0.0,0.0,0.0,0.0,0.0,0.0,0.0,0.0,0.0,0.0,0.0,0.0,0.0,0.0,0.0,0.0,0.0,0.0,0.0,0.0,0.0,0.0,0.0,0.0,0.0,0.0,0.0,0.0,0.0,0.0,0.0,0.0,0.0,0.0,0.0,-0.6454,-0.63,-0.63,-0.63,-0.63,-0.63,-0.63,-0.63,0.0,0.0,0.0,0.0,0.0,0.0,0.0,0.0,0.0,0.0,0.0,0.0,0.0,0.0,0.0,0.0,0.0,0.0,0.0,0.0,0.0,0.0,0.0,0.0,0.0,0.0,0.0,0.0,0.0,0.0,0.0,0.0,0.0,0.0,0.0,0.0,0.0,0.0,0.0,0.0,0.0,0.0,0.0,0.0,0.0,0.0,0.0,0.0,0.0,0.0,0.0,0.0,0.0,0.0,0.0,0.0,0.0,0.0,0.0,0.0,0.0,0.0,0.0,0.0,0.0,0.0,0.0,0.0,0.0,0.0,0.0,0.0,0.0,0.0,0.0,0.0,0.0,0.0,0.0,0.0,0.0,0.0,0.0,0.0,0.0,0.0,0.0,0.0,0.0,0.0,0.0,0.0,0.0,0.0,0.0,0.0,0.0,0.0,0.0,0.0,0.0,0.0,0.0,-0.6911,-0.6795,-0.6338,-0.63,-0.63,-0.63,-0.63,-0.63,-0.63,-0.6374,0.0,0.0,0.0,0.0,0.0,0.0,0.0,0.0,0.0,0.0,0.0,0.0,0.0,0.0,0.0,0.0,0.0,0.0,0.0,0.0,0.0,0.0,0.0,0.0,0.0,0.0,0.0,0.0,0.0,0.0,0.0,0.0,0.0,0.0,0.0,0.0,0.0,0.0,0.0,0.0,0.0,0.0,0.0,0.0,0.0,0.0,0.0,0.0,0.0,0.0,0.0,0.0,0.0,0.0,0.0,0.0,0.0,0.0,0.0,0.0,0.0,0.0,0.0,0.0,0.0,0.0,0.0,0.0,0.0,0.0,0.0,0.0,0.0,0.0,0.0,0.0,0.0,0.0,0.0,0.0,0.0,0.0,0.0,0.0,0.0,0.0,0.0,0.0,0.0,0.0,0.0,0.0,0.0,0.0,0.0,0.0,0.0,0.0,0.0,0.0,0.0,0.0,-0.6834,-0.6988,-0.6377,-0.63,-0.63,-0.63,-0.63,-0.63,-0.63,-0.6338,0.0,0.0,0.0,0.0,0.0,0.0,0.0,0.0,0.0,0.0,0.0,0.0,0.0,0.0,0.0,0.0,0.0,0.0,0.0,0.0,0.0,0.0,0.0,0.0,0.0,0.0,0.0,0.0,0.0,0.0,0.0,0.0,0.0,0.0,0.0,0.0,0.0,0.0,0.0,0.0,0.0,0.0,0.0,0.0,0.0,0.0,0.0,0.0,0.0,0.0,0.0,0.0,0.0,0.0,0.0,0.0,0.0,0.0,0.0,0.0,0.0,0.0,0.0,0.0,0.0,0.0,0.0,0.0,0.0,0.0,0.0,0.0,0.0,0.0,0.0,0.0,0.0,0.0,0.0,0.0,0.0,0.0,0.0,0.0,0.0,0.0,0.0,0.0,0.0,0.0,0.0,0.0,0.0,0.0,0.0,0.0,0.0,0.0,0.0,0.0,0.0,0.0,-0.6338,-0.6377,-0.63,-0.63,-0.63,-0.63,-0.63,-0.63,-0.63,-0.649,0.0,0.0,0.0,0.0,0.0,0.0,0.0,0.0,0.0,0.0,0.0,0.0,0.0,0.0,0.0,0.0,0.0,0.0,0.0,0.0,0.0,0.0,0.0,0.0,0.0,0.0,0.0,0.0,0.0,0.0,0.0,0.0,0.0,0.0,0.0,0.0,0.0,0.0,0.0,0.0,0.0,0.0,0.0,0.0,0.0,0.0,0.0,0.0,0.0,0.0,0.0,0.0,0.0,0.0,0.0,0.0,0.0,0.0,0.0,0.0,0.0,0.0,0.0,0.0,0.0,0.0,0.0,0.0,0.0,0.0,0.0,0.0,0.0,0.0,0.0,0.0,0.0,0.0,0.0,0.0,0.0,0.0,0.0,0.0,0.0,0.0,0.0,0.0,0.0,0.0,0.0,0.0,0.0,0.0,0.0,0.0,0.0,0.0,0.0,0.0,0.0,0.0,-0.6721,-0.6872,0.0,-0.63,-0.63,-0.63,-0.63,-0.63,-0.63,0.0,0.0,0.0,0.0,0.0,0.0,0.0,0.0,0.0,0.0,0.0,0.0,0.0,0.0,0.0,0.0,0.0,0.0,0.0,0.0,0.0,0.0,0.0,0.0,0.0,0.0,0.0,0.0,0.0,0.0,0.0,0.0,0.0,0.0,0.0,0.0,0.0,0.0,0.0,0.0,0.0,0.0,0.0,0.0,0.0,0.0,0.0,0.0,0.0,0.0,0.0,0.0,0.0,0.0,0.0,0.0,0.0,0.0,0.0,0.0,0.0,0.0,0.0,0.0,0.0,0.0,0.0,0.0,0.0,0.0,0.0,0.0,0.0,0.0,0.0,0.0,0.0,0.0,0.0,0.0,0.0,0.0,0.0,0.0,0.0,0.0,0.0,0.0,0.0,0.0,0.0,0.0,0.0,0.0,0.0,0.0,0.0,0.0,0.0,0.0,0.0,0.0,-0.6377,-0.6795,-0.6911,0.0,-0.63,-0.63,-0.63,-0.63,-0.63,-0.63,0.0,0.0,0.0,0.0,0.0,0.0,0.0,0.0,0.0,0.0,0.0,0.0,0.0,0.0,0.0,0.0,0.0,0.0,0.0,0.0,0.0,0.0,0.0,0.0,0.0,0.0,0.0,0.0,0.0,0.0,0.0,0.0,0.0,0.0,0.0,0.0,0.0,0.0,0.0,0.0,0.0,0.0,0.0,0.0,0.0,0.0,0.0,0.0,0.0,0.0,0.0,0.0,0.0,0.0,0.0,0.0,0.0,0.0,0.0,0.0,0.0,0.0,0.0,0.0,0.0,0.0,0.0,0.0,0.0,0.0,0.0,0.0,0.0,0.0,0.0,0.0,0.0,0.0,0.0,0.0,0.0,0.0,0.0,0.0,0.0,0.0,0.0,0.0,0.0,0.0,0.0,0.0,0.0,0.0,0.0,0.0,0.0,0.0,0.0,0.0,0.0,0.0,-0.63,-0.63,-0.63,-0.63,-0.63,-0.63,-0.63,-0.63,-0.63,0.0,0.0,0.0,0.0,0.0,0.0,0.0,0.0,0.0,0.0,0.0,0.0,0.0,0.0,0.0,0.0,0.0,0.0,0.0,0.0,0.0,0.0,0.0,0.0,0.0,0.0,0.0,0.0,0.0,0.0,0.0,0.0,0.0,0.0,0.0,0.0,0.0,0.0,0.0,0.0,0.0,0.0,0.0,0.0,0.0,0.0,0.0,0.0,0.0,0.0,0.0,0.0,0.0,0.0,0.0,0.0,0.0,0.0,0.0,0.0,0.0,0.0,0.0,0.0,0.0,0.0,0.0,0.0,0.0,0.0,0.0,0.0,0.0,0.0,0.0,0.0,0.0,0.0,0.0,0.0,0.0,0.0,0.0,0.0,0.0,0.0,0.0,0.0,0.0,0.0,0.0,0.0,0.0,0.0,0.0,0.0,0.0,0.0,0.0,0.0,0.0,0.0,0.0,-0.63,-0.63,-0.63,-0.63,-0.63,-0.63,-0.63,-0.63,-0.63,-0.63,0.0,0.0,0.0,0.0,0.0,0.0,0.0,0.0,0.0,0.0,0.0,0.0,0.0,0.0,0.0,0.0,0.0,0.0,0.0,0.0,0.0,0.0,0.0,0.0,0.0,0.0,0.0,0.0,0.0,0.0,0.0,0.0,0.0,0.0,0.0,0.0,0.0,0.0,0.0,0.0,0.0,0.0,0.0,0.0,0.0,0.0,0.0,0.0,0.0,0.0,0.0,0.0,0.0,0.0,0.0,0.0,0.0,0.0,0.0,0.0,0.0,0.0,0.0,0.0,0.0,0.0,0.0,0.0,0.0,0.0,0.0,0.0,0.0,0.0,0.0,0.0,0.0,0.0,0.0,0.0,0.0,0.0,0.0,0.0,0.0,0.0,0.0,0.0,0.0,0.0,0.0,0.0,0.0,0.0,0.0,0.0,0.0,0.0,0.0,0.0,0.0,0.0,-0.63,-0.63,-0.63,-0.63,-0.63,-0.63,-0.63,-0.63,-0.63,-0.63,0.0,0.0,0.0,0.0,0.0,0.0,0.0,0.0,0.0,0.0,0.0,0.0,0.0,0.0,0.0,0.0,0.0,0.0,0.0,0.0,0.0,0.0,0.0,0.0,0.0,0.0,0.0,0.0,0.0,0.0,0.0,0.0,0.0,0.0,0.0,0.0,0.0,0.0,0.0,0.0,0.0,0.0,0.0,0.0,0.0,0.0,0.0,0.0,0.0,0.0,0.0,0.0,0.0,0.0,0.0,0.0,0.0,0.0,0.0,0.0,0.0,0.0,0.0,0.0,0.0,0.0,0.0,0.0,0.0,0.0,0.0,0.0,0.0,0.0,0.0,0.0,0.0,0.0,0.0,0.0,0.0,0.0,0.0,0.0,0.0,0.0,0.0,0.0,0.0,0.0,0.0,0.0,0.0,0.0,0.0,0.0,0.0,0.0,0.0,0.0,0.0,0.0,-0.63,-0.63,-0.63,-0.63,-0.63,-0.63,-0.63,-0.63,-0.63,-0.63,0.0,0.0,0.0,0.0,0.0,0.0,0.0,0.0,0.0,0.0,0.0,0.0,0.0,0.0,0.0,0.0,0.0,0.0,0.0,0.0,0.0,0.0,0.0,0.0,0.0,0.0,0.0,0.0,0.0,0.0,0.0,0.0,0.0,0.0,0.0,0.0,0.0,0.0,0.0,0.0,0.0,0.0,0.0,0.0,0.0,0.0,0.0,0.0,0.0,0.0,0.0,0.0,0.0,0.0,0.0,0.0,0.0,0.0,0.0,0.0,0.024,0.0,0.0,0.0,0.0,0.0,0.0,0.0,0.0,0.0,0.0,0.0,0.0,0.0,0.0,0.0,0.0,0.0,0.0,0.0,0.0,0.0,0.0,0.0,0.0,0.0,0.0,0.0,0.0,0.0,0.0,0.0,0.0,0.0,0.0,0.0,0.0,0.0,0.0,0.0,0.0,0.0,-0.63,-0.63,-0.63,-0.63,-0.63,-0.63,-0.63,-0.63,-0.63,-0.63,-0.63,0.0,0.0,0.0,0.0,0.0,0.0,0.0,0.0,0.0,0.0,0.0,0.0,0.0,0.0,0.0,0.0,0.0,0.0,0.0,0.0,0.0,0.0,0.0,0.0,0.0,0.0,0.0,0.0,0.0,0.0,0.0,0.0,0.0,0.0,0.0,0.0,0.0,0.0,0.0,0.0,0.0,0.0,0.0,0.0,0.0,0.0,0.0,0.0,0.0,0.0,0.0,0.0,0.0,0.0,0.0,0.0,0.0,0.0,0.0,0.0,0.0203,0.0,0.0,0.0,0.0,0.0,0.0,0.0,0.0,0.0,0.0,0.0,0.0,0.0,0.0,0.0,0.0,0.0,0.0,0.0,0.0,0.0,0.0,0.0,0.0,0.0,0.0,0.0,0.0,0.0,0.0,0.0,0.0,0.0,0.0,0.0,0.0,0.0,0.0,0.0,0.0,-0.63,-0.63,-0.63,-0.63,-0.63,-0.63,-0.63,-0.63,-0.63,-0.63,-0.63,0.0,0.0,0.0,0.0,0.0,0.0,0.0,0.0,0.0,0.0,0.0,0.0,0.0,0.0,0.0,0.0,0.0,0.0,0.0,0.0,0.0,0.0,0.0,0.0,0.0,0.0,0.0,0.0,0.0,0.0,0.0,0.0,0.0,0.0,0.0,0.0,0.0,0.0,0.0,0.0,0.0,0.0,0.0,0.0,0.0,0.0,0.0,0.0,0.0,0.0,0.0,0.0,0.0,0.0,0.0818,0.0818,0.0818,0.0818,0.0818,0.0646,0.047,0.0378,0.0,0.0,0.0,0.0,0.0,0.0,0.0,0.0,0.0,0.0,0.0,0.0,0.0,0.0,0.0,0.0,0.0,0.0,0.0,0.0,0.0,0.0,0.0,0.0,0.0,-0.5429,-0.5426,0.0,0.0,0.0,0.0,0.0,0.0,0.0,0.0,0.0,0.0,0.0,0.0,-0.6378,-0.6378,-0.6378,-0.6378,-0.6378,-0.6364,-0.6337,-0.6337,-0.6327,-0.6303,-0.63,-0.63,0.0,0.0,0.0,0.0,0.0,0.0,0.0,0.0,0.0,0.0,0.0,0.0,0.0,0.0,0.0,0.0,0.0,0.0,0.0,0.0,0.0,0.0,0.0,0.0,0.0,0.0,0.0,0.0,0.0,0.0,0.0,0.0,0.6239,0.5441,0.0,0.0,0.0,0.0,0.0,0.0,0.0,0.0,0.0,0.0,0.0,0.0,0.0,0.0,0.2603,0.1814,0.1408,0.1408,0.1408,0.1408,0.1408,0.1408,0.1408,0.1362,0.1174,0.0,0.0379,0.0126,0.0,0.0,0.0,0.0,0.0,0.0,0.0,0.0,0.0,0.0,0.0,0.0,0.0,0.0,0.0,0.0,0.0,0.0,0.0,0.0,0.0,0.0,-0.5405,-0.5405,-0.5405,-0.5487,0.0,-0.6093,-0.6171,-0.6211,0.0,0.0,0.0,0.0,0.0,0.0,0.0,0.0,-0.6641,-0.6641,-0.6641,-0.6641,-0.6641,-0.6586,-0.6497,-0.6484,-0.6429,-0.6306,-0.63,-0.63,-0.63,-0.6338,0.0,0.0,0.0,0.0,0.0,0.0,0.0,0.0,0.0,0.0,0.0,0.0,0.0,0.0,0.0,0.0,0.0,0.0,0.0,0.0,0.0,0.0,0.0,0.0,0.0,0.0,0.0,0.0,0.0,0.6906,0.6774,0.6427,0.638,0.6251,0.0,0.0,0.0,0.0,0.0,0.0,0.0,0.0,0.0,0.2735,0.234,0.2117,0.2117,0.1728,0.1551,0.1552,0.1569,0.1478,0.133,0.1315,0.1212,0.1017,0.0815,0.0608,0.0407,0.0268,0.0133,0.0,0.0,0.0,0.0,0.0,0.0,0.0,0.0,0.0,0.0,0.0,0.0,0.0,0.0,0.0,0.0,0.0,0.0,0.0,0.0,0.0,0.0,-0.541,-0.541,-0.5452,-0.5618,-0.5838,-0.6079,0.0,-0.6372,-0.6456,-0.6456,0.0,0.0,0.0,0.0,0.0,-0.6702,-0.6702,-0.6702,-0.6702,-0.6702,-0.6675,-0.6607,-0.6562,-0.6484,-0.6422,-0.6344,-0.63,-0.63,-0.6412,-0.6795,0.0,0.0,0.0,0.0,0.0,0.0,0.0,0.0,0.0,0.0,0.0,0.0,0.0,0.0,0.0,0.0,0.0,0.0,0.0,0.0,0.0,0.0,0.0,0.0,0.0,0.0,0.0,0.0,0.7095,0.7095,0.7095,0.7095,0.7112,0.0,0.0,0.0,0.0,0.0,0.0,0.4185,0.4214,0.3781,0.2685,0.247,0.224,0.1901,0.1739,0.1605,0.1606,0.1628,0.1537,0.1331,0.1263,0.1104,0.0853,0.0593,0.0441,0.0389,0.033,0.0186,0.0,0.0,0.0,0.0,0.0,0.0,0.0,0.0,0.0,0.0,0.0,0.0,-0.1346,-0.1346,0.0,0.0,0.0,0.0,-0.3947,-0.4292,0.0,-0.4944,-0.4813,-0.4985,-0.5203,-0.5249,-0.5662,-0.6066,0.0,-0.6285,-0.6353,-0.6398,0.0,0.0,0.0,0.0,-0.6814,-0.6814,-0.6814,-0.6814,-0.6814,-0.6814,-0.68,-0.6763,-0.6654,-0.6556,-0.6518,-0.6412,-0.6337,-0.6303,-0.6451,-0.6718,-0.7176,0.0,0.0,0.0,0.0,0.0,0.0,0.0,0.0,0.0,0.0,0.0,0.0,0.0,0.0,0.0,0.0,0.0,0.0,0.0,0.0,0.0,0.0,0.0,0.0,0.0,0.0,0.0,0.0,0.0,0.7095,0.7095,0.0,0.0,0.0,0.0,0.752,0.749,0.7493,0.7352,0.748,0.7018,0.5805,0.5102,0.4171,0.3042,0.2154,0.1697,0.1697,0.1699,0.1699,0.1646,0.1434,0.1275,0.1275,0.0903,0.0631,0.036,0.0146,0.0,0.0,0.0,0.0,0.0,0.0,0.0,0.0,0.0,0.0,0.0,0.0,-0.0615,-0.1371,-0.1371,-0.208,0.0,0.0,-0.2221,-0.274,-0.1843,-0.2315,-0.3023,-0.3023,-0.3824,-0.4581,-0.4772,-0.5623,-0.6273,0.0,-0.6194,-0.6454,-0.6729,0.0,-0.6858,-0.7031,-0.7071,-0.7071,-0.7071,-0.7071,-0.7071,-0.7071,-0.7071,-0.7018,-0.6886,-0.6866,-0.678,-0.6528,-0.6504,-0.6443,-0.6306,-0.63,-0.6338,-0.6377,-0.7326,0.0,0.0,0.0,0.0,0.0,0.0,0.0,0.0,0.0,0.0,0.0,0.0,0.0,0.0,0.0,0.0,0.0,0.0,0.0,0.0,0.0,0.0,0.0,0.0,0.0,0.0,0.0,0.0,0.7424,0.7434,0.0,0.7512,0.76,0.7678,0.7733,0.7919,0.7726,0.7071,0.7143,0.6702,0.5572,0.4547,0.3793,0.3373,0.2308,0.1788,0.1788,0.1753,0.1652,0.1431,0.1362,0.1084,0.0705,0.059,0.0372,0.0158,0.0052,0.0,0.0,0.0,0.0,0.0,0.0,0.0,0.0,0.0,0.0,0.0,0.0,-0.0238,-0.0476,-0.0476,-0.0762,-0.1095,-0.1332,-0.1665,-0.1997,-0.2282,-0.2614,-0.2899,-0.2899,-0.3183,-0.3468,-0.3564,-0.4417,-0.5143,-0.5034,-0.5736,-0.6412,-0.6507,-0.6694,-0.6882,-0.7106,-0.7293,-0.74,-0.7302,-0.7288,-0.7251,-0.7105,-0.7095,-0.7075,-0.7024,-0.694,-0.6839,-0.6773,-0.658,-0.6491,-0.6436,-0.6351,-0.63,-0.63,-0.6644,-0.7403,0.0,0.0,0.0,0.0,0.0,0.0,0.0,0.0,0.0,0.0,0.0,0.0,0.0,0.0,0.0,0.0,0.0,0.0,0.0,0.0,0.0,0.0,0.0,0.0,0.0,0.0,0.7641,0.7651,0.7672,0.7712,0.7814,0.7909,0.7987,0.8035,0.8225,0.8078,0.7343,0.7419,0.7012,0.5892,0.5122,0.4329,0.3519,0.2793,0.2205,0.1821,0.1785,0.1683,0.1458,0.133,0.1103,0.0717,0.0491,0.0325,0.0108,0.0054,0.0,0.0,0.0,0.0,0.0,0.0,0.0,0.0,0.0,0.0,0.0,0.0,0.0,0.0,0.0,0.0,-0.0146,-0.0729,-0.0922,-0.1068,-0.1747,-0.194,-0.194,-0.194,-0.2183,-0.2473,-0.2473,-0.3297,-0.4168,-0.4508,-0.5513,-0.6317,-0.6408,-0.6552,-0.6791,-0.7164,-0.7359,-0.7466,-0.7461,-0.7448,-0.7387,-0.7234,-0.7217,-0.7152,-0.7102,-0.7011,-0.6937,-0.6889,-0.6739,-0.658,-0.6515,-0.6422,-0.6351,-0.6303,-0.63,-0.7176,-0.8998,0.0,0.0,0.0,0.0,0.0,0.0,0.0,0.0,0.0,0.0,0.0,0.0,0.0,0.0,0.0,0.0,0.0,0.0,0.0,0.0,0.0,0.0,0.0,0.8074,0.803,0.7946,0.7856,0.7828,0.795,0.8299,0.8333,0.834,0.8479,0.8492,0.8496,0.8496,0.8635,0.8173,0.6975,0.7037,0.598,0.3692,0.3636,0.2967,0.1795,0.1795,0.1795,0.1795,0.1458,0.129,0.129,0.0673,0.0445,0.0384,0.011,0.0,0.0,0.0,0.0,0.0,0.0,0.0,0.0,0.0,0.0,0.0,0.0,0.0,0.0,0.0,0.0,0.0,0.0,0.0,0.0,0.0,0.0,0.0,0.0,-0.0807,-0.1563,-0.1563,-0.2368,-0.3475,-0.4533,-0.5475,-0.6142,-0.6372,-0.6419,-0.6608,-0.713,-0.7224,0.0,-0.7557,-0.7607,-0.7546,-0.7439,-0.7426,-0.7316,-0.7115,-0.7102,-0.7045,-0.6903,-0.6886,-0.6797,-0.6538,-0.6518,-0.6446,-0.6303,-0.6338,-0.7215,-0.896,0.0,0.0,0.0,0.0,0.0,0.0,0.0,0.0,0.0,0.0,0.0,0.0,0.0,0.0,0.0,0.0,0.0,0.0,0.0,0.0,0.0,0.9485,0.928,0.8557,0.8333,0.8315,0.8424,0.8387,0.833,0.8414,0.8523,0.8604,0.8645,0.875,0.8815,0.8815,0.8797,0.8711,0.8378,0.7523,0.6369,0.4916,0.4026,0.2967,0.1795,0.1795,0.1795,0.1795,0.1683,0.1514,0.129,0.1121,0.0951,0.0724,0.0446,0.0276,0.0271,0.0053,0.0,0.0,0.0,0.0,0.0,0.0,0.0,0.0,0.0,0.0,0.0,0.0,0.0,0.0,0.0,0.0,0.0,0.0,0.0,0.0,0.0,-0.0202,-0.0454,-0.0454,-0.1261,-0.2368,-0.3425,-0.4443,-0.5403,-0.624,-0.6538,-0.6738,-0.6886,0.0,0.0,-0.7481,-0.7609,-0.7695,-0.7553,-0.7536,-0.7475,-0.7322,-0.7309,-0.7244,-0.7048,-0.6943,-0.6849,-0.6807,-0.659,-0.6446,-0.6303,-0.6872,-0.7484,0.0,0.0,0.0,0.0,0.0,0.0,0.0,0.0,0.0,0.0,0.0,0.0,0.0,0.0,0.0,0.0,0.0,0.0,0.0,0.0,0.0,0.0,0.9819,0.9738,0.9314,0.9129,0.8947,0.8904,0.8843,0.8761,0.8665,0.8754,0.8804,0.8804,0.8834,0.8885,0.8885,0.8885,0.8964,0.9025,0.8351,0.7472,0.6327,0.5646,0.4396,0.2632,0.2632,0.2346,0.1833,0.1833,0.1712,0.0,0.1417,0.1242,0.1065,0.0729,0.0502,0.0,0.0,0.0,0.0,0.0,0.0,0.0,0.0,0.0,0.0,0.0,0.0,0.0,0.0,0.0,0.0,0.0,0.0,0.0,0.0,0.0,0.0,0.0,0.0,0.0,0.0,-0.0505,-0.1261,-0.2318,0.0,0.0,-0.5484,-0.6239,-0.6692,-0.6795,-0.7045,-0.7266,0.0,-0.7566,-0.7657,-0.7515,-0.7594,-0.7628,-0.7482,-0.7453,0.0,0.0,0.0,-0.6947,-0.6886,-0.6698,0.0,0.0,0.0,-0.7281,0.0,0.0,0.0,0.0,-1.1513,-1.1863,0.0,0.0,0.0,0.0,0.0,0.0,0.0,0.0,0.0,0.0,0.0,0.0,0.0,0.0,0.0,0.0,0.992,1.0002,1.022,1.0056,0.9746,0.9341,0.9262,0.9168,0.8982,0.894,0.8885,0.8885,0.8898,0.8908,0.8908,0.0,0.0,0.0,0.0,0.8724,0.7621,0.7624,0.6394,0.3996,0.3996,0.3352,0.2121,0.2121,0.1987,0.1788,0.1557,0.1429,0.1353,0.1071,0.0732,0.0393,0.011,0.0,0.0,0.0,0.0,0.0,0.0,0.0,0.0,0.0,0.0,0.0,0.0,0.0,0.0,0.0,0.0,0.0,0.0,0.0,0.0,0.0,0.0,0.0,0.0,0.0,-0.0303,-0.1412,-0.1613,-0.2267,-0.428,-0.5484,-0.6337,-0.6692,-0.6795,0.0,-0.7138,-0.7391,-0.7545,-0.742,0.0,0.0,-0.7638,-0.7499,-0.7453,-0.7419,-0.7224,-0.7034,-0.6893,-0.68,-0.6654,-0.6542,-0.6538,-0.6831,-0.7429,-0.7502,-0.8,-0.8918,-1.0868,-1.1818,0.0,0.0,0.0,0.0,0.0,0.0,0.0,0.0,0.0,0.0,0.0,0.0,0.0,0.0,0.0,0.988,1.0136,1.0343,1.0375,1.0447,1.0383,0.9896,0.9577,0.9343,0.932,0.9047,0.8885,0.8885,0.9045,0.9169,0.9169,0.9228,0.0,0.9337,0.9337,0.8765,0.7624,0.7624,0.6864,0.5401,0.0,0.0,0.3411,0.3411,0.2879,0.1877,0.1819,0.1815,0.1752,0.1459,0.0984,0.0456,0.0111,0.0,0.0,0.0,0.0,0.0,0.0,0.0,0.0,0.0,0.0,0.0,0.0,0.0,0.0,0.0,0.0,0.0,0.0,0.0,0.0,0.0,0.0,0.0,0.0,0.0,-0.0303,-0.1412,-0.1613,-0.2016,-0.3274,-0.4379,-0.5434,-0.6337,-0.6642,-0.6795,-0.6892,-0.7092,-0.7332,-0.7558,-0.7604,-0.7691,-0.7735,-0.7743,-0.7624,-0.7433,-0.7224,-0.7034,-0.6893,-0.6859,-0.6814,-0.6661,-0.6658,-0.6723,-0.6859,-0.7504,-0.7906,-0.8137,-0.9776,-1.0732,0.0,0.0,0.0,0.0,0.0,0.0,0.0,0.0,0.0,0.0,0.0,0.9652,0.9742,0.0,0.9945,1.0132,1.0314,1.0465,1.055,1.0639,1.0546,1.0186,0.9819,0.9541,0.9434,0.9168,0.9045,0.9045,0.9184,0.9323,0.9323,0.934,0.9415,0.9493,0.9496,0.9232,0.87,0.87,0.8102,0.6844,0.6844,0.6124,0.4807,0.4149,0.3476,0.2859,0.2206,0.19,0.1885,0.1532,0.1231,0.093,0.0458,0.0169,0.0,0.0,0.0,0.0,0.0,0.0,0.0,0.0,0.0,0.0,0.0,0.0,0.0,0.0,0.0,0.0,0.0,0.0,0.0,0.0,0.0,0.0,0.0,0.0,-0.0154,-0.0716,-0.0813,-0.116,-0.2217,-0.2821,-0.3726,-0.5334,-0.5737,-0.5989,-0.6539,-0.6839,-0.7042,-0.7194,-0.7447,-0.7617,-0.7687,-0.7758,-0.7685,-0.7436,-0.7299,-0.719,-0.6997,-0.6991,-0.6923,-0.6817,-0.6814,-0.6776,-0.6702,-0.7109,-0.7315,-0.7308,-0.8502,-0.9742,0.0,0.0,0.0,0.0,0.0,0.0,0.0,1.0743,0.9871,0.9628,0.9652,0.9721,0.986,0.9945,1.0087,1.0387,1.0411,1.0534,1.0672,1.0692,1.0649,1.0469,1.0056,0.9721,0.9532,0.9311,0.9221,0.9251,0.934,0.9425,0.9425,0.9452,0.9523,0.9646,0.9649,0.9703,0.9819,0.9822,0.9268,0.8285,0.8285,0.7551,0.6263,0.5161,0.44,0.3809,0.2483,0.1926,0.1904,0.1606,0.1484,0.1361,0.0888,0.0465,0.017,0.0056,0.0,0.0,0.0,0.0,0.0,0.0,0.0,0.0,0.0,0.0,0.0,0.0,0.0,0.0,0.0,0.0,0.0,0.0,0.0,0.0,0.0,0.0,0.0,0.0,0.0,-0.0254,-0.1115,-0.1264,-0.2016,-0.418,-0.4684,-0.5135,-0.5984,-0.6439,-0.6742,-0.6795,-0.7194,-0.7497,-0.7596,-0.7707,-0.7709,-0.7472,-0.7431,-0.7346,-0.7146,-0.7139,-0.7075,-0.693,-0.6927,-0.6866,-0.6787,-0.6787,-0.6787,-0.6787,-0.7613,-0.9055,1.5365,1.4262,1.2684,1.177,1.1091,1.0605,0.0,0.0,0.9628,0.9628,0.975,0.986,0.988,1.0152,1.0387,1.0375,1.0562,1.0672,1.0688,1.0692,1.0753,1.0919,1.0239,0.982,0.9912,0.9486,0.9265,0.9347,0.9496,0.9585,0.9585,0.9703,0.9781,0.9795,0.9798,0.9805,0.9822,0.9822,0.97,0.9576,0.9576,0.89,0.7673,0.7551,0.6137,0.3805,0.2523,0.1969,0.1967,0.1967,0.1767,0.1504,0.1384,0.119,0.0819,0.0231,0.0,0.0,0.0,0.0,0.0,0.0,0.0,0.0,0.0,0.0,0.0,0.0,0.0,0.0,0.0,0.0,0.0,0.0,0.0,0.0,0.0,0.0,0.0,0.0,0.0,-0.0052,-0.0155,-0.0204,-0.0908,-0.3073,-0.418,-0.4834,-0.4985,-0.5834,-0.6539,-0.6792,-0.6845,-0.7095,-0.7547,-0.7707,-0.7797,-0.7763,-0.7645,-0.7506,-0.7353,-0.7346,-0.7275,-0.7075,-0.7071,-0.7065,-0.7048,-0.7048,-0.7048,-0.7092,-0.8003,-0.89,1.3686,1.3108,1.2198,1.1042,1.056,1.0364,1.0216,0.9969,0.9805,0.9804,0.9835,0.9949,1.0168,1.0331,1.0415,0.0,1.0643,1.0692,1.0692,1.0692,1.0761,1.1004,1.0507,1.0194,1.0189,0.9889,0.9679,0.951,0.9649,0.9734,0.9734,0.9788,0.9822,0.9822,0.9822,0.9822,0.9822,0.9822,0.9822,0.9822,0.9822,0.9515,0.8961,0.8224,0.6449,0.3875,0.3325,0.2714,0.1977,0.1977,0.1908,0.1774,0.159,0.1401,0.1208,0.0765,0.0583,0.0582,0.0347,0.0287,0.0285,0.0057,0.0,0.0,0.0,0.0,0.0,0.0,0.0,0.0,0.0,0.0,0.0,0.0,0.0,0.0,0.0,0.0,0.0,0.0,0.0,0.0,0.0,0.0,-0.0307,-0.1212,-0.2267,-0.3374,-0.4634,-0.5186,-0.5787,-0.6692,-0.6795,-0.6995,-0.7547,-0.7638,-0.7713,-0.7818,-0.7753,-0.7655,-0.7509,-0.7506,-0.7475,-0.7407,-0.7407,-0.7363,-0.7275,-0.7275,-0.7227,-0.7098,-0.7633,-0.8307,1.2969,1.263,1.2101,1.0846,1.0462,1.0314,1.0068,0.992,0.9875,0.9898,0.9925,1.0059,1.0375,1.0473,1.0546,1.0672,1.0692,1.0692,1.0692,1.0737,1.0838,1.1017,1.0915,1.072,1.0595,1.0391,1.0101,0.9842,0.9882,0.9883,0.9822,0.9822,0.9822,0.9822,0.9822,0.9822,0.9822,0.9822,0.9822,0.9822,0.9822,0.9822,0.9758,0.8471,0.6815,0.4977,0.4611,0.3693,0.253,0.253,0.2346,0.1977,0.1729,0.1667,0.1601,0.1385,0.1131,0.0948,0.0708,0.0643,0.0579,0.0347,0.0229,0.0113,0.0113,0.0056,0.0,0.0,0.0,0.0,0.0,0.0,0.0,0.0,0.0,0.0,0.0,0.0,0.0,0.0,0.0,0.0,0.0,0.0,0.0,0.0,-0.0661,-0.1826,-0.3679,-0.418,-0.4832,-0.6089,-0.6389,-0.6739,-0.7444,-0.7643,-0.7747,-0.7833,-0.7875,-0.7811,-0.7665,-0.7658,-0.7641,-0.76,-0.76,-0.7546,-0.7434,-0.7434,-0.7377,-0.7223,-0.738,-0.7841,1.4507,1.3499,1.2393,1.1091,1.0605,1.0314,1.0068,0.9826,0.9677,0.9847,1.0077,1.0209,1.0346,1.057,1.0684,1.0692,1.0692,1.0692,1.0692,1.0846,1.1025,1.1196,1.1374,1.143,0.0,1.0823,1.0498,1.0286,1.0301,1.0122,0.9822,0.9822,0.9822,0.9822,0.9822,0.9822,0.9822,0.9822,0.9822,0.9822,0.9822,0.9822,0.9758,0.8471,0.7856,0.7734,0.6385,0.51,0.3815,0.3815,0.3142,0.1977,0.1977,0.1977,0.1976,0.1975,0.1588,0.1023,0.1007,0.1001,0.1001,0.1001,0.0757,0.046,0.046,0.0284,0.0,0.0,0.0,0.0,0.0,0.0,0.0,0.0,0.0,0.0,0.0,0.0,0.0,0.0,0.0,0.0,0.0,0.0,0.0,0.0,-0.0052,-0.0464,-0.1566,-0.262,-0.3676,-0.4734,-0.5329,-0.6077,-0.7138,-0.769,-0.7988,-0.7982,-0.7982,-0.7914,-0.7811,-0.7804,-0.774,-0.7604,-0.76,-0.7597,-0.7594,-0.7594,-0.759,-0.7587,-0.759,-0.7594,1.3494,1.2727,1.2145,1.085,1.0314,1.0117,1.0019,0.9772,0.9677,0.9847,1.0082,1.0217,1.04,1.0574,1.0692,1.0692,1.0692,1.0692,1.0692,1.085,1.1033,1.12,1.1386,0.0,0.0,0.0,0.0,1.0664,1.0607,1.0486,1.0122,1.0122,1.0001,0.9822,0.9822,0.9822,0.9822,0.9822,0.9822,0.9822,0.9822,0.9822,0.9761,0.9329,0.8714,0.7856,0.7429,0.6446,0.5223,0.5223,0.4979,0.4492,0.3633,0.3265,0.3142,0.2284,0.1847,0.1654,0.1401,0.1329,0.1317,0.1077,0.0947,0.0818,0.0818,0.0693,0.057,0.057,0.0622,0.0561,0.0336,0.028,0.0224,0.0056,0.0,0.0,0.0,0.0,0.0,0.0,0.0,0.0,0.0,0.0,0.0,0.0,-0.0616,-0.1169,-0.1564,-0.2519,-0.3324,-0.3676,-0.4529,-0.5281,-0.5832,-0.6836,-0.754,-0.7746,-0.7892,-0.7968,-0.7914,-0.7914,-0.7891,-0.7843,-0.7843,-0.7841,-0.774,-0.774,-0.7692,-0.76,-0.7695,-0.774,1.2872,1.2101,1.1521,1.0654,1.0216,0.9969,0.9871,0.9727,0.9677,0.9847,1.0082,1.0217,1.04,1.0574,1.0692,1.0692,1.0692,1.0692,1.0692,1.0903,1.1098,1.1208,1.1443,1.1646,0.0,0.0,0.0,1.097,1.097,1.0849,1.0486,1.0365,1.0183,1.0001,0.9883,0.9822,0.9822,0.9822,0.9822,0.9822,0.9822,0.9822,0.9822,0.9822,0.9329,0.8593,0.8593,0.7856,0.6632,0.6632,0.6326,0.5835,0.4977,0.4611,0.4427,0.3143,0.2652,0.259,0.1914,0.1656,0.1643,0.1399,0.1264,0.1188,0.1188,0.1058,0.0928,0.0928,0.0917,0.0849,0.0622,0.0563,0.0505,0.0224,0.0168,0.0112,0.0,0.0,0.0,0.0,0.0,0.0,0.0,0.0,0.0,0.0,-0.057,-0.1017,-0.101,-0.1613,-0.2217,-0.2569,-0.3323,-0.4026,-0.4576,-0.5879,-0.6684,-0.6886,-0.749,-0.7842,-0.7842,-0.7939,-0.7988,-0.7988,-0.7988,-0.7941,-0.7892,-0.7892,-0.7845,-0.776,-0.7848,-0.7892,1.2651,1.1736,1.077,1.0524,1.0229,0.9982,0.9677,0.9628,0.9673,0.9839,1.0018,1.0205,0.0,0.0,1.068,1.0688,1.0692,1.0692,1.0692,1.0997,1.1224,0.0,0.0,0.0,0.0,0.0,0.0,1.1333,0.0,1.1152,1.0849,1.0547,1.0365,1.0304,1.0001,0.9819,0.9819,0.9822,0.9822,0.9822,0.9822,0.9822,0.9822,0.9822,0.9822,0.9822,0.9822,0.9143,0.798,0.798,0.7243,0.608,0.6018,0.6018,0.5835,0.4488,0.3997,0.3815,0.253,0.2038,0.1977,0.1977,0.1774,0.151,0.151,0.1315,0.1062,0.1062,0.0991,0.0921,0.0921,0.091,0.0842,0.0505,0.0393,0.0336,0.0056,0.0,0.0,0.0,0.0,0.0,0.0,0.0,0.0,0.0,0.0,0.0,0.0,0.0,-0.0404,-0.1412,-0.1813,-0.2414,-0.342,-0.4722,-0.5522,-0.5575,-0.6786,-0.7543,-0.7596,-0.7842,-0.7992,-0.7992,-0.7988,-0.7988,-0.7988,-0.7988,-0.7988,-0.7988,-0.7988,-0.7988,1.1979,1.1585,1.1234,1.0984,1.0733,1.0397,1.0003,0.9723,0.9591,0.9685,0.9831,1.0014,1.0197,0.0,0.0,1.0672,1.0692,0.0,1.0692,1.0997,0.0,1.1224,0.0,1.1776,1.1776,1.1776,0.0,0.0,1.1651,1.1526,1.1212,1.1091,1.091,1.0668,1.0365,1.0183,1.0183,0.9943,0.9822,0.9822,0.9822,0.9822,0.9822,0.9822,0.9822,0.9822,0.9822,0.9636,0.9329,0.9329,0.9143,0.8714,0.7734,0.7368,0.7243,0.5896,0.5406,0.5223,0.3876,0.2774,0.1977,0.1977,0.1971,0.1904,0.1904,0.1761,0.168,0.168,0.1661,0.1581,0.1347,0.1272,0.12,0.0857,0.0566,0.0393,0.0336,0.0168,0.0,0.0,0.0,0.0,0.0,0.0,0.0,0.0,0.0,0.0,0.0,0.0,-0.0101,-0.0404,-0.116,-0.1814,-0.2065,-0.332,-0.4474,-0.5227,-0.5827,-0.6481,-0.7288,-0.7543,-0.7693,-0.7693,-0.7892,-0.7988,-0.7988,-0.7988,-0.7988,-0.7988,-0.7988,-0.7988,1.1632,1.148,1.1374,1.0987,1.0707,1.0403,0.9912,0.9727,0.9579,0.9579,0.9766,0.9916,1.0073,1.0257,1.0415,0.0,0.0,0.0,1.0692,1.0997,1.1224,0.0,1.1549,0.0,1.1776,1.1776,1.1776,0.0,1.1776,1.1712,1.1522,1.1398,1.1212,1.1031,1.0547,1.0243,1.0061,0.9879,0.9822,0.9822,0.9822,0.9822,0.9822,0.9822,0.9822,0.9822,0.0,0.9822,0.9822,0.9822,0.9822,0.97,0.9022,0.8714,0.8593,0.7243,0.6754,0.6569,0.5223,0.4306,0.3511,0.2346,0.1977,0.1977,0.1977,0.1964,0.1951,0.1951,0.1929,0.1846,0.1667,0.1647,0.1508,0.121,0.0971,0.0792,0.0674,0.0505,0.0393,0.0393,0.028,0.0168,0.0168,0.0168,0.0112,0.0,0.0,0.0,0.0,0.0,0.0,0.0,-0.0558,-0.0908,-0.0908,-0.2015,-0.3171,-0.4277,-0.5027,-0.5929,-0.6992,-0.7291,-0.7444,-0.7444,-0.7693,-0.7842,-0.7842,-0.7939,-0.7988,-0.7988,-0.7988,-0.7988,1.1548,1.1504,1.1347,1.0846,1.0535,1.0272,0.9722,0.9579,0.9579,0.9579,0.9746,0.9855,0.988,1.0148,1.0326,1.0375,0.0,1.0668,1.0688,1.0997,1.1224,1.1224,1.1549,1.1776,1.1776,1.1776,1.1776,1.1776,1.1776,1.1776,1.1776,1.1522,1.1333,1.1273,1.0728,1.0243,0.9883,0.9883,0.9822,0.9822,0.9822,0.9822,0.9822,0.9822,0.9822,0.9822,0.0,0.0,0.9822,0.9822,0.9822,0.9822,0.9822,0.9822,0.9636,0.8532,0.8163,0.7978,0.6632,0.6141,0.5714,0.3082,0.2222,0.2223,0.2038,0.1977,0.1977,0.1977,0.1958,0.1937,0.1937,0.1915,0.1826,0.151,0.1445,0.1321,0.1017,0.0955,0.0897,0.0897,0.0673,0.0449,0.0449,0.0449,0.0393,0.0112,0.0055,0.0055,0.0,0.0,0.0,0.0,0.0,0.0,0.0,-0.0858,-0.1915,-0.3123,-0.4277,-0.5482,-0.6692,-0.6989,-0.7138,-0.7138,-0.7391,-0.7547,-0.7547,-0.7793,-0.7939,-0.7939,-0.7988,-0.7988,1.1718,1.1869,1.1819,1.1097,1.0888,1.0638,0.9801,0.9579,0.9579,0.9579,0.9652,0.9713,0.986,0.9937,1.0079,1.0334,1.0407,1.053,1.0672,1.0997,1.1224,0.0,1.1549,1.1776,1.1776,1.1776,0.0,0.0,0.0,1.1776,1.1776,1.1712,1.1587,1.1333,1.1212,1.0849,1.0243,1.0183,1.0065,0.9822,0.9822,0.9822,0.9822,0.9822,0.9822,0.9822,0.0,0.0,0.9822,0.9822,0.9822,0.9822,0.9822,0.9822,0.9758,0.9576,0.9451,0.9268,0.798,0.7551,0.7121,0.4427,0.357,0.3387,0.2346,0.1977,0.1977,0.1977,0.1973,0.1969,0.1969,0.1946,0.1862,0.1856,0.16,0.1402,0.1321,0.1076,0.0897,0.0897,0.0841,0.0841,0.0841,0.0841,0.0729,0.0393,0.0336,0.0223,0.0056,0.0,0.0,0.0,0.0,0.0,0.0,-0.0151,-0.111,-0.3073,-0.3425,-0.4429,-0.6387,-0.6742,-0.6892,-0.6892,-0.7141,-0.7288,-0.7288,-0.7543,-0.7646,-0.7696,-0.7892,-0.7988,1.1794,1.1996,1.2112,1.1376,1.1092,1.0784,1.0008,0.9723,0.9772,1.0306,1.0449,1.0475,1.0568,1.0619,1.0582,1.035,1.0371,1.0493,1.0668,1.0997,1.1224,1.1224,1.1549,1.1776,0.0,1.1776,0.0,0.0,0.0,1.1776,1.1776,1.1776,1.1651,1.1333,1.1273,1.1031,1.0547,1.0547,1.0365,1.0061,1.0061,0.9943,0.9822,0.9822,0.9822,0.9822,0.0,0.0,0.9822,0.9822,0.9822,0.9822,0.9822,0.9822,0.9822,0.9822,0.9822,0.9697,0.9083,0.89,0.8593,0.6632,0.5529,0.4856,0.4185,0.3573,0.302,0.302,0.253,0.1977,0.1977,0.1966,0.1951,0.1935,0.1789,0.1643,0.1616,0.1371,0.119,0.1348,0.1234,0.1121,0.1121,0.1121,0.1009,0.0729,0.0673,0.0561,0.0224,0.0221,0.0163,0.0,0.0,0.0,0.0,0.0,-0.0656,-0.2267,-0.2368,-0.3323,-0.5484,-0.5687,-0.6039,-0.6589,-0.6842,-0.6992,-0.6992,-0.7241,-0.7444,-0.7596,-0.7746,-0.7892,1.1751,1.2025,1.2107,1.1483,1.1185,1.0839,1.0244,1.0068,1.0261,1.113,1.1419,1.1512,1.1512,1.1406,1.1157,1.0586,1.044,1.0452,1.0664,1.0997,1.1224,1.1224,1.1549,0.0,1.1776,1.1776,0.0,0.0,0.0,0.0,1.1776,1.1776,1.1651,1.1398,1.1398,1.1277,1.091,1.091,1.0728,1.0425,1.0425,1.0243,1.0004,0.994,0.9883,0.9883,0.9819,0.0,0.0,0.9822,0.9822,0.9822,0.9822,0.9822,0.9822,0.9822,0.9822,0.9822,0.9822,0.9822,0.9636,0.8653,0.7429,0.6263,0.5957,0.5161,0.4304,0.4304,0.3387,0.2406,0.2406,0.2223,0.1971,0.1947,0.1917,0.1889,0.1807,0.1618,0.1547,0.1753,0.1575,0.1402,0.1402,0.1402,0.129,0.1009,0.1009,0.0897,0.0561,0.0505,0.0391,0.011,0.0054,0.0,0.0,0.0,-0.0457,-0.1522,-0.1617,-0.2469,-0.4381,-0.4684,-0.5186,-0.6034,-0.6489,-0.6692,-0.6692,-0.6992,-0.7241,-0.7447,-0.7497,-0.7643,1.1543,1.1709,1.1719,1.1244,1.1088,1.0983,1.0461,1.09,1.1438,1.1536,1.2111,1.2581,1.2581,1.1819,1.1286,1.1541,1.0798,1.0306,1.0643,1.0997,1.1224,1.1224,0.0,0.0,1.1776,0.0,0.0,0.0,0.0,0.0,0.0,1.1776,1.1776,1.1776,1.1776,1.1587,1.1273,1.1273,1.1091,1.0728,1.0728,1.0728,1.0728,1.0365,1.0243,1.0243,0.0,0.0,0.0,0.9822,0.9822,0.9822,0.9822,0.9822,0.9822,0.9822,0.9822,0.9822,0.9822,0.9822,0.9758,0.9636,0.8775,0.749,0.6263,0.5835,0.5712,0.5712,0.4734,0.3753,0.3753,0.2897,0.1976,0.1973,0.1949,0.1926,0.1863,0.1821,0.1782,0.178,0.1757,0.1739,0.1739,0.1739,0.1627,0.129,0.129,0.1177,0.0897,0.0841,0.0728,0.0392,0.0165,0.0,0.0,0.0,-0.0466,-0.1551,-0.1578,-0.2116,-0.3324,-0.428,-0.4834,-0.4935,-0.5937,-0.6437,-0.6437,-0.6689,-0.6845,-0.6895,-0.7141,-0.7391,1.152,1.1666,1.1719,1.1415,1.1217,1.1157,1.1477,1.1717,1.2155,1.3216,1.3698,1.3842,1.3703,1.3318,1.2992,1.2761,1.1808,1.1225,1.1661,1.1443,1.1224,1.1224,1.1549,0.0,0.0,0.0,0.0,0.0,0.0,0.0,0.0,1.1776,1.1776,1.1776,1.1776,1.1712,1.1587,1.1587,1.1402,1.1091,1.1091,1.097,1.0789,1.0668,1.0607,1.0607,0.0,0.0,0.0,1.0183,1.0243,1.0365,1.0183,1.0122,1.0061,0.9883,0.9822,0.9822,0.9822,0.9822,0.9822,0.9822,0.9454,0.8961,0.8407,0.7734,0.7121,0.7121,0.6141,0.51,0.51,0.4122,0.3142,0.3142,0.2518,0.1954,0.1935,0.1852,0.1825,0.179,0.1773,0.1817,0.1798,0.1795,0.1739,0.1627,0.1627,0.1514,0.1177,0.1121,0.1009,0.0729,0.0442,0.0164,0.0,0.0,-0.0158,-0.0633,-0.0622,-0.1129,-0.2203,-0.2635,-0.3173,-0.3827,-0.4279,-0.4477,-0.4477,-0.5233,-0.5687,-0.5834,-0.6589,-0.7092,1.1425,1.1726,1.2046,1.1899,1.1959,1.2207,1.2764,1.2969,1.3355,1.4657,1.5092,1.5194,1.4921,1.4634,1.4315,1.3926,1.2931,1.2362,1.2842,1.2553,1.2303,1.2303,0.0,1.2904,0.0,0.0,0.0,0.0,0.0,0.0,0.0,1.1776,1.1776,1.1776,1.1776,1.1776,1.1776,1.1776,1.1651,1.1458,1.1458,1.1337,1.1095,1.097,1.097,1.091,0.0,0.0,0.0,1.0547,1.0607,1.0789,1.0547,1.0425,1.0425,1.0065,0.994,0.994,0.9819,0.9822,0.9822,0.9822,0.9822,0.9822,0.9822,0.9147,0.8471,0.8471,0.749,0.6385,0.6018,0.5223,0.4488,0.4488,0.351,0.2644,0.2979,0.248,0.1978,0.2343,0.2083,0.1776,0.1812,0.1801,0.1795,0.1795,0.1795,0.1739,0.1458,0.1458,0.1346,0.1065,0.0833,0.0496,0.0165,0.0109,0.0108,0.0,0.0,-0.0314,-0.1098,-0.1438,-0.1931,-0.2692,-0.3031,-0.3224,-0.3224,-0.3977,-0.4431,-0.4628,-0.5384,-0.6034,1.1198,1.1922,1.2689,1.2684,1.3499,1.4268,1.4268,1.4848,1.5384,1.5384,1.6008,1.6494,1.6218,1.5391,1.474,1.493,1.4106,1.3558,1.4014,1.4552,1.4859,0.0,0.0,1.5575,0.0,0.0,0.0,0.0,0.0,0.0,0.0,1.1776,1.1776,1.1776,1.1776,1.1776,1.1776,1.1776,1.1776,1.1776,1.1776,1.1776,1.1776,1.1458,1.1273,0.0,0.0,0.0,0.0,1.0789,1.0789,1.0789,1.0789,1.0789,1.0728,1.0425,1.0304,1.0243,0.9943,0.9822,0.9822,0.9822,0.9822,0.9822,0.9822,0.9822,0.9758,0.9758,0.8839,0.7551,0.6265,0.5896,0.5896,0.5896,0.4856,0.4243,0.5588,0.3771,0.2292,0.3611,0.2761,0.1783,0.1782,0.1814,0.1795,0.1795,0.1795,0.1795,0.1795,0.1795,0.1683,0.1346,0.129,0.1065,0.0448,0.0387,0.0274,0.0,0.0,0.0,0.0,-0.1047,-0.1607,-0.1607,-0.2644,-0.3224,-0.3224,-0.3224,-0.3224,-0.3224,-0.3224,-0.3925,1.3119,1.3547,1.3788,1.3788,1.4028,1.4459,1.5175,1.5514,1.5805,1.64,1.669,1.6784,1.6494,1.6204,1.6149,1.6643,1.5771,1.5143,0.0,0.0,0.0,1.491,1.5337,0.0,0.0,0.0,0.0,0.0,0.0,0.0,0.0,1.3075,1.2724,1.1837,1.1776,1.1776,1.1776,1.1776,1.1776,1.1776,1.1776,1.1776,1.1776,1.1712,0.0,0.0,0.0,0.0,0.0,1.1216,1.1277,1.1466,1.1216,1.1152,1.1091,1.0789,1.0668,1.0607,1.0547,1.0486,1.0486,1.0486,1.0486,1.0425,1.0183,1.0001,0.9822,0.9822,0.9515,0.9083,0.8653,0.7917,0.7243,0.7243,0.6265,0.5406,0.5835,0.5204,0.4506,0.3982,0.3525,0.2958,0.205,0.1847,0.1826,0.1826,0.1808,0.1795,0.1795,0.1795,0.1739,0.1627,0.1627,0.1402,0.0785,0.0726,0.0612,0.0278,0.0274,0.0217,0.0,-0.032,-0.0529,-0.0529,-0.083,-0.1029,-0.1028,-0.1724,-0.2469,-0.3224,-0.3224,-0.3425,1.422,1.4603,1.4889,1.4889,1.5127,1.5609,1.6224,1.6372,1.652,1.7012,1.7106,1.7066,1.6784,1.673,1.6935,1.74,1.6893,1.6583,0.0,0.0,0.0,1.6759,0.0,0.0,0.0,0.0,0.0,0.0,0.0,0.0,0.0,0.0,1.3849,1.2543,1.2074,1.1776,1.1776,1.1776,1.1776,1.1776,1.1776,1.1776,1.1776,1.1776,0.0,0.0,0.0,0.0,0.0,1.1587,1.1587,1.1776,1.1587,1.1462,1.1462,1.1091,1.097,1.097,1.0849,1.0789,1.0789,1.0789,1.0789,1.0789,1.0547,1.0183,0.9819,0.994,1.0001,1.0001,1.0001,0.9387,0.8775,0.8653,0.7612,0.6815,0.7243,0.6571,0.5821,0.5466,0.5012,0.438,0.3567,0.3339,0.3123,0.2645,0.296,0.3046,0.2523,0.2856,0.2967,0.2521,0.2465,0.2129,0.129,0.1121,0.0897,0.0617,0.0611,0.0497,0.0331,0.0217,0.0162,0.0162,0.0053,0.0,0.0,-0.0669,-0.132,-0.2016,-0.2418,-0.262,0.0,1.5222,1.5893,1.5893,1.6608,1.7279,1.7279,1.7279,0.0,1.7279,1.7279,1.7239,1.7066,1.7026,1.7132,1.7506,1.7555,1.7766,0.0,1.9015,0.0,0.0,0.0,0.0,0.0,0.0,0.0,0.0,0.0,0.0,0.0,0.0,1.5154,1.3904,1.2664,1.2014,1.1957,1.1957,1.1957,1.2074,1.2074,1.2014,1.1957,1.1957,0.0,0.0,0.0,0.0,0.0,1.1776,1.1776,1.1776,1.1776,1.1776,1.1776,1.1458,1.1333,1.1273,1.097,1.0849,1.0849,1.0849,1.0849,1.0849,1.0849,1.0365,0.994,1.0243,1.0365,1.0365,1.0365,1.0365,1.0243,0.994,0.8958,0.8407,0.9576,0.7917,0.651,0.7673,0.6863,0.602,0.59,0.5825,0.5383,0.4153,0.4883,0.5134,0.393,0.4702,0.4979,0.386,0.3748,0.3246,0.213,0.1626,0.1234,0.0953,0.0953,0.0897,0.0897,0.0608,0.0439,0.0439,0.0162,0.0053,0.0053,0.0,0.0,0.0,-0.1011,-0.1464,1.6655,0.0,1.6943,1.6943,1.7138,1.7279,0.0,1.7279,1.7279,1.7279,1.7279,1.7286,1.7239,1.7239,1.7403,1.7999,1.8101,1.8282,1.8724,0.0,0.0,2.0143,0.0,0.0,0.0,0.0,0.0,0.0,0.0,0.0,0.0,0.0,1.6455,1.5213,1.4862,1.4267,1.3255,1.3255,1.3729,1.4684,1.4684,1.4207,1.3255,1.3255,0.0,0.0,0.0,0.0,0.0,1.1776,1.1776,1.1776,1.1776,1.1776,1.1776,1.1712,1.1651,1.1651,1.1591,1.1591,1.1591,1.1591,1.1402,1.1152,1.1152,1.091,1.0607,1.0668,1.0668,1.0668,1.0668,1.0668,1.0668,1.0607,1.0119,0.9815,1.0122,0.9511,0.8714,0.8041,0.7651,0.7086,0.605,0.5916,0.5792,0.5473,0.5588,0.5627,0.5193,0.5352,0.5382,0.5033,0.4972,0.486,0.4582,0.2799,0.157,0.1234,0.1234,0.1121,0.0897,0.0838,0.0781,0.0781,0.0494,0.0324,0.032,0.0106,0.0,0.0,-0.0258,-0.0358,1.7279,1.7279,1.7279,1.7279,1.7279,1.7279,1.7279,1.7279,1.7279,1.7279,1.7279,1.7279,1.7279,1.745,1.7721,1.8218,1.843,0.0,0.0,0.0,1.9969,2.0437,0.0,0.0,0.0,0.0,0.0,0.0,0.0,0.0,0.0,0.0,1.7812,1.6514,1.6455,1.586,1.456,1.456,1.4917,1.5575,1.5575,1.5219,1.456,1.456,0.0,0.0,0.0,0.0,1.1776,1.1776,1.1776,1.1776,1.1776,1.1776,1.1776,1.1776,1.1776,1.1776,1.1776,1.1776,1.1776,1.1776,1.1651,1.1522,1.1522,1.1402,1.122,1.1091,1.1031,1.1031,1.1031,1.1031,1.097,1.0849,1.0668,1.0486,1.0304,1.0183,0.9754,0.8961,0.8778,0.8532,0.7795,0.7686,0.7506,0.6856,0.7215,0.7311,0.6614,0.6956,0.7012,0.6388,0.6226,0.5975,0.5417,0.4193,0.3134,0.2408,0.185,0.1458,0.1346,0.1177,0.1009,0.0897,0.0723,0.0604,0.0647,0.0324,0.016,0.0158,0.0052,0.0,1.7279,1.7279,1.7279,1.7279,1.7279,1.7279,1.7279,1.7279,1.7279,1.7279,1.7279,1.7301,1.7344,1.7625,1.794,0.0,0.0,0.0,2.0059,2.0301,2.045,0.0,0.0,0.0,0.0,0.0,0.0,0.0,0.0,0.0,0.0,0.0,0.0,1.7812,1.7812,1.7285,1.6166,1.5983,1.5983,1.6166,1.6166,1.6107,1.5865,1.5865,0.0,0.0,0.0,0.0,1.2371,1.2195,1.2074,1.2074,1.1897,1.1776,1.1776,1.1776,1.1776,1.1776,1.1776,1.1776,1.1776,1.1776,1.1776,1.1776,1.1776,1.1776,1.1712,1.1462,1.1398,1.1398,1.1398,1.1398,1.1273,1.1035,1.091,1.0789,1.0486,1.0425,1.0304,1.0004,0.994,0.994,0.9879,0.9879,0.9475,0.8273,0.8979,0.9225,0.8078,0.8721,0.886,0.7786,0.7519,0.7001,0.6031,0.575,0.525,0.4195,0.3024,0.2242,0.2074,0.1794,0.1458,0.1065,0.1009,0.0947,0.0933,0.0659,0.049,0.0482,0.0211,0.0052,1.7279,1.7279,1.7279,1.7279,1.7279,1.7279,1.7279,1.7279,1.7279,1.7279,1.7279,1.7366,1.7691,1.7786,1.8013,0.0,0.0,1.9762,0.0,0.0,0.0,0.0,0.0,0.0,0.0,0.0,0.0,0.0,0.0,0.0,0.0,0.0,0.0,1.9127,1.9127,1.901,1.8829,1.7753,1.7753,1.8829,1.8829,1.8233,1.722,1.722,1.6514,0.0,0.0,0.0,1.4922,1.3849,1.343,1.3315,1.2191,1.1776,1.1776,1.1776,1.1776,1.1776,1.1776,1.1776,1.1776,1.1776,1.1776,1.1776,1.1776,1.1776,1.1776,1.1712,1.1712,1.1712,1.1712,1.1712,1.1712,1.1651,1.1402,1.1212,1.1152,1.091,1.0728,1.0668,1.0668,1.0547,1.0243,1.0243,1.0054,0.9546,0.9667,0.9677,0.9351,0.9436,0.938,0.895,0.8904,0.8729,0.8387,0.7429,0.676,0.6594,0.5475,0.4414,0.3358,0.3301,0.2743,0.1683,0.1402,0.1232,0.1229,0.095,0.0831,0.0817,0.0489,0.0321,1.7279,1.7279,1.7279,1.7279,1.7279,1.7279,1.7279,1.7279,1.7279,1.7279,1.7279,1.7381,1.7757,0.0,1.8291,1.895,0.0,2.0069,0.0,0.0,0.0,0.0,0.0,0.0,0.0,0.0,0.0,0.0,0.0,0.0,0.0,0.0,0.0,0.0,1.9707,1.9649,1.9649,1.9049,1.8939,1.9424,1.9424,1.9068,1.8525,1.8525,1.7818,0.0,0.0,1.622,1.5569,1.4976,1.4738,1.4679,1.4088,1.3439,1.2724,1.2074,1.2251,1.2844,1.2844,1.2844,1.296,1.3614,1.2909,1.1957,1.2603,1.2371,1.1776,1.1776,1.1776,1.1776,1.1776,1.1776,1.1776,1.1776,1.1651,1.1522,1.1333,1.1152,1.1031,1.0849,1.0789,1.0728,1.0607,1.0547,1.0486,1.0126,1.0243,1.0279,1.0031,1.0074,0.9994,0.9645,0.9486,0.9261,0.895,0.838,0.754,0.6255,0.5695,0.5139,0.4582,0.4582,0.4026,0.28,0.2631,0.2241,0.157,0.129,0.1117,0.1108,0.0824,0.0651,1.7279,1.7279,1.7279,1.7279,1.7279,1.7279,1.7279,1.7279,1.7279,1.7279,1.7344,1.7545,1.7867,1.8255,0.0,1.9199,1.9813,0.0,0.0,0.0,0.0,0.0,0.0,0.0,0.0,0.0,0.0,0.0,0.0,0.0,0.0,0.0,0.0,0.0,2.004,1.9931,1.9931,1.9931,1.9764,1.9424,1.9424,1.9424,1.9424,1.9424,1.8887,1.7929,1.7929,1.7402,1.6461,1.6161,1.6042,1.6042,1.5747,1.4976,1.4023,1.3024,1.332,1.4143,1.4143,1.4143,1.4321,1.5273,1.4272,1.2844,1.3849,1.3255,1.2251,1.2251,1.2014,1.1776,1.1776,1.1776,1.1776,1.1776,1.1776,1.1712,1.1462,1.1398,1.1337,1.1095,1.1035,1.1035,1.091,1.091,1.0789,1.0486,1.0668,1.0728,1.0425,1.0565,1.0473,1.0037,0.9846,0.9582,0.9064,0.8937,0.8156,0.6308,0.6197,0.6086,0.5808,0.5808,0.525,0.4026,0.4026,0.3413,0.2242,0.1961,0.1682,0.1402,0.1107,0.0988,1.7279,1.7279,1.7279,1.7279,1.7279,1.7279,1.7279,1.7279,1.7279,1.7279,1.7567,1.7882,1.8211,1.8782,1.922,1.9264,1.9813,0.0,0.0,0.0,0.0,0.0,0.0,0.0,0.0,0.0,0.0,0.0,0.0,0.0,0.0,0.0,0.0,0.0,0.0,2.027,2.027,2.027,1.9989,1.9424,1.9424,1.9424,1.9424,1.9424,1.9366,1.9249,1.9249,1.9185,1.901,1.787,1.7331,1.7279,1.6042,1.551,1.5451,1.5337,1.5391,1.5456,1.5456,1.5456,1.5451,1.5575,1.5456,1.5332,1.5451,1.456,1.3545,1.3545,1.2724,1.1776,1.1776,1.1776,1.1776,1.1776,1.1776,1.1776,1.1776,1.1776,1.1776,1.1716,1.1716,1.1651,1.1337,1.1273,1.1152,1.0789,1.0789,1.0789,1.0789,1.0778,1.0651,1.0338,1.0232,0.9988,0.9404,0.9103,0.8826,0.8657,0.8657,0.8156,0.7041,0.6985,0.6424,0.5306,0.525,0.4693,0.3469,0.3469,0.2856,0.1739,0.1401,0.1276,1.7279,1.7279,1.7279,1.7279,1.7279,1.7279,1.7279,1.7279,1.7337,1.7589,1.7728,1.7977,1.8511,0.0,1.9397,1.9595,0.0,0.0,0.0,0.0,0.0,0.0,0.0,0.0,0.0,0.0,0.0,0.0,0.0,0.0,0.0,0.0,0.0,0.0,0.0,2.0551,2.0551,2.0551,2.0328,1.9931,1.9931,1.9873,1.9649,1.9649,1.9649,1.9649,1.9482,1.9424,1.9366,1.8887,1.8706,1.8525,1.7285,1.6809,1.6691,1.5865,1.6101,1.6809,1.6809,1.6809,1.6926,1.7701,1.6873,1.5747,1.6514,1.586,1.4857,1.4857,1.4505,1.3794,1.2195,1.1776,1.1776,1.1776,1.1776,1.1776,1.1776,1.1776,1.1776,1.1776,1.1776,1.1776,1.1647,1.1587,1.1522,1.1152,1.1281,1.1341,1.1152,1.1281,1.1212,1.0686,1.0235,0.9895,0.9662,0.9379,0.9213,0.9213,0.8995,0.8716,0.8211,0.8214,0.7654,0.648,0.648,0.5866,0.4693,0.4693,0.4081,0.2912,0.2799,0.2345,1.7279,1.7279,1.7279,1.7279,1.7279,1.7279,1.7279,1.7279,1.7421,1.7743,1.7977,1.8291,1.884,0.0,0.0,0.0,0.0,0.0,0.0,0.0,0.0,0.0,0.0,0.0,0.0,0.0,0.0,0.0,0.0,0.0,0.0,0.0,0.0,0.0,0.0,0.0,2.0845,2.0845,2.073,2.0443,2.0507,2.0335,1.9989,1.9989,1.9989,1.9931,1.9764,1.9591,1.954,1.954,1.954,1.9417,1.8577,1.8221,1.8104,1.722,1.7396,1.811,1.811,1.811,1.8286,1.9243,1.835,1.7103,1.8098,1.7449,1.6332,1.6332,1.5983,1.5219,1.3439,1.2728,1.2311,1.1897,1.1776,1.1776,1.1776,1.1776,1.1776,1.1776,1.1776,1.1776,1.1776,1.1776,1.1712,1.1462,1.1651,1.1692,1.1383,1.1563,1.149,1.0896,1.0316,0.9981,0.9981,0.9706,0.9544,0.9544,0.9323,0.9158,0.9047,0.9047,0.8657,0.782,0.782,0.7204,0.5919,0.5919,0.5308,0.4193,0.4193,0.3748,1.7279,1.7279,1.7279,1.7279,1.7279,1.7279,1.7279,1.7286,1.7381,1.7757,1.8343,1.8891,1.9213,1.9279,0.0,0.0,0.0,0.0,0.0,0.0,0.0,0.0,0.0,0.0,0.0,0.0,0.0,0.0,0.0,0.0,0.0,0.0,0.0,0.0,0.0,0.0,2.1211,2.1211,2.1024,2.0716,2.1024,2.0917,2.027,2.027,2.027,2.027,2.027,2.0104,1.9815,1.9815,1.9815,1.9815,1.9815,1.9815,1.9815,1.9815,1.9649,1.9424,1.9424,1.9424,1.9424,1.97,1.9815,1.9873,2.0213,1.9203,1.7898,1.7898,1.6797,1.5634,1.5634,1.4679,1.343,1.2134,1.1837,1.1837,1.1776,1.1837,1.1837,1.1837,1.1837,1.1837,1.1837,1.1837,1.1776,1.1776,1.1772,1.1703,1.152,1.1496,1.1358,1.1065,1.0584,1.0312,1.0312,0.9981,0.9816,0.9816,0.9816,0.9706,0.9434,0.9379,0.9379,0.9379,0.9379,0.8654,0.7096,0.7096,0.6536,0.5417,0.5417,0.5417,1.7279,1.7279,1.7279,1.7279,1.7279,1.7279,1.7279,1.7461,1.783,1.8386,1.884,1.9162,1.9257,1.9279,0.0,0.0,0.0,0.0,0.0,0.0,0.0,0.0,0.0,0.0,0.0,0.0,0.0,0.0,0.0,0.0,0.0,0.0,0.0,0.0,0.0,0.0,2.1211,2.1211,2.1146,2.1024,2.1146,2.0974,2.0608,2.0608,2.0608,2.0551,2.0385,2.0213,2.0155,2.0155,2.0155,2.0155,2.0155,2.0155,2.0155,2.0155,2.0097,2.0046,2.0046,2.0046,2.0046,2.0162,2.0155,2.0155,2.027,1.9975,1.9622,1.9622,1.9094,1.8338,1.7443,1.6797,1.5854,1.367,1.3135,1.29,1.2014,1.2487,1.3135,1.3135,1.3135,1.3135,1.3135,1.2252,1.1581,1.1581,1.1468,1.1366,1.1313,1.12,1.1086,1.1037,1.075,1.0582,1.0582,1.0312,1.0147,1.0147,0.9926,0.9761,0.9706,0.9706,0.9706,0.9706,0.9706,0.9375,0.8709,0.8709,0.7983,0.6591,0.6591,0.6144,1.7279,1.7279,1.7279,1.7279,1.7279,1.7352,1.7655,1.7867,1.8152,1.8679,1.9052,1.9279,1.9279,1.9279,0.0,0.0,0.0,0.0,0.0,0.0,0.0,0.0,0.0,0.0,0.0,0.0,0.0,0.0,0.0,0.0,0.0,0.0,0.0,0.0,0.0,0.0,2.1211,2.1211,2.1211,2.1211,2.1211,2.1089,2.0902,2.0902,2.0902,2.0902,2.0608,2.0436,2.0436,2.0328,2.0385,2.0436,2.0436,2.0436,2.0436,2.0436,2.0385,2.027,2.027,2.027,2.0328,2.0443,2.0436,2.05,2.0622,2.0558,2.0436,2.0436,2.0213,1.9809,1.9029,1.8622,1.7747,1.509,1.4441,1.4262,1.3499,1.3909,1.4416,1.4267,1.4252,1.4222,1.4127,1.3369,1.2597,1.2136,1.152,1.1122,1.1122,1.0968,1.0858,1.0858,1.0757,1.0692,1.0692,1.0527,1.0472,1.0472,1.0257,1.0143,1.0143,1.0036,0.9981,0.9981,0.9981,0.9871,0.9544,0.9544,0.9096,0.8149,0.8042,0.7648,1.7326,1.7279,1.7326,1.7419,1.7419,1.7588,1.8152,1.8299,1.8401,1.876,0.0,1.9279,1.9279,1.9324,0.0,0.0,0.0,0.0,0.0,0.0,0.0,0.0,0.0,0.0,0.0,0.0,0.0,0.0,0.0,0.0,0.0,0.0,0.0,0.0,0.0,0.0,2.1211,2.1211,2.1211,0.0,2.1211,2.1211,2.1211,2.1211,2.1211,2.1211,2.0902,2.078,2.0723,2.05,2.0558,2.078,2.078,2.078,2.078,2.078,2.0608,2.0385,2.0385,2.0385,2.0443,2.0666,2.078,2.078,2.1089,2.0967,2.078,2.078,2.0551,2.0328,2.0328,2.0083,1.9125,1.6598,1.5908,1.5747,1.5607,1.566,1.5643,1.5346,1.5297,1.5227,1.4937,1.4821,1.4348,1.3263,1.2046,1.122,1.1164,1.096,1.0802,1.0692,1.0692,1.0692,1.0692,1.0692,1.0692,1.0692,1.0692,1.0692,1.0692,1.0476,1.0366,1.0366,1.0366,1.0143,0.9871,0.9871,0.9816,0.9816,0.9541,0.9434,1.7512,1.7279,1.7512,1.8288,1.8473,1.8473,1.8348,1.8299,1.8467,1.9052,1.9228,1.9279,1.9279,0.0,0.0,0.0,0.0,0.0,0.0,0.0,0.0,0.0,0.0,0.0,0.0,0.0,0.0,0.0,0.0,0.0,0.0,0.0,0.0,0.0,0.0,2.1211,2.1211,2.1211,2.1211,0.0,2.1211,2.1211,2.1211,2.1211,2.1211,2.1211,2.1146,2.1089,2.1089,2.1031,2.1031,2.1089,2.1089,2.1089,2.1089,2.1089,2.1031,2.1031,2.1031,2.1031,2.1031,2.1089,2.1089,2.1089,2.1211,2.1146,2.1089,2.1089,2.0845,2.0601,2.0601,2.0195,1.968,1.9042,1.7993,1.6751,1.5507,1.616,1.6948,1.6672,1.673,1.6824,1.6534,1.5572,1.4553,1.3988,1.3593,1.3133,1.2215,1.2064,1.1719,1.0802,1.0692,1.0692,1.0692,1.0692,1.0692,1.0692,1.0692,1.0692,1.0692,1.0637,1.0637,1.0637,1.0637,1.0472,1.0202,1.0202,1.0036,0.9816,0.9761,0.9706,1.8288,1.8326,1.8826,1.933,1.9467,1.9388,1.9113,1.9413,1.9699,1.9398,1.9279,1.948,0.0,0.0,0.0,0.0,0.0,0.0,0.0,0.0,0.0,0.0,0.0,0.0,0.0,0.0,0.0,0.0,0.0,0.0,0.0,0.0,0.0,0.0,2.1211,2.1211,2.1211,2.1211,2.1211,2.1211,2.1211,2.1211,2.1211,2.1211,2.1211,2.1211,2.1211,2.1211,2.1211,2.1211,2.1211,2.1211,2.1211,2.1211,2.1211,2.1211,2.1211,2.1211,2.1211,2.1211,2.1211,2.1211,2.1101,2.0976,2.0976,2.0867,2.0742,2.0742,2.0623,2.0448,2.0448,2.0102,1.9821,1.9821,1.9079,1.8115,1.7284,1.7716,1.8249,1.7954,1.8011,1.8026,1.7718,1.6578,1.557,1.5232,1.4674,1.4083,1.3329,1.3329,1.2955,1.1664,1.161,1.145,1.0747,1.1177,1.15,1.15,1.2041,1.2309,1.2309,1.1823,1.1286,1.0692,1.0692,1.0637,1.0472,1.0472,1.0417,1.0257,1.0091,1.0036,1.9285,1.9741,2.0413,2.0232,2.0322,2.0374,2.0029,2.0706,2.1084,1.9974,1.979,0.0,0.0,0.0,0.0,0.0,0.0,0.0,0.0,0.0,0.0,0.0,0.0,0.0,0.0,0.0,0.0,0.0,0.0,0.0,0.0,0.0,2.1211,2.1211,2.1211,2.1211,2.1211,2.1211,2.1318,2.1482,2.1422,2.1257,2.1042,2.1042,2.1101,2.1211,2.1211,2.1211,2.1211,2.1211,2.1211,2.1211,2.1211,2.1211,2.1211,2.1211,2.1211,2.1203,2.1145,2.1123,2.1115,2.1057,2.0859,2.064,2.064,2.0394,2.0183,2.0183,2.0183,2.0183,2.0183,1.9983,1.9783,1.9783,1.9562,1.9308,1.9255,1.9262,1.9233,1.8924,1.8921,1.8837,1.8524,1.7667,1.6922,1.6717,1.5861,1.5102,1.4615,1.4781,1.4406,1.3004,1.3058,1.2684,1.1505,1.2259,1.2738,1.2684,1.3599,1.4078,1.4078,1.3166,1.2254,1.1286,1.0907,1.0692,1.0692,1.0692,1.0692,1.0692,1.0476,1.0366,2.0286,2.0737,2.1284,2.0413,2.0872,2.1356,2.0733,2.0989,2.1442,0.0,2.182,0.0,0.0,0.0,0.0,0.0,0.0,0.0,0.0,0.0,0.0,0.0,0.0,0.0,0.0,0.0,0.0,0.0,0.0,0.0,0.0,2.1211,2.1211,2.1211,2.1211,2.1211,2.1211,2.1211,2.171,2.2757,2.245,2.1608,2.0307,2.0307,2.0676,2.1211,2.1211,2.1211,2.1211,2.1211,2.1211,2.1211,2.1211,2.1211,2.1211,2.1211,2.1211,2.1167,2.0889,2.0786,2.0742,2.0402,2.0285,2.0249,2.0249,2.0219,2.0183,2.0183,2.0183,2.0183,2.0183,1.9979,1.9774,1.9774,1.9555,1.9266,1.8999,1.9116,1.9199,1.8938,1.8881,1.8867,1.8824,1.8482,1.8153,1.8101,1.7996,1.7509,1.6486,1.638,1.5956,1.477,1.4663,1.4561,1.4089,1.4202,1.4191,1.3863,1.4024,1.4078,1.4078,1.397,1.3814,1.3652,1.1714,1.0692,1.0692,1.0692,1.0692,1.0692,1.0637,1.0637,2.1961,2.1784,2.1739,2.1819,2.2138,2.2295,2.1696,2.2161,2.26,2.2011,0.0,0.0,0.0,0.0,0.0,0.0,0.0,0.0,0.0,0.0,0.0,0.0,0.0,0.0,0.0,0.0,0.0,0.0,0.0,0.0,2.1528,2.0989,2.0933,2.1528,2.0933,0.0,2.2504,2.1852,2.212,2.3252,2.3141,2.2724,2.2033,2.2033,2.1511,2.0669,2.0669,2.0669,2.0669,2.0669,2.0669,2.0684,2.0867,2.094,2.094,2.094,2.094,2.0889,2.0567,2.0394,2.0428,2.0227,2.012,1.9974,1.9974,1.9842,1.9703,1.9703,1.9703,1.9703,1.9703,1.9594,1.9544,1.9544,1.9434,1.9263,1.9132,1.9221,1.929,1.9152,1.9123,1.9123,1.9123,1.9011,1.8855,1.8698,1.8698,1.8429,1.7726,1.7838,1.7404,1.6109,1.6115,1.579,1.4883,1.5423,1.5689,1.5577,1.6168,1.6493,1.6493,1.5896,1.5577,1.5577,1.3593,1.2309,1.1664,1.1664,1.1664,1.1664,1.1664,1.1607,2.3091,2.2599,2.2236,2.2916,2.3091,2.2993,2.2541,0.0,2.3547,0.0,0.0,0.0,0.0,0.0,0.0,0.0,0.0,0.0,0.0,0.0,0.0,0.0,0.0,0.0,0.0,0.0,0.0,0.0,0.0,0.0,2.2285,2.1557,2.1449,2.2194,2.1449,2.1826,2.3464,2.2925,2.2883,2.3372,2.3695,2.3643,2.3235,2.3235,2.2343,2.078,2.0638,2.0604,2.0604,2.0285,2.0183,2.0259,2.077,2.0977,2.1033,2.1302,2.1246,2.0925,2.0597,2.0323,2.0098,2.0018,1.9828,1.9691,1.9691,1.9522,1.9279,1.9279,1.9279,1.9279,1.9279,1.9279,1.9279,1.9279,1.9279,1.9279,1.9279,1.9279,1.9279,1.9279,1.9279,1.9279,1.9279,1.9279,1.9227,1.9026,1.9026,1.8914,1.8639,1.8862,1.8586,1.7503,1.7562,1.7186,1.6115,1.6757,1.7239,1.7127,1.7937,1.8422,1.8422,1.7562,1.7127,1.7127,1.5849,1.4454,1.2955,1.2847,1.2847,1.2847,1.2734,1.2685,2.3091,2.3047,2.3047,2.3101,2.3091,2.3101,2.3076,0.0,0.0,0.0,0.0,0.0,0.0,0.0,0.0,0.0,0.0,0.0,0.0,0.0,0.0,0.0,0.0,0.0,0.0,0.0,0.0,0.0,0.0,0.0,2.3711,2.3658,2.3561,2.3411,2.3358,2.3358,2.3517,2.4507,2.4373,2.304,2.4197,2.3991,2.2544,2.2544,2.2502,2.2384,2.1896,2.1711,2.1657,2.0604,2.0183,2.0285,2.1364,2.1734,2.1842,2.2966,2.2646,2.1687,2.1454,2.0666,1.9793,1.9425,1.9316,1.9353,1.9353,1.9286,1.9279,1.9279,1.9279,1.9279,1.9279,1.9279,1.9279,1.9279,1.9279,1.9279,1.9279,1.9279,1.9279,1.9279,1.9279,1.9279,1.9279,1.9279,1.9279,1.9279,1.9279,1.9272,1.9279,1.9272,1.9279,1.9168,1.9168,1.9071,1.8705,1.8764,1.8653,1.8318,1.837,1.8422,1.8422,1.8318,1.8318,1.8318,1.8206,1.6975,1.4465,1.4191,1.403,1.4024,1.3747,1.364,2.3091,2.3091,2.3091,2.3091,2.3091,2.3091,2.3091,2.3218,2.3457,0.0,0.0,0.0,0.0,0.0,0.0,0.0,0.0,0.0,0.0,0.0,0.0,0.0,0.0,0.0,0.0,0.0,0.0,0.0,0.0,0.0,2.4519,2.3854,2.3761,2.4377,2.3558,2.3354,2.3862,2.4948,2.5242,2.4734,2.5149,2.5074,2.4569,2.4569,2.4569,2.4538,2.3646,2.2886,2.2227,2.1813,2.1666,2.1734,2.2336,2.2584,2.2628,2.3054,2.2942,2.2526,2.2212,2.1831,2.1404,2.0573,2.0336,2.0181,1.9532,1.9783,2.0336,2.0336,2.0834,2.1336,2.1336,2.0834,2.013,1.948,1.9279,1.9279,1.9279,1.9279,1.9279,1.9279,1.9279,1.9279,1.9279,1.9279,1.9279,1.9279,1.9279,1.9279,1.9279,1.9279,1.9279,1.9279,1.9279,1.9279,1.9175,1.9175,1.9123,1.9011,1.8959,1.8959,1.8959,1.8959,1.8959,1.8959,1.8803,1.7786,1.5956,1.5843,1.5606,1.5235,1.5088,1.4865,2.3091,2.3091,2.3091,2.3091,2.3091,2.3091,2.3091,0.0,2.3179,0.0,0.0,0.0,0.0,0.0,0.0,0.0,0.0,0.0,0.0,0.0,0.0,0.0,0.0,0.0,0.0,0.0,0.0,0.0,0.0,0.0,2.5596,2.4894,2.4737,2.5294,2.4541,2.4295,2.4609,2.5421,2.5781,2.5693,2.5781,2.582,2.583,2.5927,2.5975,2.5927,2.5197,2.4187,2.2994,2.2643,2.2534,2.271,2.3274,2.3573,2.3675,2.4038,2.3937,2.3589,2.3373,2.3094,2.2634,2.1937,2.1692,2.1582,2.0885,2.1081,2.1582,2.1582,2.2038,2.2534,2.2584,2.2089,2.1387,2.0688,2.0181,1.9931,2.0285,1.9835,1.9279,1.9279,1.9279,1.9279,1.9279,1.9279,1.9279,1.9279,1.9279,1.9279,1.9279,1.9279,1.9279,1.9279,1.9279,1.9279,1.9279,1.9279,1.9279,1.9279,1.9279,1.9279,1.9279,1.9279,1.9279,1.9279,1.913,1.8485,1.7408,1.7199,1.6951,1.6613,1.6311,1.5969,0.0,0.0,0.0,2.3091,2.3091,2.3091,2.3091,0.0,2.3091,0.0,0.0,0.0,0.0,0.0,0.0,0.0,0.0,0.0,0.0,0.0,0.0,0.0,0.0,0.0,0.0,0.0,0.0,0.0,0.0,2.7177,2.6948,2.69,2.6651,2.6149,2.64,2.6265,2.5732,2.5955,2.5955,2.5732,2.6014,2.6091,2.61,2.64,2.6496,2.6496,2.6496,2.5596,2.4088,2.3044,2.2785,2.3094,2.4137,2.4737,2.5089,2.61,2.5849,2.4943,2.4943,2.4295,2.3393,2.3335,2.3343,2.3335,2.3294,2.3135,2.2935,2.2935,2.2785,2.2685,2.2885,2.2935,2.2935,2.2935,2.1937,2.1234,2.2291,2.0885,1.9428,1.9376,1.9376,1.9376,1.9331,1.9324,1.9279,1.9279,1.9279,1.9279,1.9279,1.9279,1.9279,1.9279,1.9279,1.9279,1.9279,1.9279,1.9279,1.9279,1.9279,1.9279,1.9279,1.9279,1.9279,1.9279,1.9264,1.9103,1.8789,1.828,1.8011,1.7976,1.7309,1.6868,2.3091,0.0,0.0,0.0,0.0,0.0,2.3091,2.3091,2.3091,0.0,0.0,0.0,0.0,0.0,0.0,0.0,0.0,0.0,0.0,0.0,0.0,0.0,0.0,0.0,0.0,0.0,0.0,0.0,2.7309,2.7262,2.7167,2.7167,2.7023,2.6699,2.6747,2.6602,2.6265,2.6352,2.6352,2.6265,2.6352,2.64,2.64,2.6448,2.6496,2.6496,2.6496,2.6245,2.579,2.5538,2.5441,2.5538,2.5839,2.5994,2.6091,2.64,2.6294,2.6042,2.6042,2.5849,2.5499,2.4698,2.4442,2.4285,2.3543,2.3791,2.4344,2.4344,2.4835,2.5236,2.4541,2.4344,2.4137,2.3384,2.2894,2.2735,2.2985,2.2584,2.2089,2.1684,2.1132,2.0688,2.0483,1.9828,1.9279,1.9279,1.9279,1.9279,1.9279,1.9279,1.9279,1.9279,1.9279,1.9279,1.9279,1.9279,1.9279,1.9279,1.9279,1.9279,1.9279,1.9279,1.9279,1.9279,1.9045,1.8877,1.8789,1.8637,1.8247,1.7548,1.7198,1.6964,2.3091,2.3091,2.3091,2.3091,0.0,0.0,2.3091,2.3091,2.3135,0.0,0.0,0.0,0.0,0.0,0.0,0.0,0.0,0.0,0.0,0.0,0.0,0.0,0.0,0.0,0.0,0.0,0.0,0.0,2.6915,2.7102,2.7299,2.7309,2.7167,2.69,2.6996,2.689,2.6496,2.6592,2.6592,2.6496,2.6592,2.6651,2.6651,2.6784,2.6832,2.6832,2.6832,2.6832,2.6832,2.6832,2.6784,2.6651,2.6651,2.6747,2.6832,2.6832,2.6832,2.6832,2.6832,2.6832,2.6726,2.6081,2.5877,2.5781,2.5178,2.5333,2.5742,2.5742,2.6197,2.6496,2.5897,2.5742,2.5596,2.4943,2.4384,2.4088,2.4541,2.4375,2.3881,2.2985,2.2433,2.2089,2.1937,2.1285,2.0637,2.0181,2.0034,1.9835,1.9524,1.948,1.948,1.948,1.948,1.9428,1.9331,1.9279,1.9331,1.948,1.948,1.948,1.948,1.948,1.9369,1.9126,1.8884,1.8657,1.8379,1.8379,1.8018,1.7325,1.7192,1.7113,2.3101,2.3144,2.3178,2.3091,2.3135,0.0,2.3101,2.3135,2.3232,0.0,0.0,0.0,0.0,0.0,0.0,0.0,0.0,0.0,0.0,0.0,0.0,0.0,0.0,0.0,0.0,0.0,2.5875,2.5875,2.6304,2.6718,2.7133,2.7195,2.7094,2.6867,2.7146,2.7071,2.6592,2.6853,2.6794,2.6592,2.6842,2.6948,2.6948,2.7167,2.7309,2.7309,2.7309,2.7309,2.7309,2.7309,2.7177,2.6948,2.6948,2.7081,2.7309,2.7309,2.7309,2.7309,2.7309,2.7309,2.7309,2.7309,2.7309,2.7309,2.7309,2.7119,2.6948,2.6948,2.6948,2.6948,2.6948,2.6948,2.6948,2.6948,2.6042,2.5441,2.639,2.6022,2.5158,2.398,2.3633,2.3534,2.3493,2.3185,2.2634,2.1692,2.1336,2.0885,2.0181,2.0078,2.0027,1.9931,2.0034,1.9983,1.9576,1.968,1.9835,2.0078,2.0078,2.0078,2.0078,1.9983,1.9677,1.9093,1.8968,1.857,1.7901,1.7805,1.7611,1.7279,1.7279,1.7279,0.0,0.0,0.0,0.0,0.0,0.0,2.3144,2.3276,2.346,0.0,0.0,0.0,0.0,0.0,0.0,0.0,0.0,0.0,0.0,0.0,0.0,0.0,0.0,0.0,0.0,0.0,2.5875,2.5875,2.5958,2.6096,2.619,2.6542,2.6703,2.6656,2.7065,2.7262,2.7119,2.7214,2.7214,2.7119,2.7214,2.7214,2.7214,2.7262,2.7309,2.7309,2.7309,2.7309,2.7309,2.7309,2.7262,2.7214,2.7214,2.7262,2.7309,2.7309,2.7309,2.7309,2.7309,2.7309,2.7309,2.7309,2.7309,2.7309,2.7309,2.7262,2.7214,2.7214,2.7214,2.7214,2.7214,2.7214,2.7214,2.7214,2.7013,2.6907,2.7119,2.7013,2.6812,2.6562,2.5664,2.4865,2.4639,2.384,2.3135,2.2935,2.2894,2.2785,2.2634,2.2584,2.2291,2.1387,2.2089,2.224,2.1285,2.2038,2.2534,2.2584,2.2584,2.2584,2.2584,2.1785,2.1115,2.0759,1.9861,1.9186,1.8621,1.7789,1.7344,1.7279,1.7279,1.7279,0.0,0.0,0.0,2.3493,0.0,0.0,0.0,2.3537,2.3677,0.0,0.0,0.0,0.0,0.0,0.0,0.0,0.0,0.0,0.0,0.0,0.0,0.0,0.0,0.0,0.0,0.0,2.5306,2.5533,2.5554,2.5647,2.591,2.6138,2.6273,2.6273,2.6718,2.6957,2.6957,2.7195,2.7309,2.7309,2.7309,2.7309,2.7309,2.7309,2.7309,2.7309,2.7309,2.7309,2.7309,2.7309,2.7309,2.7309,2.7309,2.7309,2.7309,2.7309,2.7309,2.7309,2.7309,2.7309,2.7309,2.7309,2.7309,2.7309,2.7309,2.7309,2.7309,2.7309,2.7309,2.7309,2.7309,2.7309,2.7309,2.7309,2.7309,2.7309,2.7309,2.7309,2.7309,2.7309,2.6754,2.6254,2.6119,2.5538,2.4933,2.4375,2.4177,2.3939,2.3534,2.3493,2.3285,2.2735,2.3185,2.3244,2.2534,2.2985,2.3335,2.3484,2.3493,2.3493,2.3493,2.2985,2.2367,2.1645,2.0712,2.01,1.9861,1.936,1.8503,1.7279,1.7434,1.7426,0.0,0.0,0.0,0.0,0.0,2.3841,0.0,0.0,0.0,0.0,0.0,0.0,0.0,0.0,0.0,0.0,0.0,0.0,0.0,0.0,0.0,0.0,0.0,0.0,0.0,0.0,2.4652,2.5024,2.5055,2.5254,2.5606,2.5709,2.5761,2.5761,2.6196,2.6532,2.6615,2.6988,2.7216,2.7309,2.7309,2.7309,2.7309,2.7309,2.7309,2.7309,2.7309,2.7309,2.7309,2.7309,2.7309,2.7309,2.7309,2.7309,2.7309,2.7309,2.7309,2.7309,2.7309,2.7309,2.7309,2.7309,2.7309,2.7309,2.7309,2.7309,2.7309,2.7309,2.7309,2.7309,2.7309,2.7309,2.7309,2.7309,2.7309,2.7309,2.7309,2.7309,2.7309,2.7309,2.7309,2.7309,2.7309,2.7129,2.6678,2.5809,2.5518,2.5138,2.4482,2.4384,2.4335,2.4088,2.4285,2.4227,2.3791,2.393,2.4177,2.4384,2.4384,2.4384,2.4384,2.4113,2.3523,2.251,2.1734,2.1329,2.1212,2.1212,1.9997,1.7738,1.8118,1.8118,0.0,0.0,0.0,0.0,2.398,0.0,0.0,0.0,2.4163,2.4206,0.0,0.0,0.0,0.0,0.0,0.0,0.0,0.0,0.0,0.0,0.0,0.0,0.0,0.0,0.0,0.0,0.0,2.458,2.458,2.46,2.4642,2.5034,2.5261,2.5261,2.573,2.62,2.6615,2.6667,2.6895,2.7309,2.7309,2.7309,2.7309,2.7309,2.7309,2.7309,2.7309,2.7309,2.7309,2.7309,2.7309,2.7309,2.7309,2.7309,2.7309,2.7309,2.7309,2.7309,2.7309,2.7309,2.7309,2.7309,2.7309,2.7309,2.7309,2.7309,2.7309,2.7309,2.7309,2.7309,2.7309,2.7309,2.7309,2.7309,2.7309,2.7309,2.7309,2.7309,2.7309,2.7309,2.7309,2.7309,2.7309,2.7262,2.7214,2.7109,2.7061,2.7003,2.6907,2.6907,2.6524,2.5586,2.6322,2.6466,2.5489,2.6322,2.686,2.6907,2.6907,2.6907,2.6907,2.5704,2.4657,2.3802,2.3317,2.2799,2.2217,2.2217,2.1186,1.9255,2.0133,2.0096,0.0,0.0,0.0,0.0,0.0,0.0,2.4239,0.0,2.4368,0.0,0.0,0.0,0.0,0.0,0.0,0.0,0.0,0.0,0.0,0.0,0.0,0.0,0.0,0.0,0.0,0.0,0.0,0.0,0.0,2.4497,2.4497,2.4683,2.4786,2.4786,2.5264,2.5595,2.5792,2.631,2.6718,2.6915,2.7185,2.7309,2.7309,2.7309,2.7309,2.7309,2.7309,2.7309,2.7309,2.7309,2.7309,2.7309,2.7309,2.7309,2.7309,2.7309,2.7309,2.7309,2.7309,2.7309,2.7309,2.7309,2.7309,2.7309,2.7309,2.7309,2.7309,2.7309,2.7309,2.7309,2.7309,2.7309,2.7309,2.7309,2.7309,2.7309,2.7309,2.7309,2.7309,2.7309,2.7309,2.7309,2.7309,2.7309,2.7309,2.7309,2.7309,2.7309,2.7309,2.7309,2.7119,2.6668,2.7013,2.7109,2.6678,2.7013,2.7309,2.7309,2.7309,2.7309,2.7309,2.6478,2.574,2.5103,2.4661,2.4175,2.3604,2.3604,2.2931,2.1578,2.1257,2.0854,2.6107,0.0,0.0,0.0,0.0,0.0,0.0,0.0,0.0,0.0,0.0,0.0,0.0,0.0,0.0,0.0,0.0,0.0,0.0,0.0,0.0,0.0,0.0,0.0,0.0,0.0,0.0,0.0,0.0,0.0,2.4497,2.4497,2.4497,2.4497,2.4828,2.5065,2.5189,2.5875,2.633,2.6615,2.6957,2.7185,2.7309,2.7309,2.7309,2.7309,2.7309,2.7309,2.7309,2.7309,2.7309,2.7309,2.7309,2.7309,2.7309,2.7309,2.7309,2.7309,2.7309,2.7309,2.7309,2.7309,2.7309,2.7309,2.7309,2.7309,2.7309,2.7309,2.7309,2.7309,2.7309,2.7309,2.7309,2.7309,2.7309,2.7309,2.7309,2.7309,2.7309,2.7309,2.7309,2.7309,2.7309,2.7309,2.7309,2.7309,2.7309,2.7309,2.7309,2.7309,2.7309,2.7309,2.7309,2.7309,2.7309,2.7309,2.7309,2.7309,2.7309,2.7309,2.7309,2.6988,2.6532,2.5885,2.5575,2.5075,2.4497,2.4497,2.4143,2.3454,2.2604,2.1924,0.0,0.0,0.0,2.6124,0.0,0.0,0.0,0.0,2.4743,0.0,0.0,0.0,0.0,0.0,2.5355,2.4127,0.0,0.0,0.0,0.0,0.0,0.0,0.0,0.0,0.0,0.0,0.0,0.0,0.0,0.0,2.4497,2.4497,2.4497,2.4497,2.4507,2.4735,2.5179,2.521,2.5709,2.6615,2.6625,2.6874,2.7309,2.7309,2.7309,2.7309,2.7309,2.7309,2.7309,2.7309,2.7309,2.7309,2.7309,2.7309,2.7309,2.7309,2.7309,2.7309,2.7309,2.7309,2.7309,2.7309,2.7309,2.7309,2.7309,2.7309,2.7309,2.7309,2.7309,2.7309,2.7309,2.7309,2.7309,2.7309,2.7309,2.7309,2.7309,2.7309,2.7309,2.7309,2.7309,2.7309,2.7309,2.7309,2.7309,2.7309,2.7309,2.7309,2.7309,2.7309,2.7309,2.7309,2.7309,2.7309,2.7309,2.7309,2.7309,2.7309,2.7309,2.7309,2.7309,2.7299,2.6853,2.5941,2.591,2.542,2.4497,2.4497,2.4497,2.4454,2.4411,2.3907,0.0,0.0,2.7086,2.8043,0.0,0.0,0.0,0.0,0.0,0.0,0.0,0.0,0.0,0.0,2.565,2.5217,2.4808,2.4445,0.0,0.0,0.0,0.0,0.0,0.0,0.0,0.0,0.0,0.0,0.0,0.0,0.0,2.4497,2.4497,2.4497,2.4497,2.458,2.4735,2.5034,2.5533,2.6159,2.647,2.6864,2.7309,2.7309,2.7309,2.7309,2.7309,2.7309,2.7309,2.7309,2.7678,2.8222,2.8222,2.8222,2.8128,2.7536,2.7309,2.7309,2.7309,2.7309,2.7309,2.7309,2.7309,2.7309,2.7309,2.7309,2.7441,2.8034,2.8222,2.8362,2.9037,2.8724,2.8222,2.8222,2.7857,2.7631,2.8128,2.8351,2.8445,2.8269,2.8222,2.8034,2.7394,2.7309,2.7309,2.7309,2.7309,2.7309,2.7309,2.7309,2.7309,2.7309,2.7309,2.7309,2.7309,2.7309,2.7309,2.7309,2.7309,2.7309,2.7309,2.7309,2.6874,2.5941,2.5875,2.544,2.4497,2.4497,2.4497,2.4497,2.4497,2.4315,2.8034,2.8032,0.0,2.9004,2.8911,0.0,2.8228,0.0,0.0,0.0,0.0,0.0,0.0,0.0,2.6648,2.6318,2.5799,2.5432,0.0,2.5913,0.0,0.0,0.0,0.0,0.0,0.0,0.0,0.0,0.0,0.0,0.0,0.0,2.4497,2.4497,2.4497,2.4497,2.4497,2.4797,2.5285,2.5885,2.6231,2.6698,2.7309,2.7309,2.7489,2.7809,2.7809,2.7998,2.8351,2.8351,2.8713,2.9338,2.9338,2.9383,2.9326,2.8222,2.7584,2.7309,2.7404,2.7404,2.7452,2.7809,2.7951,2.7987,2.8258,2.8351,2.8402,2.8908,2.9169,2.9442,2.9974,2.9795,2.9464,2.9464,2.9096,2.8877,2.9326,2.9601,2.9647,2.9383,2.9338,2.9165,2.8516,2.8434,2.8164,2.7394,2.7309,2.7309,2.7309,2.7309,2.7309,2.7404,2.7357,2.7309,2.7309,2.7309,2.7309,2.7404,2.7404,2.7452,2.7536,2.7536,2.7134,2.6326,2.6149,2.5612,2.4745,2.4666,2.4658,2.4658,2.4658,2.4658]}]]